[[{"header":{"parameterUnit":"m.s-1","parameterCategory":1,"la1":30.6,"la2":29.2853,"lo1":-89.7004,"lo2":-87.6739,"dy":0.0162,"dx":0.0183,"nx":112,"ny":82,"refTime":"2023-06-07T18:00:00:Z","depth":0,"parameterNumber":2,"parameterNumberName":"U-component_of_WINDS"},"data":[0.0,0.0,0.0,0.0,0.0,0.0,0.0,0.0,0.0,0.0,0.0,0.0,0.0,0.0,0.0,0.0,0.0,0.0,0.0,0.0,0.0,0.0,0.0,0.0,0.0,0.0,0.0,0.0,0.0,0.0,0.0,0.0,0.0,0.0,0.0,0.0,0.0,0.0,0.0,0.0,0.0,0.0,0.0,0.0,0.0,0.0,0.0,0.0,0.0,0.0,0.0,0.0,0.0,0.0,0.0,0.0,0.0,0.0,0.0,0.0,0.0,0.0,0.0,0.0,0.0,0.0,0.0,0.0,0.0,0.0,0.0,0.0,0.0,0.0,0.0,0.0,0.0,0.0,0.0,0.0,0.0,0.0,0.0,0.0,0.0,0.0,0.0,0.0,0.0,0.0,-2.8267,-2.9417,-2.9702,-2.9792,-2.9792,-2.9792,-2.9792,-2.9792,0.0,0.0,0.0,0.0,0.0,0.0,0.0,0.0,0.0,0.0,0.0,0.0,0.0,0.0,0.0,0.0,0.0,0.0,0.0,0.0,0.0,0.0,0.0,0.0,0.0,0.0,0.0,0.0,0.0,0.0,0.0,0.0,0.0,0.0,0.0,0.0,0.0,0.0,0.0,0.0,0.0,0.0,0.0,0.0,0.0,0.0,0.0,0.0,0.0,0.0,0.0,0.0,0.0,0.0,0.0,0.0,0.0,0.0,0.0,0.0,0.0,0.0,0.0,0.0,0.0,0.0,0.0,0.0,0.0,0.0,0.0,0.0,0.0,0.0,0.0,0.0,0.0,0.0,0.0,0.0,0.0,0.0,0.0,0.0,0.0,0.0,0.0,0.0,0.0,0.0,0.0,0.0,0.0,0.0,0.0,0.0,0.0,0.0,0.0,0.0,0.0,0.0,0.0,0.0,-2.7168,-2.8227,-2.9236,-2.9792,-2.9792,-2.9792,-2.9792,-2.9792,0.0,0.0,0.0,0.0,0.0,0.0,0.0,0.0,0.0,0.0,0.0,0.0,0.0,0.0,0.0,0.0,0.0,0.0,0.0,0.0,0.0,0.0,0.0,0.0,0.0,0.0,0.0,0.0,0.0,0.0,0.0,0.0,0.0,0.0,0.0,0.0,0.0,0.0,0.0,0.0,0.0,0.0,0.0,0.0,0.0,0.0,0.0,0.0,0.0,0.0,0.0,0.0,0.0,0.0,0.0,0.0,0.0,0.0,0.0,0.0,0.0,0.0,0.0,0.0,0.0,0.0,0.0,0.0,0.0,0.0,0.0,0.0,0.0,0.0,0.0,0.0,0.0,0.0,0.0,0.0,0.0,0.0,0.0,0.0,0.0,0.0,0.0,0.0,0.0,0.0,0.0,0.0,0.0,0.0,0.0,0.0,0.0,0.0,0.0,0.0,0.0,0.0,0.0,-2.7801,-2.8923,-2.9417,-3.0179,-3.0658,-3.0658,-3.0658,-3.0658,-3.0658,-2.9828,0.0,0.0,0.0,0.0,0.0,0.0,0.0,0.0,0.0,0.0,0.0,0.0,0.0,0.0,0.0,0.0,0.0,0.0,0.0,0.0,0.0,0.0,0.0,0.0,0.0,0.0,0.0,0.0,0.0,0.0,0.0,0.0,0.0,0.0,0.0,0.0,0.0,0.0,0.0,0.0,0.0,0.0,0.0,0.0,0.0,0.0,0.0,0.0,0.0,0.0,0.0,0.0,0.0,0.0,0.0,0.0,0.0,0.0,0.0,0.0,0.0,0.0,0.0,0.0,0.0,0.0,0.0,0.0,0.0,0.0,0.0,0.0,0.0,0.0,0.0,0.0,0.0,0.0,0.0,0.0,0.0,0.0,0.0,0.0,0.0,0.0,0.0,0.0,0.0,0.0,0.0,0.0,0.0,0.0,0.0,0.0,0.0,0.0,0.0,0.0,0.0,0.0,-2.8078,-2.9653,-2.9939,-3.0593,-3.1087,-3.1386,-3.1386,-3.1263,-3.0993,-2.9794,0.0,0.0,0.0,0.0,0.0,0.0,0.0,0.0,0.0,0.0,0.0,0.0,0.0,0.0,0.0,0.0,0.0,0.0,0.0,0.0,0.0,0.0,0.0,0.0,0.0,0.0,0.0,0.0,0.0,0.0,0.0,0.0,0.0,0.0,0.0,0.0,0.0,0.0,0.0,0.0,0.0,0.0,0.0,0.0,0.0,0.0,0.0,0.0,0.0,0.0,0.0,0.0,0.0,0.0,0.0,0.0,0.0,0.0,0.0,0.0,0.0,0.0,0.0,0.0,0.0,0.0,0.0,0.0,0.0,0.0,0.0,0.0,0.0,0.0,0.0,0.0,0.0,0.0,0.0,0.0,0.0,0.0,0.0,0.0,0.0,0.0,0.0,0.0,0.0,0.0,0.0,0.0,0.0,0.0,0.0,0.0,0.0,0.0,0.0,0.0,0.0,0.0,-2.5636,-2.6842,-2.797,-2.9079,-3.0181,-3.1304,-3.1386,-3.091,-2.9792,-2.9629,0.0,0.0,0.0,0.0,0.0,0.0,0.0,0.0,0.0,0.0,0.0,0.0,0.0,0.0,0.0,0.0,0.0,0.0,0.0,0.0,0.0,0.0,0.0,0.0,0.0,0.0,0.0,0.0,0.0,0.0,0.0,0.0,0.0,0.0,0.0,0.0,0.0,0.0,0.0,0.0,0.0,0.0,0.0,0.0,0.0,0.0,0.0,0.0,0.0,0.0,0.0,0.0,0.0,0.0,0.0,0.0,0.0,0.0,0.0,0.0,0.0,0.0,0.0,0.0,0.0,0.0,0.0,0.0,0.0,0.0,0.0,0.0,0.0,0.0,0.0,0.0,0.0,0.0,0.0,0.0,0.0,0.0,0.0,0.0,0.0,0.0,0.0,0.0,0.0,0.0,0.0,0.0,0.0,0.0,0.0,0.0,0.0,0.0,0.0,0.0,0.0,0.0,-2.6751,-2.7821,-2.8299,-2.9024,-2.9662,-3.0103,-3.0147,-3.0279,-3.0585,0.0,0.0,0.0,0.0,0.0,0.0,0.0,0.0,0.0,0.0,0.0,0.0,0.0,0.0,0.0,0.0,0.0,0.0,0.0,0.0,0.0,0.0,0.0,0.0,0.0,0.0,0.0,0.0,0.0,0.0,0.0,0.0,0.0,0.0,0.0,0.0,0.0,0.0,0.0,0.0,0.0,0.0,0.0,0.0,0.0,0.0,0.0,0.0,0.0,0.0,0.0,0.0,0.0,0.0,0.0,0.0,0.0,0.0,0.0,0.0,0.0,0.0,0.0,0.0,0.0,0.0,0.0,0.0,0.0,0.0,0.0,0.0,0.0,0.0,0.0,0.0,0.0,0.0,0.0,0.0,0.0,0.0,0.0,0.0,0.0,0.0,0.0,0.0,0.0,0.0,0.0,0.0,0.0,0.0,0.0,0.0,0.0,0.0,0.0,0.0,0.0,0.0,-2.5957,-2.6953,-2.7823,-2.8235,-2.8622,-2.8993,-2.9361,-2.9407,-2.959,-3.0045,0.0,0.0,0.0,0.0,0.0,0.0,0.0,0.0,0.0,0.0,0.0,0.0,0.0,0.0,0.0,0.0,0.0,0.0,0.0,0.0,0.0,0.0,0.0,0.0,0.0,0.0,0.0,0.0,0.0,0.0,0.0,0.0,0.0,0.0,0.0,0.0,0.0,0.0,0.0,0.0,0.0,0.0,0.0,0.0,0.0,0.0,0.0,0.0,0.0,0.0,0.0,0.0,0.0,0.0,0.0,0.0,0.0,0.0,0.0,0.0,0.0,0.0,0.0,0.0,0.0,0.0,0.0,0.0,0.0,0.0,0.0,0.0,0.0,0.0,0.0,0.0,0.0,0.0,0.0,0.0,0.0,0.0,0.0,0.0,0.0,0.0,0.0,0.0,0.0,0.0,0.0,0.0,0.0,0.0,0.0,0.0,0.0,0.0,0.0,0.0,0.0,0.0,-2.5635,-2.5693,-2.6197,-2.7447,-2.7589,-2.8049,-2.9269,-2.9361,-2.8866,0.0,0.0,0.0,0.0,0.0,0.0,0.0,0.0,0.0,0.0,0.0,0.0,0.0,0.0,0.0,0.0,0.0,0.0,0.0,0.0,0.0,0.0,0.0,0.0,0.0,0.0,0.0,0.0,0.0,0.0,0.0,0.0,0.0,0.0,0.0,0.0,0.0,0.0,0.0,0.0,0.0,0.0,0.0,0.0,0.0,0.0,0.0,0.0,0.0,0.0,0.0,0.0,0.0,0.0,0.0,0.0,0.0,0.0,0.0,0.0,0.0,0.0,0.0,0.0,0.0,0.0,0.0,0.0,0.0,0.0,0.0,0.0,0.0,0.0,0.0,0.0,0.0,0.0,0.0,0.0,0.0,0.0,0.0,0.0,0.0,0.0,0.0,0.0,0.0,0.0,0.0,0.0,0.0,0.0,0.0,0.0,0.0,0.0,0.0,0.0,0.0,0.0,0.0,-2.5674,-2.5693,-2.583,-2.6197,-2.6245,-2.638,-2.6754,-2.6791,-2.703,-2.7589,0.0,0.0,0.0,0.0,0.0,0.0,0.0,0.0,0.0,0.0,0.0,0.0,0.0,0.0,0.0,0.0,0.0,0.0,0.0,0.0,0.0,0.0,0.0,0.0,0.0,0.0,0.0,0.0,0.0,0.0,0.0,0.0,0.0,0.0,0.0,0.0,0.0,0.0,0.0,0.0,0.0,0.0,0.0,0.0,0.0,0.0,0.0,0.0,0.0,0.0,0.0,0.0,0.0,0.0,0.0,0.0,0.0,0.0,0.0,0.0,0.0,0.0,0.0,0.0,0.0,0.0,0.0,0.0,0.0,0.0,0.0,0.0,0.0,0.0,0.0,0.0,0.0,0.0,0.0,0.0,0.0,0.0,0.0,0.0,0.0,0.0,0.0,0.0,0.0,0.0,0.0,0.0,0.0,0.0,0.0,0.0,0.0,0.0,0.0,0.0,0.0,0.0,-2.5693,-2.5693,-2.5693,-2.5693,-2.5693,-2.5693,-2.5693,-2.5693,-2.6014,-2.6802,0.0,0.0,0.0,0.0,0.0,0.0,0.0,0.0,0.0,0.0,0.0,0.0,0.0,0.0,0.0,0.0,0.0,0.0,0.0,0.0,0.0,0.0,0.0,0.0,0.0,0.0,0.0,0.0,0.0,0.0,0.0,0.0,0.0,0.0,0.0,0.0,0.0,0.0,0.0,0.0,0.0,0.0,0.0,0.0,0.0,0.0,0.0,0.0,0.0,0.0,0.0,0.0,0.0,0.0,0.0,0.0,0.0,0.0,0.0,0.0,0.0,0.0,0.0,0.0,0.0,0.0,0.0,0.0,0.0,0.0,0.0,0.0,0.0,0.0,0.0,0.0,0.0,0.0,0.0,0.0,0.0,0.0,0.0,0.0,0.0,0.0,0.0,0.0,0.0,0.0,0.0,0.0,0.0,0.0,0.0,0.0,0.0,0.0,0.0,0.0,0.0,0.0,-2.5693,-2.5693,-2.5693,-2.5693,-2.5693,-2.5693,-2.5693,-2.5693,-2.5693,-2.5693,0.0,0.0,0.0,0.0,0.0,0.0,0.0,0.0,0.0,0.0,0.0,0.0,0.0,0.0,0.0,0.0,0.0,0.0,0.0,0.0,0.0,0.0,0.0,0.0,0.0,0.0,0.0,0.0,0.0,0.0,0.0,0.0,0.0,0.0,0.0,0.0,0.0,0.0,0.0,0.0,0.0,0.0,0.0,0.0,0.0,0.0,0.0,0.0,0.0,0.0,0.0,0.0,0.0,0.0,0.0,0.0,0.0,0.0,0.0,0.0,-2.1624,0.0,0.0,0.0,0.0,0.0,0.0,0.0,0.0,0.0,0.0,0.0,0.0,0.0,0.0,0.0,0.0,0.0,0.0,0.0,0.0,0.0,0.0,0.0,0.0,0.0,0.0,0.0,0.0,0.0,0.0,0.0,0.0,0.0,0.0,0.0,0.0,0.0,0.0,0.0,0.0,0.0,-2.5693,-2.5693,-2.5693,-2.5693,-2.5693,-2.5693,-2.5693,-2.5693,-2.5693,-2.5693,-2.5693,0.0,0.0,0.0,0.0,0.0,0.0,0.0,0.0,0.0,0.0,0.0,0.0,0.0,0.0,0.0,0.0,0.0,0.0,0.0,0.0,0.0,0.0,0.0,0.0,0.0,0.0,0.0,0.0,0.0,0.0,0.0,0.0,0.0,0.0,0.0,0.0,0.0,0.0,0.0,0.0,0.0,0.0,0.0,0.0,0.0,0.0,0.0,0.0,0.0,0.0,0.0,0.0,0.0,0.0,0.0,0.0,0.0,0.0,0.0,0.0,-2.2593,0.0,0.0,0.0,0.0,0.0,0.0,0.0,0.0,0.0,0.0,0.0,0.0,0.0,0.0,0.0,0.0,0.0,0.0,0.0,0.0,0.0,0.0,0.0,0.0,0.0,0.0,0.0,0.0,0.0,0.0,0.0,0.0,0.0,0.0,0.0,0.0,0.0,0.0,0.0,0.0,-2.5693,-2.5693,-2.5693,-2.5693,-2.5693,-2.5693,-2.5693,-2.5693,-2.5693,-2.5693,-2.5693,0.0,0.0,0.0,0.0,0.0,0.0,0.0,0.0,0.0,0.0,0.0,0.0,0.0,0.0,0.0,0.0,0.0,0.0,0.0,0.0,0.0,0.0,0.0,0.0,0.0,0.0,0.0,0.0,0.0,0.0,0.0,0.0,0.0,0.0,0.0,0.0,0.0,0.0,0.0,0.0,0.0,0.0,0.0,0.0,0.0,0.0,0.0,0.0,0.0,0.0,0.0,0.0,0.0,-2.1518,-2.2151,-2.2151,-2.3153,-2.3809,-2.415,-2.4492,-2.4066,-2.3169,-2.2803,0.0,0.0,0.0,0.0,0.0,0.0,0.0,0.0,0.0,0.0,0.0,0.0,0.0,0.0,0.0,0.0,0.0,0.0,0.0,0.0,0.0,0.0,0.0,0.0,-2.5693,-2.5693,-2.5693,0.0,0.0,0.0,0.0,0.0,0.0,0.0,0.0,0.0,0.0,0.0,-2.5693,-2.5693,-2.5693,-2.5693,-2.5693,-2.5693,-2.5693,-2.5693,-2.5693,-2.5693,-2.5693,-2.5693,0.0,0.0,0.0,0.0,0.0,0.0,0.0,0.0,0.0,0.0,0.0,0.0,0.0,0.0,0.0,0.0,0.0,0.0,0.0,0.0,0.0,0.0,0.0,0.0,0.0,0.0,0.0,0.0,0.0,0.0,0.0,0.0,-1.509,-1.4914,0.0,0.0,0.0,0.0,0.0,0.0,0.0,0.0,0.0,0.0,0.0,0.0,0.0,-1.9674,-1.9852,-2.1207,-2.1898,-2.1907,-2.3738,-2.4617,-2.4627,-2.5119,-2.5382,-2.544,-2.5489,0.0,-2.3672,-2.3188,0.0,0.0,0.0,0.0,0.0,0.0,0.0,0.0,0.0,0.0,0.0,0.0,0.0,0.0,0.0,0.0,0.0,0.0,0.0,0.0,0.0,0.0,-2.4639,-2.5479,-2.5693,-2.5693,0.0,-2.5693,-2.5693,-2.5693,-2.5693,0.0,0.0,0.0,0.0,0.0,0.0,0.0,-2.5693,-2.5693,-2.5693,-2.5693,-2.5693,-2.5693,-2.5693,-2.5693,-2.5693,-2.5693,-2.5693,-2.5693,-2.5693,-2.5693,0.0,0.0,0.0,0.0,0.0,0.0,0.0,0.0,0.0,0.0,0.0,0.0,0.0,0.0,0.0,0.0,0.0,0.0,0.0,0.0,0.0,0.0,0.0,0.0,0.0,0.0,0.0,0.0,0.0,-1.489,-1.5149,-1.5022,-1.5217,-1.5231,0.0,0.0,0.0,0.0,0.0,0.0,0.0,0.0,0.0,-2.0897,-2.1479,-2.2116,-2.2834,-2.3692,-2.4155,-2.4165,-2.5015,-2.5439,-2.5449,-2.5596,-2.5693,-2.5693,-2.5693,-2.5362,-2.4834,-2.4095,-2.3496,-2.291,0.0,0.0,0.0,0.0,-2.2467,-2.236,-2.3076,-2.3154,-2.2959,-2.2959,0.0,0.0,0.0,0.0,0.0,0.0,0.0,0.0,0.0,0.0,-2.4941,-2.5538,-2.5693,-2.5693,-2.5693,-2.5693,-2.5693,0.0,-2.5693,-2.5693,-2.5693,0.0,0.0,0.0,0.0,-2.5693,-2.5693,-2.5693,-2.5693,-2.5693,-2.5693,-2.5693,-2.5693,-2.5693,-2.5693,-2.5693,-2.5693,-2.5693,-2.5693,-2.5693,-2.5693,0.0,0.0,0.0,0.0,0.0,0.0,0.0,0.0,0.0,0.0,0.0,0.0,0.0,0.0,0.0,0.0,0.0,0.0,0.0,0.0,0.0,0.0,0.0,0.0,0.0,0.0,0.0,0.0,-1.5084,-1.5403,-1.5204,-1.5776,-1.609,0.0,0.0,0.0,0.0,0.0,0.0,-2.0002,-2.0706,-2.1635,-2.2889,-2.3529,-2.4285,-2.5234,-2.5566,-2.5693,-2.5693,-2.5693,-2.5693,-2.5693,-2.5693,-2.5693,-2.5693,-2.5693,-2.5693,-2.5635,-2.4902,-2.4336,-2.3906,-2.3477,-2.3252,-2.3257,-2.3633,-2.3584,-2.3374,-2.416,-2.4209,-2.3945,-2.3945,-2.3877,-2.373,-2.3408,0.0,0.0,0.0,0.0,-2.3491,-2.3975,-2.459,-2.5176,-2.5586,-2.5693,-2.5693,-2.5693,-2.5693,-2.5693,0.0,-2.5693,-2.5693,-2.5693,0.0,0.0,0.0,0.0,-2.5693,-2.5693,-2.5693,-2.5693,-2.5693,-2.5693,-2.5693,-2.5693,-2.5693,-2.5693,-2.5693,-2.5693,-2.5693,-2.5693,-2.5693,-2.5693,-2.5693,0.0,0.0,0.0,0.0,0.0,0.0,0.0,0.0,0.0,0.0,0.0,0.0,0.0,0.0,0.0,0.0,0.0,0.0,0.0,0.0,0.0,0.0,0.0,0.0,0.0,0.0,0.0,0.0,0.0,-1.5852,-1.7285,0.0,0.0,0.0,0.0,-1.9748,-2.0046,-2.0766,-2.2007,-2.276,-2.3686,-2.4905,-2.5363,-2.5606,-2.5654,-2.5674,-2.5693,-2.5693,-2.5693,-2.5693,-2.5693,-2.5693,-2.5693,-2.5693,-2.5693,-2.5693,-2.5654,-2.5225,-2.4775,-2.4346,-2.3916,-2.3516,-2.3257,-2.3633,-2.3779,-2.3828,-2.4258,-2.4404,-2.4385,-2.4385,-2.4111,-2.3789,-2.3769,-2.3467,0.0,0.0,-2.373,-2.3955,-2.4785,-2.5086,-2.5176,-2.5586,-2.5693,-2.5693,-2.5693,-2.5693,-2.5693,0.0,-2.5693,-2.5693,-2.5693,0.0,-2.5693,-2.5693,-2.5693,-2.5693,-2.5693,-2.5693,-2.5693,-2.5693,-2.5693,-2.5693,-2.5693,-2.5693,-2.5693,-2.5693,-2.5693,-2.5693,-2.5693,-2.5693,-2.5693,-2.5693,-2.5693,0.0,0.0,0.0,0.0,0.0,0.0,0.0,0.0,0.0,0.0,0.0,0.0,0.0,0.0,0.0,0.0,0.0,0.0,0.0,0.0,0.0,0.0,0.0,0.0,0.0,0.0,0.0,0.0,-1.9002,-1.9598,0.0,-1.9788,-2.0691,-2.1394,-2.1633,-2.2729,-2.3589,-2.403,-2.4584,-2.5044,-2.545,-2.5606,-2.5693,-2.5693,-2.5693,-2.583,-2.6162,-2.6162,-2.6299,-2.6562,-2.6562,-2.6562,-2.6562,-2.6562,-2.6562,-2.6543,-2.6387,-2.5898,-2.5206,-2.5098,-2.4951,-2.4844,-2.499,-2.5039,-2.5021,-2.5167,-2.5216,-2.5216,-2.5216,-2.5118,-2.499,-2.4697,-2.4558,-2.4411,-2.4228,-2.4394,-2.4734,-2.5037,-2.5283,-2.5537,-2.5654,-2.5693,-2.5693,-2.5693,-2.5693,-2.5693,-2.5693,-2.5693,-2.5693,-2.5693,-2.5693,-2.5693,-2.5693,-2.5693,-2.5693,-2.5693,-2.5693,-2.5693,-2.5693,-2.5693,-2.5693,-2.5693,-2.5693,-2.5693,-2.5693,-2.5693,-2.5693,-2.5693,-2.5693,-2.5693,-2.5693,-2.5693,-2.5693,0.0,0.0,0.0,0.0,0.0,0.0,0.0,0.0,0.0,0.0,0.0,0.0,0.0,0.0,0.0,0.0,0.0,0.0,0.0,0.0,0.0,0.0,0.0,0.0,0.0,0.0,-2.0525,-2.0793,-2.1256,-2.1581,-2.1629,-2.2559,-2.3308,-2.3615,-2.4689,-2.5293,-2.5293,-2.5576,-2.5693,-2.5693,-2.583,-2.5957,-2.5957,-2.6044,-2.6318,-2.6602,-2.6602,-2.6748,-2.7012,-2.7012,-2.7012,-2.7012,-2.7012,-2.7012,-2.7012,-2.7012,-2.668,-2.6122,-2.6122,-2.6122,-2.6122,-2.6122,-2.6122,-2.6122,-2.6122,-2.6122,-2.6122,-2.6122,-2.6122,-2.6113,-2.581,-2.5723,-2.5664,-2.5371,-2.5498,-2.5723,-2.5723,-2.5947,-2.6122,-2.6122,-2.6122,-2.6122,-2.6122,-2.6122,-2.6122,-2.6122,-2.5888,-2.5693,-2.5693,-2.5693,-2.5693,-2.5693,-2.5693,-2.5693,-2.5693,-2.5693,-2.5693,-2.5693,-2.5693,-2.5693,-2.5693,-2.5693,-2.5693,-2.5693,-2.5693,-2.5693,-2.5693,-2.5693,-2.5693,-2.5693,-2.5693,-2.5693,-2.5693,0.0,0.0,0.0,0.0,0.0,0.0,0.0,0.0,0.0,0.0,0.0,0.0,0.0,0.0,0.0,0.0,0.0,0.0,0.0,0.0,0.0,0.0,0.0,-2.0002,-2.0676,-2.1219,-2.0981,-2.2189,-2.3163,-2.3374,-2.445,-2.5273,-2.5654,-2.5693,-2.5693,-2.5703,-2.5703,-2.5713,-2.5732,-2.6182,-2.6406,-2.6406,-2.6816,-2.7021,-2.7031,-2.7031,-2.7041,-2.7051,-2.7051,-2.7051,-2.7051,-2.7051,-2.7051,-2.7051,-2.7051,-2.7051,-2.7051,-2.7021,-2.7012,-2.7012,-2.7012,-2.7012,-2.7012,-2.7012,-2.7012,-2.7012,-2.7012,-2.7012,-2.7012,-2.7012,-2.7012,-2.7012,-2.7012,-2.7012,-2.7012,-2.7012,-2.7012,-2.7012,-2.7012,-2.7012,-2.7012,-2.7012,-2.7012,-2.7012,-2.7012,-2.6298,-2.5732,-2.5732,-2.5713,-2.5703,-2.5703,-2.5693,0.0,-2.5693,-2.5693,-2.5693,-2.5703,-2.5703,-2.5713,-2.5732,-2.5713,-2.5703,-2.5703,-2.5693,-2.5693,-2.5693,-2.5693,-2.5742,-2.5781,-2.5742,-2.5742,-2.5781,0.0,0.0,0.0,0.0,0.0,0.0,0.0,0.0,0.0,0.0,0.0,0.0,0.0,0.0,0.0,0.0,0.0,0.0,0.0,0.0,0.0,0.0,-2.2666,-2.2372,-2.332,-2.4095,-2.435,-2.4725,-2.5004,-2.5053,-2.5354,-2.5605,-2.5674,-2.5693,-2.583,-2.6191,-2.6211,-2.6348,-2.665,-2.6777,-2.6846,-2.6846,-2.6953,-2.7178,-2.749,-2.749,-2.7646,-2.7939,-2.7939,-2.7939,-2.7939,-2.7939,-2.7939,-2.7939,-2.7939,-2.7939,-2.7881,-2.7256,-2.7012,-2.7012,-2.7012,-2.7012,-2.7012,-2.7012,-2.7012,-2.7012,-2.7012,-2.7012,-2.7012,-2.7012,-2.7012,-2.7012,-2.7012,-2.7012,-2.7012,-2.7012,-2.7012,-2.7012,-2.7012,-2.7012,-2.7012,-2.7012,-2.7012,-2.7012,-2.7012,-2.6826,-2.6619,-2.6619,-2.6406,-2.6211,-2.6211,-2.5937,0.0,-2.5693,-2.5693,-2.581,-2.6172,-2.6211,-2.6328,-2.6641,-2.6387,-2.6211,-2.6211,-2.5869,-2.5693,-2.5693,-2.5693,-2.6149,-2.7078,-2.6149,-2.6149,0.0,0.0,0.0,0.0,0.0,0.0,0.0,0.0,0.0,0.0,0.0,0.0,0.0,0.0,0.0,0.0,0.0,0.0,0.0,0.0,0.0,0.0,-2.3121,-2.4105,-2.4283,-2.49,-2.5449,-2.5654,-2.5693,-2.5693,-2.5693,-2.5693,-2.5762,-2.5996,-2.6006,-2.6201,-2.6631,-2.665,-2.6768,-2.7012,-2.7197,-2.7285,-2.7285,-2.7637,-2.7939,-2.8193,-2.8369,-2.8594,-2.8828,-2.8828,-2.8828,-2.8828,-2.8828,-2.8828,-2.8828,-2.8828,-2.8721,0.0,0.0,0.0,0.0,0.0,-2.7549,-2.7549,-2.7549,-2.7549,-2.7549,-2.7549,-2.7549,-2.7549,-2.7549,-2.7549,-2.7549,-2.7549,-2.7549,-2.7549,-2.7549,-2.7549,-2.7549,-2.7549,-2.7549,-2.7549,-2.7549,-2.7549,-2.7549,-2.7549,-2.7549,0.0,-2.7549,-2.7051,-2.665,-2.665,-2.6435,-2.622,-2.622,-2.622,-2.6367,-2.6621,-2.665,-2.6748,-2.6992,-2.6797,0.0,0.0,0.0,-2.6162,-2.6486,-2.5965,0.0,0.0,0.0,-2.6849,-2.7589,-2.7352,0.0,0.0,-2.6078,-2.5547,0.0,0.0,0.0,0.0,0.0,0.0,0.0,0.0,0.0,0.0,0.0,0.0,0.0,0.0,0.0,0.0,-2.4146,-2.5283,-2.5635,-2.5693,-2.5693,-2.5693,-2.5693,-2.5703,-2.5762,-2.5762,-2.5986,-2.6426,-2.6455,-2.665,-2.706,0.0,0.0,0.0,0.0,-2.7933,-2.7933,-2.8623,-2.8994,-2.8994,-2.9385,-2.9626,-2.9626,-2.9626,-2.9626,-2.9626,-2.9626,-2.9626,-2.9626,-2.9626,-2.9336,-2.8945,-2.8476,-2.8291,-2.8291,-2.8291,-2.8291,-2.8291,-2.8291,0.0,0.0,-2.8291,-2.8291,-2.8291,-2.8291,-2.8291,-2.8291,-2.8291,-2.8291,-2.8291,-2.8291,-2.8291,-2.8291,-2.8291,-2.8291,-2.8291,-2.8291,-2.8291,-2.8291,-2.8291,-2.8291,-2.8291,-2.8291,-2.7627,-2.709,-2.709,-2.7041,-2.7012,-2.7012,-2.7012,-2.7031,-2.708,0.0,0.0,-2.7158,-2.7263,-2.7168,-2.6793,-2.6824,-2.7018,-2.7456,-2.6458,-2.6524,-2.7767,-2.7683,-2.772,-2.8002,-2.8947,-2.9407,-2.9361,-2.7163,-2.611,0.0,0.0,0.0,0.0,0.0,0.0,0.0,0.0,0.0,0.0,0.0,0.0,0.0,0.0,0.0,-2.3865,-2.4888,-2.5586,-2.5674,-2.5693,-2.5693,-2.5693,-2.5693,-2.583,-2.623,-2.626,-2.6435,-2.6865,-2.6894,-2.708,-2.7519,-2.7861,-2.8203,-2.8535,-2.8975,-2.9254,-2.9254,-2.9421,-2.9443,-2.9443,0.0,0.0,-2.9626,-2.9626,-2.9626,-2.9626,-2.9626,-2.9626,-2.9626,-2.9626,-2.9521,-2.9365,-2.8594,-2.8291,-2.8291,-2.8291,-2.8291,-2.8291,-2.8291,-2.8291,-2.8291,-2.8291,-2.8291,-2.8291,-2.8291,-2.8291,0.0,-2.8291,-2.8291,-2.8291,-2.8291,-2.8291,-2.8291,-2.8291,-2.8291,-2.8291,-2.8291,-2.8291,-2.8291,-2.8291,-2.8291,-2.8291,-2.8291,-2.7871,-2.7539,-2.7539,-2.7236,-2.7012,-2.7012,-2.7012,-2.7148,-2.75,-2.7539,-2.7676,-2.8018,-2.8735,-2.9134,-2.9091,-2.9294,-2.8604,-2.6695,-2.6995,-2.7814,-2.9039,-2.8085,-2.8541,-3.0496,-2.9772,-2.9407,-2.9407,-2.8901,-2.8669,0.0,0.0,0.0,0.0,0.0,0.0,0.0,0.0,0.0,0.0,0.0,-2.1502,0.0,0.0,-2.3869,-2.4614,-2.5303,-2.5693,-2.5693,-2.5879,-2.6064,-2.6064,-2.6064,-2.623,-2.666,-2.6699,-2.6885,-2.7314,-2.7539,-2.7842,-2.8271,-2.8701,-2.9023,-2.9238,-2.9453,-2.9626,-2.9626,-2.9785,-2.9883,-2.9893,-3.0117,-3.0234,-3.0234,-3.0234,-3.0234,-3.0234,-3.0234,-3.0234,-3.0215,-2.998,-2.9883,-2.9824,-2.918,-2.8935,-2.8935,-2.8935,-2.8935,-2.8935,-2.8935,-2.8935,-2.8935,-2.8935,-2.8779,-2.8603,-2.8603,-2.8457,-2.8291,-2.8291,-2.8291,-2.8291,-2.8291,-2.8291,-2.8291,-2.8291,-2.8291,-2.8291,-2.8291,-2.8291,-2.8291,-2.8291,-2.8291,-2.8291,-2.8291,-2.8115,-2.7978,-2.7978,-2.7793,-2.7656,-2.7656,-2.7656,-2.7734,-2.7959,-2.7978,-2.8066,-2.8271,-2.8563,-2.9004,-2.9646,-2.9616,-2.9606,-2.9665,-2.9437,-2.9753,-3.0709,-2.9555,-2.9653,-3.1223,-2.9988,-3.0045,-3.1235,-3.0598,-3.0,0.0,0.0,0.0,0.0,0.0,0.0,0.0,0.0,-2.1789,-2.2464,-2.3298,-2.4014,-2.4355,-2.4775,-2.5116,-2.5116,-2.5449,-2.5713,-2.5801,-2.6172,-2.6455,-2.6611,-2.6562,-2.668,-2.71,-2.7139,-2.7353,-2.7871,-2.8223,-2.8603,-2.9023,-2.9453,-2.9744,-2.9744,-2.9785,-2.9824,-2.9824,-3.0166,-3.0332,-3.0332,-3.0713,-3.0889,-3.0889,-3.0889,-3.0889,-3.0889,-3.0889,-3.0889,-3.0859,-3.0488,-3.0332,-3.0293,-2.9961,-2.9824,-2.9805,-2.9629,-2.9626,-2.9626,-2.9626,-2.9626,-2.9626,-2.9626,-2.9336,-2.9043,-2.9043,-2.8809,-2.8545,-2.8545,-2.8545,-2.8545,-2.8545,-2.8545,-2.8545,-2.8545,-2.8545,-2.8545,-2.8545,-2.8545,-2.8545,-2.8545,-2.8545,-2.8516,-2.8428,-2.8418,-2.8389,-2.8301,-2.8291,-2.8291,-2.8291,-2.8291,-2.8291,-2.8291,-2.8291,-2.8495,-2.9059,-2.879,-2.9034,-3.0128,-3.0219,-3.0875,-3.224,-3.1697,-3.1644,-3.2243,-3.1228,-3.1066,-3.1745,-3.0738,-3.1241,-3.3081,-3.2052,-3.1045,-1.6522,-1.7475,-1.9049,-2.0748,-2.2244,-2.3358,0.0,0.0,-2.4035,-2.4132,-2.4254,-2.4365,-2.4404,-2.4775,-2.5116,-2.5116,-2.5449,-2.583,-2.626,-2.6357,-2.667,-2.7483,-2.7187,-2.7119,-2.7559,-2.7598,-2.792,-2.8721,-2.8818,-2.9033,-2.9473,-2.9902,-3.0127,-3.0127,-3.0527,-3.0742,-3.0742,-3.0791,-3.081,-3.081,-3.0869,-3.0889,-3.0889,-3.0889,-3.0889,-3.0889,-3.0889,-3.0889,-3.0889,-3.083,-3.081,-3.081,-3.0762,-3.0742,-3.0644,-2.9863,-2.9626,-2.9626,-2.9626,-2.9626,-2.9626,-2.9626,-2.9531,-2.9502,-2.9502,-2.9463,-2.9424,-2.9424,-2.9424,-2.9424,-2.9424,-2.9424,-2.9424,-2.9424,-2.9424,-2.9424,-2.9424,-2.9424,-2.9424,-2.9424,-2.9424,-2.9307,-2.8916,-2.8848,-2.8721,-2.835,-2.8291,-2.8291,-2.8291,-2.8291,-2.8291,-2.8291,-2.8291,-2.925,-3.1622,-3.1832,-3.1849,-3.2001,-3.3767,-3.3339,-3.0206,-3.1748,-3.2734,-3.2826,-3.2674,-3.2931,-3.362,-3.3476,-3.3271,-3.3124,-3.2939,-3.2797,-2.1329,-2.169,0.0,0.0,-2.4061,-2.458,-2.4756,-2.4795,-2.4863,-2.5127,-2.5138,-2.5138,-2.5138,-2.5332,-2.5459,0.0,-2.583,-2.6182,-2.6367,-2.6816,-2.7266,-2.7679,-2.7725,-2.793,-2.8359,-2.8398,-2.8643,-2.9248,-2.9521,-2.9736,-2.9922,-3.0361,-3.0605,-3.0605,-3.0791,-3.0889,-3.0889,-3.0889,-3.0889,-3.0889,-3.0889,-3.0889,-3.0889,-3.0889,-3.0889,-3.0889,-3.0889,-3.0889,-3.0889,-3.0889,-3.0889,-3.0889,-3.0889,-3.0889,-3.085,-3.0478,-3.0342,-3.0342,-3.0342,-3.0342,-3.0342,-3.0342,-3.0156,-2.9932,-2.9932,-2.9766,-2.9626,-2.9626,-2.9626,-2.9626,-2.9626,-2.9626,-2.9626,-2.9626,-2.9626,-2.9626,-2.9626,-2.9626,-2.9626,-2.9626,-2.9626,-2.9567,-2.9326,-2.9297,-2.915,-2.8721,-2.8447,-2.8291,-2.8291,-2.8291,-2.8601,-2.9355,-2.946,-3.0214,-3.2129,-3.228,-3.2644,-3.3464,-3.4365,-3.4487,-3.3617,-3.446,-3.4795,-3.4428,-3.3704,-3.3683,-3.4374,-3.2897,-3.2678,-3.3558,-3.2862,-3.2746,-2.4273,0.0,0.0,-2.4914,-2.5166,-2.5254,-2.5254,-2.5254,-2.5352,-2.5625,-2.5693,-2.5693,-2.5693,-2.5693,-2.5732,-2.5849,-2.6182,-2.6465,-2.6709,-2.7275,-2.7767,-2.7822,-2.8203,-2.8633,-2.9053,-2.8994,-2.915,-2.9697,-3.0029,-3.0254,-3.0381,-3.0703,-3.0889,-3.0889,-3.0889,-3.0889,-3.0889,-3.0889,-3.0889,-3.0889,-3.0889,-3.0889,-3.0889,-3.0889,-3.0889,-3.0889,-3.0889,-3.0889,-3.0889,-3.0889,-3.0889,-3.0889,-3.0889,-3.0889,-3.0889,-3.0889,-3.0889,-3.0889,-3.0889,-3.0889,-3.0889,-3.0889,-3.0664,-3.0391,-3.0391,-3.0176,-2.9932,-2.9932,-2.9932,-2.9932,-2.9932,-2.9932,-2.9932,-2.9932,-2.9932,-2.9932,-2.9932,-2.9932,-2.9932,-2.9932,-2.9932,-2.9893,-2.9766,-2.9746,-2.959,-2.916,-2.8838,-2.8555,-2.832,-2.8291,-2.8644,-2.966,-3.0057,-3.0824,-3.218,-3.2644,-3.3304,-3.4337,-3.4727,-3.5223,-3.581,-3.6216,-3.6169,-3.578,-3.4887,-3.4617,-3.4906,-3.3112,-3.2884,-3.4079,-3.3236,-3.2999,0.0,0.0,-2.3035,-2.4715,-2.54,-2.5664,-2.5664,-2.5664,-2.5674,-2.5684,-2.5693,-2.5693,-2.5693,-2.5693,-2.583,-2.6299,-2.6387,-2.668,-2.7562,-2.7699,-2.7822,-2.8223,-2.8643,-2.9072,0.0,-2.917,-2.9268,-3.0117,-3.0185,-3.0391,-3.084,-3.0889,-3.0889,-3.0889,-3.0889,-3.0889,-3.0889,-3.0889,-3.0889,-3.0889,-3.0889,-3.0889,-3.0889,-3.0889,-3.0889,-3.0889,-3.0889,-3.0889,-3.0889,-3.0889,-3.0889,-3.0889,-3.0889,-3.0889,-3.0889,-3.0889,-3.0889,-3.0889,-3.0889,-3.0889,-3.0889,-3.0889,-3.0879,-3.0869,-3.0869,-3.0859,-3.085,-3.085,-3.085,-3.085,-3.085,-3.085,-3.085,-3.085,-3.085,-3.085,-3.085,-3.085,-3.085,-3.085,-3.085,-3.0703,-3.0254,-3.0176,-3.0039,-2.9619,-2.9597,-2.9238,-2.8398,-2.8291,-2.8291,-2.8344,-2.9503,-3.0824,-3.218,-3.3563,-3.4337,-3.4385,-3.5619,-3.5763,-3.4532,-3.5715,-3.6405,-3.638,-3.6332,-3.6022,-3.547,-3.5424,-3.5149,-3.4655,-3.4655,-3.4354,0.0,0.0,-2.4469,-2.5304,-2.5577,-2.5693,-2.5693,-2.5693,-2.5693,-2.5693,-2.5693,-2.5693,-2.5693,-2.5977,-2.6221,-2.6367,-2.6865,-2.7334,-2.7679,-2.791,-2.8135,-2.8271,-2.8662,0.0,0.0,0.0,0.0,-3.0615,-3.0654,-3.0723,-3.0889,-3.0889,-3.0889,-3.0889,-3.0889,-3.0889,-3.0889,-3.0889,-3.0889,-3.0889,-3.0889,-3.0889,-3.0889,-3.0889,-3.0889,-3.0889,-3.0889,-3.0889,-3.0889,-3.0889,-3.0889,-3.0889,-3.0889,-3.0889,-3.0889,-3.0889,-3.0889,-3.0889,-3.0889,-3.0889,-3.0889,-3.0889,-3.0889,-3.0889,-3.0889,-3.0889,-3.0889,-3.0889,-3.0889,-3.0889,-3.0889,-3.0889,-3.0889,-3.0889,-3.0889,-3.0889,-3.0889,-3.0889,-3.0889,-3.0889,-3.0889,-3.084,-3.0684,-3.0654,-3.0508,-3.0059,-2.9502,-2.9033,-2.874,-2.8467,-2.9006,-3.0773,-3.1378,-3.2532,-3.4848,-3.5463,-3.5715,-3.5715,-3.6156,-3.6216,-3.5763,-3.6156,-3.6405,-3.6405,-3.6405,-3.6317,-3.6094,-3.6094,-3.5805,-3.5219,-3.5219,-3.4919,0.0,-2.4736,-2.5223,-2.5577,-2.5693,-2.5693,-2.5693,-2.5693,-2.5693,-2.5693,-2.5605,-2.5498,-2.5498,-2.5732,-2.5967,-2.6133,-2.6748,-2.7314,-2.7679,-2.79,-2.8125,-2.8271,-2.8799,-2.9258,0.0,0.0,0.0,-3.0869,-3.0889,-3.0889,-3.0889,-3.0889,-3.0889,-3.0889,-3.0889,-3.0889,-3.0889,-3.0889,-3.0889,-3.0889,-3.0889,-3.0889,-3.0889,-3.0889,-3.0889,-3.0889,-3.0889,-3.0889,-3.0889,-3.0889,-3.0889,-3.0889,-3.0889,-3.0889,-3.0889,-3.0889,-3.0889,-3.0889,-3.0889,-3.0889,-3.0889,-3.0889,-3.0889,-3.0889,-3.0889,-3.0889,-3.0889,-3.0889,-3.0889,-3.0889,-3.0889,-3.0889,-3.0889,-3.0889,-3.0889,-3.0889,-3.0889,-3.0889,-3.0889,-3.0889,-3.0889,-3.0889,-3.0889,-3.0889,-3.0791,-3.0488,-2.9834,-2.9316,-2.917,-2.8779,-2.9386,-3.1587,-3.2088,-3.3243,-3.5511,-3.6108,-3.6405,-3.6405,-3.6405,-3.6405,-3.6405,-3.6405,-3.6405,-3.6405,-3.6405,-3.6405,-3.6405,-3.6405,-3.6182,-3.583,-3.583,-3.5495,-2.4336,-2.4775,-2.5205,-2.5586,-2.5693,-2.5693,-2.5693,-2.5693,-2.5684,-2.5664,-2.5361,-2.5106,0.0,0.0,-2.5273,-2.5654,-2.6172,-2.6768,-2.764,-2.7748,-2.7851,0.0,0.0,0.0,0.0,0.0,0.0,-3.0889,0.0,-3.0889,-3.0889,-3.0889,-3.0889,-3.0889,-3.0889,-3.0889,-3.0889,-3.0918,-3.0928,-3.0928,-3.0947,-3.0957,-3.0957,-3.0928,-3.0928,-3.0918,-3.0898,-3.0889,-3.0889,-3.0889,-3.0889,-3.0889,-3.0889,-3.0889,-3.0889,-3.0889,-3.0889,-3.0889,-3.0889,-3.0889,-3.0889,-3.0889,-3.0889,-3.0889,-3.0889,-3.0889,-3.0889,-3.0889,-3.0889,-3.0889,-3.0889,-3.0889,-3.0889,-3.0889,-3.0889,-3.0889,-3.0889,-3.0889,-3.0889,-3.0889,-3.0889,-3.0889,-3.0889,-3.0889,-3.0889,-3.0889,-3.0518,-3.0078,-2.9658,-2.9219,-2.947,-3.0967,-3.1848,-3.2928,-3.4385,-3.5667,-3.6405,-3.6405,-3.6405,-3.6405,-3.6405,-3.6405,-3.6405,-3.6405,-3.6405,-3.6405,-3.6405,-3.6405,-3.6405,-3.6405,-3.6405,-3.6081,-2.4785,-2.5225,-2.5596,-2.5664,-2.5693,-2.5693,-2.5693,-2.5693,-2.5596,-2.5303,-2.5194,-2.4971,0.0,0.0,0.0,-2.6201,-2.7119,0.0,-2.8105,-2.8135,0.0,-2.8281,0.0,-2.9626,-2.9626,-3.0371,0.0,0.0,-3.0889,-3.0889,-3.0889,-3.0889,-3.0889,-3.0889,-3.0889,-3.0889,-3.0889,-3.1201,-3.1357,-3.1367,-3.1689,-3.1846,-3.1836,-3.1504,-3.1357,-3.1338,-3.1025,-3.0889,-3.0889,-3.0889,-3.0889,-3.0889,-3.0889,-3.0889,-3.0889,-3.0889,-3.0889,-3.0889,-3.0889,-3.0889,-3.0889,-3.0889,-3.0889,-3.0889,-3.0889,-3.0889,-3.0889,-3.0889,-3.0889,-3.0889,-3.0889,-3.0889,-3.0889,-3.0889,-3.0889,-3.0889,-3.0889,-3.0889,-3.0889,-3.0889,-3.0889,-3.0889,-3.0889,-3.0889,-3.0889,-3.0889,-3.0791,-3.0547,-3.0098,-2.9668,-3.0237,-3.2295,-3.2712,-3.3657,-3.5704,-3.6216,-3.6405,-3.6405,-3.6405,-3.6405,-3.6405,-3.6405,-3.6405,-3.6405,-3.6405,-3.6405,-3.6405,-3.6405,-3.6405,-3.6405,-3.6405,-3.6329,-2.5244,-2.5547,-2.5693,-2.5693,-2.5693,-2.5586,-2.5196,-2.5109,-2.5039,-2.459,-2.4411,0.0,0.0,0.0,0.0,0.0,0.0,0.0,-2.7988,-2.8018,-2.8086,0.0,-2.9053,0.0,-2.9626,-3.0371,-3.0889,0.0,-3.0889,-3.0889,-3.0889,-3.0889,-3.0889,-3.0889,-3.0889,-3.0976,-3.1162,-3.1396,-3.1611,-3.1807,-3.2051,-3.2229,-3.2158,-3.1914,-3.1699,-3.1504,0.0,-3.1064,-3.0889,-3.0889,-3.0889,-3.0889,-3.0889,-3.0889,-3.0889,-3.0889,-3.0889,-3.0889,-3.0889,-3.0889,-3.0889,-3.0889,-3.0889,-3.0889,-3.0889,-3.0889,-3.0889,-3.0889,-3.0889,-3.0889,-3.0889,-3.0889,-3.0889,-3.0889,-3.0889,-3.0889,-3.0889,-3.0889,-3.0889,-3.0889,-3.0889,-3.1112,-3.1767,-3.1334,-3.1112,-3.1767,-3.1883,-3.1782,-3.1509,-3.1085,-3.1519,-3.3426,-3.4038,-3.5002,-3.6616,-3.6769,-3.6669,-3.6417,-3.6405,-3.6405,-3.6405,-3.6405,-3.6405,-3.6405,-3.6405,-3.6405,-3.6405,-3.6405,-3.6405,-3.6405,-3.6405,-3.6405,-2.5635,-2.5693,-2.5693,-2.5693,-2.5693,-2.546,-2.4619,-2.4463,-2.4346,-2.3818,0.0,-2.3384,-2.3643,-2.4404,-2.5019,-2.5137,0.0,-2.7187,-2.7738,-2.7806,-2.7933,-2.8252,-2.9053,-2.9626,-2.9626,-3.0371,-3.0889,-3.0889,-3.0889,-3.0889,-3.0889,-3.0889,-3.0889,-3.0889,-3.0889,-3.1094,-3.1514,-3.1572,-3.1826,-3.2256,-3.2305,-3.2334,-3.2334,-3.2275,-3.2051,-3.168,-3.1562,-3.1309,-3.0976,-3.0918,-3.0889,-3.0889,-3.0889,-3.0889,-3.0889,-3.0889,-3.0889,-3.0889,-3.0889,-3.0889,-3.0889,-3.0889,-3.0889,-3.0889,-3.0889,-3.0889,-3.0889,-3.0889,-3.0889,-3.0889,-3.0889,-3.0889,-3.0889,-3.0889,-3.0889,-3.0889,-3.0889,-3.0889,-3.0889,-3.0889,-3.0889,-3.1383,-3.2861,-3.2035,-3.172,-3.3191,-3.3406,-3.3406,-3.3406,-3.3045,-3.3255,-3.4592,-3.5526,-3.642,-3.724,-3.7224,-3.6973,-3.6556,-3.6455,-3.6405,-3.6405,-3.6405,-3.6405,-3.6405,-3.6405,-3.6405,-3.6405,-3.6405,-3.6405,-3.6405,-3.6405,-3.6405,-2.5664,-2.5693,-2.5693,-2.5693,-2.5693,-2.546,-2.4619,-2.4697,0.0,0.0,0.0,-2.3594,-2.3257,-2.3955,0.0,-2.5498,0.0,0.0,0.0,0.0,-2.8213,0.0,0.0,0.0,0.0,0.0,0.0,0.0,0.0,-3.0889,-3.0889,-3.0889,-3.0889,-3.0889,-3.0889,-3.1094,-3.1514,-3.1875,-3.2266,-3.2695,-3.3037,-3.3203,-3.3193,-3.2842,-3.2646,-3.2529,-3.1826,0.0,-3.1377,-3.1035,-3.0889,-3.0889,-3.0889,-3.0889,-3.0889,-3.0889,-3.0889,-3.0889,-3.0889,-3.0889,-3.0889,-3.0889,-3.0889,-3.0889,-3.0889,-3.0889,-3.0889,-3.0889,-3.0889,-3.0889,-3.0889,-3.0889,-3.0889,-3.0889,-3.0889,-3.0889,-3.0889,-3.0889,-3.0889,-3.0889,-3.0889,-3.1383,-3.2861,-3.2907,-3.3247,-3.4681,-3.4902,-3.4902,-3.4902,-3.4836,-3.516,-3.6192,-3.6441,-3.6925,-3.7803,-3.745,-3.7149,-3.7048,-3.6669,-3.6405,-3.6405,-3.6405,-3.6405,-3.6405,-3.6405,-3.6405,-3.6405,-3.6405,-3.6405,-3.6405,-3.6405,-3.6405,-2.5693,-2.6197,-2.6524,-2.5878,-2.6197,-2.6171,-2.4189,0.0,0.0,0.0,0.0,-2.3125,-2.3091,0.0,0.0,0.0,0.0,0.0,0.0,0.0,0.0,0.0,0.0,0.0,0.0,0.0,0.0,0.0,0.0,-3.0889,-3.0889,-3.0889,-3.0889,-3.0889,-3.0889,-3.1201,-3.1846,-3.206,-3.249,-3.3125,-3.333,-3.3418,-3.3418,-3.3213,-3.2881,-3.2441,-3.2031,-3.1601,-3.1172,-3.0976,-3.0889,-3.0889,-3.0889,-3.1383,-3.193,-3.116,-3.1383,-3.193,-3.117,-3.0889,-3.0889,-3.0889,-3.0889,-3.0889,-3.0889,-3.0889,-3.0889,-3.0889,-3.0889,-3.0889,-3.0889,-3.0889,-3.0889,-3.0889,-3.0889,-3.1112,-3.1872,-3.2035,-3.2264,-3.3042,-3.3212,-3.3642,-3.5167,-3.4725,-3.4736,-3.6217,-3.6433,-3.6433,-3.6433,-3.7103,-3.7447,-3.7173,-3.7802,-3.8304,-3.8454,-3.8216,-3.7814,-3.7224,-3.6935,-3.6707,-3.6417,-3.6405,-3.6405,-3.6405,-3.6405,-3.6405,-3.6405,-3.6405,-3.6405,-3.6405,-3.6405,-3.6405,-2.5664,-2.662,-2.7315,-2.6014,-2.6658,-2.6827,-2.3792,-2.3477,0.0,0.0,-2.2217,-2.2604,-2.3013,0.0,0.0,0.0,0.0,0.0,0.0,0.0,0.0,0.0,0.0,0.0,0.0,0.0,0.0,0.0,0.0,0.0,-3.0889,-3.0889,-3.0889,-3.0889,-3.0889,-3.1299,-3.2158,-3.2229,-3.2588,-3.3418,-3.3418,-3.3418,-3.3418,-3.333,-3.293,-3.2295,-3.2109,-3.182,-3.1512,-3.1422,-3.1556,-3.1835,-3.1835,-3.254,-3.3417,-3.194,-3.2092,-3.2907,-3.1767,-3.1383,-3.1383,-3.1383,-3.117,-3.0889,-3.0889,-3.0889,-3.0889,-3.0889,-3.0889,-3.0889,-3.0889,-3.1112,-3.1383,-3.1383,-3.1604,-3.2045,-3.2918,-3.335,-3.3901,-3.5068,-3.5288,-3.5781,-3.7252,-3.6541,-3.6271,-3.7743,-3.7967,-3.7967,-3.7967,-3.8973,-3.9245,-3.8072,-3.9025,-3.9521,-3.9082,-3.8994,-3.8442,-3.7425,-3.7249,-3.6935,-3.643,-3.6405,-3.6405,-3.6405,-3.6405,-3.6405,-3.6405,-3.6405,-3.6405,-3.6405,-3.6405,-3.6405,-2.5577,-2.662,-2.7315,-2.6014,-2.6658,-2.6838,-2.3856,0.0,0.0,-2.2148,-2.2217,-2.2604,-2.3013,-2.3159,0.0,0.0,0.0,0.0,0.0,0.0,0.0,0.0,0.0,0.0,0.0,0.0,0.0,0.0,0.0,0.0,-3.0889,-3.0889,-3.0889,-3.0889,-3.0889,-3.1299,-3.2158,-3.2229,-3.2588,-3.3418,-3.3418,-3.3418,-3.3408,-3.3027,-3.2812,-3.2695,-3.1914,-3.2254,0.0,-3.3017,-3.3687,-3.4914,-3.4914,-3.4958,-3.4902,-3.3462,-3.2964,-3.3077,-3.2964,-3.2918,-3.2918,-3.2918,-3.1988,-3.0889,-3.0889,-3.0889,-3.0889,-3.0889,-3.0889,-3.0889,-3.0889,-3.1872,-3.2918,-3.2918,-3.3912,-3.4581,-3.335,-3.4125,-3.5123,-3.5288,-3.5288,-3.5781,-3.7252,-3.7412,-3.7796,-3.9297,-3.953,-3.953,-3.953,-3.9633,-3.9645,-3.953,-3.9633,-3.9672,-3.9622,-3.9157,-3.8605,-3.7965,-3.7462,-3.6935,-3.643,-3.6405,-3.6405,-3.6405,-3.6405,-3.6405,-3.6405,-3.6405,-3.6405,-3.6405,-3.6405,-3.6405,-2.6536,-2.772,-2.8541,-2.8028,-2.8589,-2.8433,-2.5046,0.0,0.0,-2.2257,-2.2217,-2.2604,-2.3013,-2.3091,-2.3208,0.0,0.0,0.0,0.0,0.0,0.0,0.0,0.0,0.0,0.0,0.0,0.0,0.0,0.0,0.0,-3.2207,-3.1383,-3.0889,-3.0889,-3.0889,-3.1182,-3.1768,-3.1777,-3.208,-3.2666,-3.2666,-3.2666,-3.2666,-3.249,-3.2275,-3.2062,-3.2621,-3.3035,0.0,-3.4089,-3.4792,-3.5288,-3.5288,-3.5836,-3.6433,-3.4958,-3.5002,-3.5606,-3.4725,-3.4403,-3.4403,-3.4403,-3.4024,-3.3212,-3.1441,-3.0889,-3.0889,-3.0889,-3.1546,-3.2207,-3.2207,-3.3304,-3.4403,-3.4403,-3.4847,-3.5398,-3.5661,-3.6205,-3.6876,-3.7767,-3.7926,-3.8149,-3.8739,-3.8804,-3.9025,-3.9633,-3.9697,-3.9697,-3.9697,-3.9697,-3.9697,-3.9697,-3.9697,-3.9697,-3.9697,-3.9496,-3.8981,-3.8065,-3.7801,-3.7287,-3.6443,-3.6405,-3.6405,-3.6405,-3.6405,-3.6405,-3.6405,-3.6405,-3.6405,-3.6405,-3.6405,-3.6405,-2.7336,-2.8617,-2.9407,-2.9407,-2.989,-2.955,0.0,0.0,0.0,-2.2612,-2.2308,-2.249,-2.2994,-2.3091,-2.3091,0.0,0.0,0.0,0.0,0.0,0.0,0.0,0.0,0.0,0.0,0.0,0.0,0.0,0.0,0.0,-3.3021,-3.2092,-3.1767,-3.2217,-3.1767,-3.1756,-3.2126,-3.2587,-3.2583,-3.2229,-3.2623,-3.2623,-3.2229,-3.2031,-3.2037,-3.2175,-3.3103,-3.3863,0.0,-3.5497,-3.6217,-3.6607,-3.6607,-3.7263,-3.7967,-3.6487,-3.6595,-3.7358,-3.6325,-3.5945,-3.5945,-3.5945,-3.5945,-3.5508,-3.2985,-3.2217,-3.2217,-3.2217,-3.2928,-3.3845,-3.4292,-3.5167,-3.5945,-3.5945,-3.6271,-3.6769,-3.7358,-3.7849,-3.8465,-3.953,-3.9697,-3.9697,-3.9697,-3.9697,-3.9697,-3.9697,-3.9697,-3.9697,-3.9697,-3.9697,-3.9697,-3.9697,-3.9697,-3.9697,-3.9697,-3.9697,-3.9207,-3.8078,-3.8002,-3.7513,-3.6455,-3.6405,-3.6405,-3.6405,-3.6405,-3.6405,-3.6405,-3.6405,-3.6405,-3.6405,-3.6405,-3.6405,-2.7829,-2.8992,-2.9407,-2.9407,-2.989,-2.9722,0.0,0.0,-2.4031,-2.3426,-2.2533,-2.2148,-2.2945,-2.3091,-2.3091,-2.3091,0.0,0.0,0.0,0.0,0.0,0.0,0.0,0.0,0.0,0.0,0.0,0.0,0.0,0.0,-3.3021,-3.3077,-3.3744,-3.5233,-3.3856,-3.3287,-3.3681,-3.5102,-3.4617,-3.2229,-3.3702,-3.3593,-3.2158,-3.1719,-3.2303,-3.367,-3.3277,-3.4781,0.0,-3.7465,-3.836,-3.9633,-3.9633,-3.9645,-3.953,-3.8019,-3.7465,-3.7518,-3.7465,-3.7465,-3.7465,-3.7465,-3.7465,-3.7198,-3.5727,-3.5233,-3.5233,-3.5233,-3.5288,-3.5617,-3.7091,-3.7465,-3.7465,-3.7465,-3.8582,-3.9245,-3.7796,-3.8635,-3.9685,-3.9697,-3.9697,-3.9697,-3.9697,-3.9697,-3.9697,-3.9697,-3.9697,-3.9697,-3.9697,-3.9697,-3.9697,-3.9697,-3.9697,-3.9697,-3.9697,-3.9697,-3.9207,-3.8078,-3.8002,-3.7513,-3.6455,-3.6405,-3.6405,-3.6405,-3.6405,-3.6405,-3.6405,-3.6405,-3.6405,-3.6405,-3.6405,-3.6405,-2.7051,-2.7783,-2.8087,-2.854,-2.8022,-2.7093,-2.5893,0.0,-2.3208,-2.2932,-2.2362,-2.206,-2.2607,-2.2896,-2.3198,-2.3535,0.0,0.0,0.0,0.0,0.0,0.0,0.0,0.0,0.0,0.0,0.0,0.0,0.0,0.0,-3.5988,-3.5167,-3.4792,-3.53,-3.4847,-3.4647,-3.479,-3.5246,-3.5101,-3.4307,-3.3794,-3.3794,-3.4307,-3.3142,-3.3401,-3.4845,-3.5729,-3.6638,-3.7583,-3.8582,-3.9297,-3.9697,-3.9697,-3.9697,-3.9633,-3.9193,-3.9013,-3.9013,-3.9013,-3.9013,-3.9013,-3.9013,-3.9013,-3.8921,-3.8425,-3.6888,-3.5508,-3.6541,-3.6811,-3.7145,-3.8635,-3.9013,-3.9013,-3.9013,-3.9362,-3.9581,-3.9077,-3.9362,-3.9697,-3.9697,-3.9697,-3.9697,-3.9697,-3.9697,-3.9697,-3.9697,-3.9697,-3.9697,-3.9697,-3.9697,-3.9697,-3.9697,-3.9697,-3.9697,-3.9697,-3.9346,-3.8806,-3.8052,-3.7651,-3.7123,-3.6443,-3.6405,-3.6405,-3.6405,-3.6405,-3.6405,-3.6405,-3.6405,-3.6405,-3.6405,-3.6405,-3.6405,0.0,-2.7655,-2.7653,-2.8151,-2.7703,0.0,0.0,0.0,-2.3874,-2.3377,-2.2706,-2.2238,-2.2445,-2.2682,-2.3003,-2.3477,0.0,0.0,0.0,0.0,0.0,0.0,0.0,0.0,0.0,0.0,0.0,0.0,0.0,0.0,-3.7358,-3.6649,-3.6391,-3.6942,-3.6445,-3.6108,-3.6108,-3.6661,-3.6391,-3.5288,-3.4947,-3.4947,-3.5288,-3.4348,-3.4725,-3.6162,-3.7079,-3.7796,0.0,-3.931,-3.9697,-3.9697,-3.9697,-3.9697,-3.9697,-3.9697,-3.9697,-3.9697,-3.9697,-3.9697,-3.9697,-3.9697,-3.9697,-3.9697,-3.9697,-3.8425,-3.7156,-3.8084,-3.8348,-3.8518,-3.9465,-3.9697,-3.9697,-3.9697,-3.9697,-3.9697,-3.9697,-3.9697,-3.9697,-3.9697,-3.9697,-3.9697,-3.9697,-3.9697,-3.9697,-3.9697,-3.9697,-3.9697,-3.9697,-3.9697,-3.9697,-3.9697,-3.9509,-3.9383,-3.9383,-3.9069,-3.8542,-3.7751,-3.7374,-3.6935,-3.643,-3.6405,-3.6405,-3.6405,-3.6405,-3.6405,-3.6405,-3.6405,-3.6405,-3.6405,-3.6405,-3.6405,0.0,0.0,0.0,0.0,0.0,0.0,0.0,0.0,0.0,-2.436,-2.3432,-2.2766,-2.255,-2.2546,0.0,0.0,0.0,0.0,0.0,0.0,0.0,0.0,0.0,0.0,0.0,0.0,0.0,0.0,0.0,0.0,-3.7583,-3.769,-3.8295,-3.9645,-3.836,-3.769,-3.769,-3.9025,-3.8319,-3.5629,-3.6918,-3.6811,-3.5617,-3.5508,-3.6271,0.0,-3.769,-3.8413,-3.9697,-3.9697,-3.9697,-3.9697,-3.9697,-3.9697,-3.9697,-3.9697,-3.9697,-3.9697,-3.9697,-3.9697,-3.9697,-3.9697,-3.9697,-3.9697,-3.9697,-3.9697,-3.9697,-3.9697,-3.9697,-3.9697,-3.9697,-3.9697,-3.9697,-3.9697,-3.9697,-3.9697,-3.9697,-3.9697,-3.9697,-3.9697,-3.9697,-3.9697,-3.9697,-3.9697,-3.9697,-3.9697,-3.9697,-3.9697,-3.9697,-3.9697,-3.9685,-3.9634,-3.9182,-3.8894,-3.8806,-3.8806,-3.8304,-3.7249,-3.7149,-3.6945,-3.643,-3.6405,-3.6405,-3.6405,-3.6405,-3.6405,-3.6405,-3.6405,-3.6405,-3.6405,-3.6405,-3.6405,-2.6932,0.0,-2.6205,-2.5861,0.0,0.0,0.0,0.0,0.0,0.0,0.0,0.0,0.0,0.0,0.0,0.0,0.0,0.0,0.0,0.0,0.0,0.0,0.0,0.0,0.0,0.0,0.0,0.0,0.0,-3.7636,-3.9077,-3.9193,-3.9349,-3.9697,-3.9362,-3.9193,-3.9193,-3.953,-3.9362,-3.8647,-3.7861,-3.7914,-3.8647,-3.7477,-3.7808,-3.9193,-3.9193,-3.9362,-3.9697,-3.9697,-3.9697,-3.9697,-3.9697,-3.9697,-3.9697,-3.9697,-3.9697,-3.9697,-3.9697,-3.9697,-3.9697,-3.9697,-3.9697,-3.9697,-3.9697,-3.9697,-3.9697,-3.9697,-3.9697,-3.9697,-3.9697,-3.9697,-3.9697,-3.9697,-3.9697,-3.9697,-3.9697,-3.9697,-3.9697,-3.9697,-3.9697,-3.9697,-3.9697,-3.9697,-3.9697,-3.9697,-3.9697,-3.9697,-3.9697,-3.9697,-3.9534,-3.9107,-3.8994,-3.8567,-3.7651,-3.7575,-3.7475,-3.7199,-3.6784,-3.6543,-3.6417,-3.6405,-3.6405,-3.6405,-3.6405,-3.6405,-3.6405,-3.6405,-3.6405,-3.6405,-3.6405,-3.6405,-2.6499,-2.6478,-2.6287,-2.5565,-2.5301,-2.5265,0.0,0.0,0.0,0.0,0.0,0.0,0.0,0.0,0.0,0.0,0.0,0.0,0.0,0.0,0.0,0.0,0.0,0.0,0.0,0.0,0.0,0.0,0.0,-3.8856,-3.9645,-3.9697,-3.9697,-3.9697,-3.9697,-3.9697,-3.9697,-3.9697,-3.9697,-3.9697,-3.8908,-3.8921,-3.9697,-3.8856,-3.8961,-3.9697,-3.9697,-3.9697,-3.9697,-3.9697,-3.9697,-3.9697,-3.9697,-3.9697,-3.9697,-3.9697,-3.9697,-3.9697,-3.9697,-3.9697,-3.9697,-3.9697,-3.9697,-3.9697,-3.9697,-3.9697,-3.9697,-3.9697,-3.9697,-3.9697,-3.9697,-3.9697,-3.9697,-3.9697,-3.9697,-3.9697,-3.9697,-3.9697,-3.9697,-3.9697,-3.9697,-3.9697,-3.9697,-3.9697,-3.9697,-3.9697,-3.9697,-3.9697,-3.9697,-3.9471,-3.9195,-3.8957,-3.8404,-3.7852,-3.7236,-3.6948,-3.6857,-3.6857,-3.6568,-3.6405,-3.6405,-3.6405,-3.6405,-3.6405,-3.6405,-3.6405,-3.6405,-3.6405,-3.6405,-3.6405,-3.6405,-3.6405,-2.66,-2.709,-2.7278,-2.6178,-2.6599,-2.7066,0.0,0.0,0.0,0.0,0.0,0.0,0.0,0.0,0.0,0.0,0.0,0.0,0.0,0.0,0.0,0.0,0.0,0.0,0.0,0.0,0.0,0.0,0.0,-3.9697,-3.9697,-3.9697,-3.9697,-3.9697,-3.9697,-3.9697,-3.9697,-3.9697,-3.9697,-3.9697,-3.9697,-3.9697,-3.9697,-3.9697,-3.9697,-3.9697,0.0,0.0,-3.9697,-3.9697,-3.9697,-3.9697,-3.9697,-3.9697,-3.9697,-3.9697,-3.9697,-3.9697,-3.9697,-3.9697,-3.9697,-3.9697,-3.9697,-3.9697,-3.9697,-3.9697,-3.9697,-3.9697,-3.9697,-3.9697,-3.9697,-3.9697,-3.9697,-3.9697,-3.9697,-3.9697,-3.9697,-3.9697,-3.9697,-3.9697,-3.9697,-3.9697,-3.9697,-3.9697,-3.9697,-3.9697,-3.9697,-3.9659,-3.9584,-3.9157,-3.8856,-3.868,-3.7764,-3.7149,-3.7061,-3.6681,-3.6405,-3.6405,-3.6405,-3.6405,-3.6405,-3.6405,-3.6405,-3.6405,-3.6405,-3.6405,-3.6405,-3.6405,-3.6405,-3.6405,-3.6405,-3.6405,-2.7065,-2.7896,-2.8298,-2.6776,-2.6859,-2.7155,0.0,0.0,0.0,0.0,0.0,0.0,0.0,0.0,0.0,0.0,0.0,0.0,0.0,0.0,0.0,0.0,0.0,0.0,0.0,0.0,0.0,0.0,0.0,-3.9697,-3.9697,-3.9697,-3.9697,-3.9697,-3.9697,-3.9697,-3.9697,-3.9697,-3.9697,-3.9697,-3.9697,-3.9697,-3.9697,-3.9697,-3.9697,-3.9697,0.0,-3.9697,-3.9697,-3.9697,-3.9697,-3.9697,-3.9697,-3.9697,-3.9697,-3.9697,-3.9697,-3.9697,-3.9697,-3.9697,-3.9697,-3.9697,-3.9697,-3.9697,-3.9697,-3.9697,-3.9697,-3.9697,-3.9697,-3.9697,-3.9697,-3.9697,-3.9697,-3.9697,-3.9697,-3.9697,-3.9697,-3.9697,-3.9697,-3.9697,-3.9697,-3.9697,-3.9697,-3.9697,-3.9697,-3.9697,-3.9697,-3.9521,-3.9057,-3.8969,-3.8504,-3.755,-3.7287,-3.6998,-3.6568,-3.6455,-3.6405,-3.6405,-3.6405,-3.6405,-3.6405,-3.6405,-3.6405,-3.6405,-3.6405,-3.6405,-3.6405,-3.6405,-3.6405,-3.6405,-3.6405,-3.6405,-2.6801,-2.7419,-2.7921,-2.7469,-2.8222,-2.9013,0.0,0.0,0.0,0.0,0.0,0.0,0.0,0.0,0.0,0.0,0.0,0.0,0.0,0.0,0.0,0.0,0.0,0.0,0.0,0.0,0.0,0.0,0.0,0.0,-3.9697,-3.9697,-3.9697,-3.9697,-3.9697,-3.9697,-3.9697,-3.9697,-3.9697,-3.9697,-3.9697,-3.9697,-3.9697,-3.9697,-3.9697,-3.9697,0.0,-3.9697,-3.9697,-3.9697,-3.9697,-3.9697,-3.9697,-3.9697,-3.9697,-3.9697,-3.9697,-3.9697,-3.9697,-3.9697,-3.9697,-3.9697,-3.9697,-3.9697,-3.9697,-3.9697,-3.9697,-3.9697,-3.9697,-3.9697,-3.9697,-3.9697,-3.9697,-3.9697,-3.9697,-3.9697,-3.9697,-3.9697,-3.9697,-3.9697,-3.9697,-3.9697,-3.9697,-3.9697,-3.9697,-3.9697,-3.9433,-3.9157,-3.8957,-3.8341,-3.7764,-3.7249,-3.6923,-3.6681,-3.643,-3.6405,-3.6405,-3.6405,-3.6405,-3.6405,-3.6405,-3.6405,-3.6405,-3.6405,-3.6405,-3.6405,-3.6405,-3.6405,-3.6405,-3.6405,-3.6405,-3.6405,-2.665,-2.709,-2.7607,-2.816,0.0,-2.9942,0.0,0.0,0.0,0.0,0.0,0.0,0.0,0.0,0.0,0.0,0.0,0.0,0.0,0.0,0.0,0.0,0.0,0.0,0.0,0.0,0.0,0.0,0.0,0.0,-3.9697,-3.9697,-3.9697,-3.9697,-3.9697,-3.9697,-3.9697,-3.9697,-3.9697,-3.9697,-3.9697,-3.9697,-3.9697,-3.9697,-3.9697,-3.9697,-3.9697,-3.9697,-3.9697,-3.9697,-3.9697,-3.9697,-3.9697,-3.9697,-3.9697,-3.9697,-3.9697,-3.9697,-3.9697,-3.9697,-3.9697,-3.9697,-3.9697,-3.9697,-3.9697,-3.9697,-3.9697,-3.9697,-3.9697,-3.9697,-3.9697,-3.9697,-3.9697,-3.9697,-3.9697,-3.9697,-3.9697,-3.9697,-3.9697,-3.9697,-3.9697,-3.9697,-3.9697,-3.9697,-3.9647,-3.9521,-3.9145,-3.8781,-3.8554,-3.7726,-3.7136,-3.7059,-3.6669,-3.6405,-3.6405,-3.6405,-3.6405,-3.6405,-3.6405,-3.6405,-3.6405,-3.6405,-3.6405,-3.6405,-3.6405,-3.6405,-3.6405,-3.6405,-3.6405,-3.6405,-3.6405,-3.6405,-2.7115,-2.762,-2.8185,-2.87,0.0,0.0,0.0,0.0,0.0,0.0,0.0,0.0,0.0,0.0,0.0,0.0,0.0,0.0,0.0,0.0,0.0,0.0,0.0,0.0,0.0,0.0,0.0,0.0,0.0,0.0,-3.9697,-3.9697,-3.9697,-3.9697,-3.9697,-3.9697,-3.9697,-3.9697,-3.9697,-3.9697,-3.9697,-3.9697,-3.9697,-3.9697,-3.9697,-3.9697,-3.9697,-3.9697,-3.9697,-3.9697,-3.9697,-3.9697,-3.9697,-3.9697,-3.9697,-3.9697,-3.9697,-3.9697,-3.9697,-3.9697,-3.9697,-3.9697,-3.9697,-3.9697,-3.9697,-3.9697,-3.9697,-3.9697,-3.9697,-3.9697,-3.9697,-3.9697,-3.9697,-3.9697,-3.9697,-3.9697,-3.9697,-3.9697,-3.9697,-3.9697,-3.9697,-3.9697,-3.9697,-3.9697,-3.9521,-3.9007,-3.8944,-3.8542,-3.7437,-3.7236,-3.6985,-3.6518,-3.643,-3.6405,-3.6405,-3.6405,-3.6405,-3.6405,-3.6405,-3.6405,-3.6405,-3.6405,-3.6405,-3.6405,-3.6405,-3.6405,-3.6405,-3.6405,-3.6405,-3.6405,-3.6405,-3.6405,-2.6751,-2.7419,-2.8235,-2.875,0.0,0.0,0.0,0.0,0.0,0.0,0.0,0.0,0.0,0.0,0.0,0.0,0.0,0.0,0.0,0.0,0.0,0.0,0.0,0.0,0.0,0.0,0.0,0.0,0.0,0.0,-3.9697,-3.9697,-3.9697,-3.9697,-3.9697,-3.9697,-3.9697,-3.9697,-3.9697,-3.9697,-3.9697,-3.9697,-3.9697,-3.9697,-3.9697,-3.9697,-3.9697,-3.9697,-3.9697,-3.9697,-3.9697,-3.9697,-3.9697,-3.9697,-3.9697,-3.9697,-3.9697,-3.9697,-3.9697,-3.9697,-3.9697,-3.9697,-3.9697,-3.9697,-3.9697,-3.9697,-3.9697,-3.9697,-3.9697,-3.9697,-3.9697,-3.9697,-3.9697,-3.9697,-3.9697,-3.9697,-3.9697,-3.9697,-3.9697,-3.9697,-3.9697,-3.9697,-3.9697,-3.9408,-3.9107,-3.8957,-3.8328,-3.7663,-3.7249,-3.6885,-3.6631,-3.643,-3.6405,-3.6405,-3.6405,-3.6405,-3.6405,-3.6405,-3.6405,-3.6405,-3.6405,-3.6405,-3.6405,-3.6405,-3.6405,-3.6405,-3.6405,-3.6405,-3.6405,-3.6405,-3.6405,-3.6405,-2.6751,-2.7394,-2.8235,0.0,0.0,0.0,0.0,0.0,0.0,0.0,0.0,0.0,0.0,0.0,0.0,0.0,0.0,0.0,0.0,0.0,0.0,0.0,0.0,0.0,0.0,0.0,0.0,0.0,0.0,0.0,0.0,-3.9697,-3.9697,-3.9697,-3.9697,-3.9697,-3.9697,-3.9697,-3.9697,-3.9697,-3.9697,-3.9697,-3.9697,-3.9697,-3.9697,-3.9697,-3.9697,-3.9697,-3.9697,-3.9697,-3.9697,-3.9697,-3.9697,-3.9697,-3.9697,-3.9697,-3.9697,-3.9697,-3.9697,-3.9697,-3.9697,-3.9697,-3.9697,-3.9697,-3.9697,-3.9697,-3.9697,-3.9697,-3.9697,-3.9697,-3.9697,-3.9697,-3.9697,-3.9697,-3.9697,-3.9697,-3.9697,-3.9697,-3.9697,-3.9697,-3.9697,-3.9634,-3.9471,-3.912,-3.8806,-3.8441,-3.7676,-3.7123,-3.6996,-3.6644,-3.6405,-3.6405,-3.6405,-3.6405,-3.6405,-3.6405,-3.6405,-3.6405,-3.6405,-3.6405,-3.6405,-3.6405,-3.6405,-3.6405,-3.6405,-3.6405,-3.6405,-3.6405,-3.6405,-3.6405,-3.6405,-3.6405,-2.7268,-2.7695,0.0,0.0,0.0,0.0,0.0,0.0,0.0,0.0,0.0,0.0,0.0,0.0,0.0,0.0,0.0,0.0,0.0,0.0,0.0,0.0,0.0,0.0,0.0,0.0,0.0,0.0,0.0,0.0,0.0,-3.9672,-3.9672,-3.9672,-3.9672,-3.9672,-3.9672,-3.9672,-3.9672,-3.9672,-3.9672,-3.9685,-3.9697,-3.9697,-3.9697,-3.9697,-3.9697,-3.9697,-3.9697,-3.9697,-3.9697,-3.9697,-3.9697,-3.9697,-3.9697,-3.9697,-3.9697,-3.9697,-3.9697,-3.9697,-3.9697,-3.9697,-3.9697,-3.9697,-3.9697,-3.9697,-3.9697,-3.9697,-3.9697,-3.9697,-3.9697,-3.9697,-3.9697,-3.9697,-3.9697,-3.9697,-3.9697,-3.9697,-3.9697,-3.9697,-3.9685,-3.9509,-3.9007,-3.8906,-3.8529,-3.7349,-3.7174,-3.6973,-3.648,-3.6405,-3.6405,-3.6405,-3.6405,-3.6405,-3.6405,-3.6405,-3.6405,-3.6405,-3.6405,-3.6405,-3.6405,-3.6405,-3.6405,-3.6405,-3.6405,-3.6405,-3.6405,-3.6405,-3.6405,-3.6405,-3.6405,-3.6405,-2.6738,0.0,0.0,0.0,0.0,0.0,0.0,0.0,0.0,0.0,0.0,0.0,0.0,0.0,0.0,0.0,0.0,0.0,0.0,0.0,0.0,0.0,0.0,0.0,0.0,0.0,0.0,0.0,0.0,0.0,0.0,-3.8504,-3.8504,-3.8504,-3.8504,-3.8504,-3.8504,-3.8504,-3.8504,-3.8504,-3.8504,-3.8919,-3.9697,-3.9697,-3.9697,-3.9697,-3.9697,-3.9697,-3.9697,-3.9697,-3.9697,-3.9697,-3.9697,-3.9697,-3.9697,-3.9697,-3.9697,-3.9697,-3.9697,-3.9697,-3.9697,-3.9697,-3.9697,-3.9697,-3.9697,-3.9697,-3.9697,-3.9697,-3.9697,-3.9697,-3.9697,-3.9697,-3.9697,-3.9697,-3.9697,-3.9697,-3.9697,-3.9697,-3.9697,-3.9697,-3.9383,-3.9108,-3.8944,-3.8265,-3.7575,-3.7236,-3.6908,-3.6593,-3.643,-3.6405,-3.6405,-3.6405,-3.6405,-3.6405,-3.6405,-3.6405,-3.6405,-3.6405,-3.6405,-3.6405,-3.6405,-3.6405,-3.6405,-3.6405,-3.6405,-3.6405,-3.6405,-3.6405,-3.6405,-3.6405,-3.6405,-3.6405,-2.7693,0.0,0.0,0.0,0.0,0.0,0.0,0.0,0.0,0.0,0.0,0.0,0.0,0.0,0.0,0.0,0.0,0.0,0.0,0.0,0.0,0.0,0.0,0.0,0.0,0.0,0.0,0.0,0.0,0.0,0.0,-3.8002,-3.8002,-3.8002,-3.8002,-3.8002,-3.8002,-3.8002,-3.8002,-3.8002,-3.8002,-3.8366,-3.9019,-3.9019,-3.9145,-3.9383,-3.9597,-3.9697,-3.9697,-3.9697,-3.9697,-3.9697,-3.9697,-3.9697,-3.9697,-3.9697,-3.9697,-3.9697,-3.9697,-3.9697,-3.9697,-3.9697,-3.9697,-3.9697,-3.9697,-3.9697,-3.9697,-3.9697,-3.9697,-3.9697,-3.9697,-3.9697,-3.9697,-3.9697,-3.9697,-3.9697,-3.9697,-3.9697,-3.9634,-3.9408,-3.9094,-3.8781,-3.8278,-3.7638,-3.7111,-3.6885,-3.6619,-3.6405,-3.6405,-3.6405,-3.6405,-3.6405,-3.6405,-3.6405,-3.6405,-3.6405,-3.6405,-3.6405,-3.6405,-3.6405,-3.6405,-3.6405,-3.6405,-3.6405,-3.6405,-3.6405,-3.6405,-3.6405,-3.6405,-3.6405,-3.6405,-3.6405,0.0,0.0,0.0,0.0,0.0,0.0,0.0,0.0,0.0,0.0,0.0,0.0,0.0,0.0,0.0,0.0,0.0,0.0,0.0,0.0,0.0,0.0,0.0,0.0,0.0,0.0,0.0,0.0,0.0,0.0,-3.7839,-3.7852,-3.7852,-3.7852,-3.7852,-3.7852,-3.7852,-3.7852,-3.7852,-3.7852,-3.7852,-3.7852,-3.7864,-3.7965,-3.8291,-3.8869,-3.932,-3.9572,-3.9622,-3.9622,-3.9647,-3.9697,-3.9697,-3.9697,-3.9697,-3.9697,-3.9697,-3.9697,-3.9697,-3.9697,-3.9697,-3.9697,-3.9697,-3.9697,-3.9697,-3.9697,-3.9697,-3.9697,-3.9697,-3.9697,-3.9697,-3.9697,-3.9697,-3.9697,-3.9697,-3.9697,-3.9697,-3.9647,-3.9471,-3.8969,-3.8844,-3.8441,-3.7362,-3.7149,-3.6935,-3.648,-3.6405,-3.6405,-3.6405,-3.6405,-3.6405,-3.6405,-3.6405,-3.6405,-3.6405,-3.6405,-3.6405,-3.6405,-3.6405,-3.6405,-3.6405,-3.6405,-3.6405,-3.6405,-3.6405,-3.6405,-3.6405,-3.6405,-3.6405,-3.6405,-3.6405,-3.6405,0.0,0.0,0.0,0.0,0.0,0.0,0.0,0.0,0.0,0.0,0.0,0.0,0.0,0.0,0.0,0.0,0.0,0.0,0.0,0.0,0.0,0.0,0.0,0.0,0.0,0.0,0.0,0.0,0.0,0.0,-3.6757,-3.6757,-3.6757,-3.6757,-3.6757,-3.6757,-3.6757,-3.6757,-3.6757,-3.6757,-3.6757,-3.6757,-3.6795,-3.7613,-3.8078,-3.8203,-3.8316,-3.863,-3.9044,-3.9044,-3.9308,-3.9697,-3.9697,-3.9697,-3.9697,-3.9697,-3.9697,-3.9697,-3.9697,-3.9697,-3.9697,-3.9697,-3.9697,-3.9697,-3.9697,-3.9697,-3.9697,-3.9697,-3.9697,-3.9697,-3.9697,-3.9697,-3.9697,-3.9697,-3.9697,-3.9697,-3.9697,-3.9358,-3.9057,-3.8944,-3.8202,-3.7475,-3.7224,-3.687,-3.6543,-3.643,-3.6405,-3.6405,-3.6405,-3.6405,-3.6405,-3.6405,-3.6405,-3.6405,-3.6405,-3.6405,-3.6405,-3.6405,-3.6405,-3.6405,-3.6405,-3.6405,-3.6405,-3.6405,-3.6405,-3.6405,-3.6405,-3.6405,-3.6405,-3.6405,-3.6405,-3.6405,0.0,0.0,0.0,0.0,0.0,0.0,0.0,0.0,0.0,0.0,0.0,0.0,0.0,0.0,0.0,0.0,0.0,0.0,0.0,0.0,0.0,0.0,0.0,0.0,0.0,0.0,0.0,0.0,0.0,-3.6405,-3.6405,-3.6405,-3.6405,-3.6405,-3.6405,-3.6405,-3.6405,-3.6405,-3.6405,-3.6405,-3.6405,-3.6405,-3.643,-3.7224,-3.7613,-3.7626,-3.7889,-3.8178,-3.8454,-3.8454,-3.8793,-3.9295,-3.9295,-3.9459,-3.9697,-3.9697,-3.9697,-3.9697,-3.9697,-3.9697,-3.9697,-3.9697,-3.9697,-3.9697,-3.9697,-3.9697,-3.9697,-3.9697,-3.9697,-3.9697,-3.9697,-3.9697,-3.9634,-3.9371,-3.9496,-3.9622,-3.9358,-3.9082,-3.8756,-3.8165,-3.7588,-3.7098,-3.6835,-3.6606,-3.6405,-3.6405,-3.6405,-3.6405,-3.6405,-3.6405,-3.6405,-3.6405,-3.6405,-3.6405,-3.6405,-3.6405,-3.6405,-3.6405,-3.6405,-3.6405,-3.6405,-3.6405,-3.6405,-3.6405,-3.6405,-3.6405,-3.6405,-3.6405,-3.6405,-3.6405,-3.6405,-3.6405,0.0,0.0,0.0,0.0,0.0,0.0,0.0,0.0,0.0,0.0,0.0,0.0,0.0,0.0,0.0,0.0,0.0,0.0,0.0,0.0,0.0,0.0,0.0,0.0,0.0,0.0,0.0,0.0,-3.6405,-3.6405,-3.6405,-3.6405,-3.6405,-3.6405,-3.6405,-3.6405,-3.6405,-3.6405,-3.6405,-3.6405,-3.6405,-3.6405,-3.643,-3.6883,-3.7048,-3.7073,-3.7525,-3.7776,-3.7864,-3.7864,-3.8203,-3.8718,-3.8718,-3.9069,-3.9546,-3.9546,-3.9609,-3.9697,-3.9697,-3.9697,-3.9697,-3.9697,-3.9697,-3.9697,-3.9697,-3.9697,-3.9697,-3.9697,-3.9697,-3.9672,-3.9584,-3.9546,-3.9408,-3.8856,-3.9069,-3.927,-3.8818,-3.8642,-3.8304,-3.7362,-3.7111,-3.6945,-3.6493,-3.6405,-3.6405,-3.6405,-3.6405,-3.6405,-3.6405,-3.6405,-3.6405,-3.6405,-3.6405,-3.6405,-3.6405,-3.6405,-3.6405,-3.6405,-3.6405,-3.6405,-3.6405,-3.6405,-3.6405,-3.6405,-3.6405,-3.6405,-3.6405,-3.6405,-3.6405,-3.6405,-3.6405,-3.6405,0.0,0.0,0.0,0.0,0.0,0.0,0.0,0.0,0.0,0.0,0.0,0.0,0.0,0.0,0.0,0.0,0.0,0.0,0.0,0.0,0.0,0.0,0.0,0.0,0.0,0.0,0.0,0.0,-3.6405,-3.6405,-3.6405,-3.6405,-3.6405,-3.6405,-3.6405,-3.6405,-3.6405,-3.6405,-3.6405,-3.6405,-3.6405,-3.6405,-3.6405,-3.648,-3.6518,-3.6518,-3.6593,-3.6908,-3.7299,-3.7299,-3.7626,-3.8115,-3.8115,-3.8467,-3.9032,-3.9032,-3.9283,-3.9697,-3.9697,-3.9697,-3.9697,-3.9697,-3.9697,-3.9697,-3.9697,-3.9697,-3.9697,-3.9697,-3.9697,-3.9584,-3.9158,-3.9032,-3.8881,-3.8253,-3.8178,-3.8216,-3.814,-3.7751,-3.7362,-3.7211,-3.6845,-3.6493,-3.6417,-3.6405,-3.6405,-3.6405,-3.6405,-3.6405,-3.6405,-3.6405,-3.6405,-3.6405,-3.6405,-3.6405,-3.6405,-3.6405,-3.6405,-3.6405,-3.6405,-3.6405,-3.6405,-3.6405,-3.6405,-3.6405,-3.6405,-3.6405,-3.6405,-3.6405,-3.6405,-3.6405,-3.6405,-3.6405,0.0,0.0,0.0,0.0,0.0,0.0,0.0,0.0,0.0,0.0,0.0,0.0,0.0,0.0,0.0,0.0,0.0,0.0,0.0,0.0,0.0,0.0,0.0,0.0,0.0,0.0,0.0,0.0,-3.6405,-3.6405,-3.6405,-3.6405,-3.6405,-3.6405,-3.6405,-3.6405,-3.6405,-3.6405,-3.6405,-3.6405,-3.6405,-3.6405,-3.6405,-3.6405,-3.6405,-3.6405,-3.6405,-3.6543,-3.6769,-3.6769,-3.7048,-3.755,-3.755,-3.7889,-3.8391,-3.8391,-3.8542,-3.8793,-3.912,-3.9233,-3.9283,-3.9597,-3.9697,-3.9697,-3.9697,-3.9484,-3.9233,-3.9233,-3.8994,-3.8693,-3.8454,-3.8391,-3.8241,-3.7676,-3.755,-3.7462,-3.7149,-3.7136,-3.7098,-3.6832,-3.6568,-3.6405,-3.6405,-3.6405,-3.6405,-3.6405,-3.6405,-3.6405,-3.6405,-3.6405,-3.6405,-3.6405,-3.6405,-3.6405,-3.6405,-3.6405,-3.6405,-3.6405,-3.6405,-3.6405,-3.6405,-3.6405,-3.6405,-3.6405,-3.6405,-3.6405,-3.6405,-3.6405,-3.6405,-3.6405,-3.6405,-3.6405,0.0,0.0,0.0,0.0,0.0,0.0,0.0,0.0,0.0,0.0,0.0,0.0,0.0,0.0,0.0,0.0,0.0,0.0,0.0,0.0,0.0,0.0,0.0,0.0,0.0,0.0,0.0,0.0,-3.6405,-3.6405,-3.6405,-3.6405,-3.6405,-3.6405,-3.6405,-3.6405,-3.6405,-3.6405,-3.6405,-3.6405,-3.6405,-3.6405,-3.6405,-3.6405,-3.6405,-3.6405,-3.6405,-3.6405,-3.6405,-3.6405,-3.6656,-3.6973,-3.6973,-3.7312,-3.7801,-3.7801,-3.7889,-3.8065,-3.8504,-3.8655,-3.8718,-3.9132,-3.927,-3.927,-3.927,-3.8981,-3.8655,-3.8655,-3.8341,-3.7977,-3.7839,-3.7801,-3.7663,-3.7111,-3.6973,-3.6908,-3.6505,-3.6732,-3.6908,-3.6493,-3.6405,-3.6405,-3.6405,-3.6405,-3.6405,-3.6405,-3.6405,-3.6405,-3.6405,-3.6405,-3.6405,-3.6405,-3.6405,-3.6405,-3.6405,-3.6405,-3.6405,-3.6405,-3.6405,-3.6405,-3.6405,-3.6405,-3.6405,-3.6405,-3.6405,-3.6405,-3.6405,-3.6405,-3.6405,-3.6405,-3.6405,-3.6405,0.0,0.0,0.0,0.0,0.0,0.0,0.0,0.0,0.0,0.0,0.0,0.0,0.0,0.0,0.0,0.0,0.0,0.0,0.0,0.0,0.0,0.0,0.0,0.0,0.0,0.0,0.0,0.0,-3.6405,-3.6405,-3.6405,-3.6405,-3.6405,-3.6405,-3.6405,-3.6405,-3.6405,-3.6405,-3.6405,-3.6405,-3.6405,-3.6405,-3.6405,-3.6405,-3.6405,-3.6405,-3.6405,-3.6405,-3.6405,-3.6405,-3.643,-3.6455,-3.6455,-3.6782,-3.7224,-3.7224,-3.755,-3.8002,-3.804,-3.8052,-3.8052,-3.809,-3.809,-3.809,-3.809,-3.8078,-3.8052,-3.8052,-3.8027,-3.7889,-3.7362,-3.7224,-3.7086,-3.6581,-3.6455,-3.6443,-3.6417,-3.643,-3.6443,-3.6417,-3.6405,-3.6405,-3.6405,-3.6405,-3.6405,-3.6405,-3.6405,-3.6405,-3.6405,-3.6405,-3.6405,-3.6405,-3.6405,-3.6405,-3.6405,-3.6405,-3.6405,-3.6405,-3.6405,-3.6405,-3.6405,-3.6405,-3.6405,-3.6405,-3.6405,-3.6405,-3.6405,-3.6405,-3.6405,-3.6405,-3.6405,-3.6405,0.0,0.0,0.0,0.0,0.0,0.0,0.0,0.0,0.0,0.0,0.0,0.0,0.0,0.0,0.0,0.0,0.0,0.0,0.0,0.0,0.0,0.0,0.0,0.0,0.0,0.0,0.0,0.0,-3.6157,-3.6405,-3.6405,-3.6405,-3.6405,-3.6405,-3.6405,-3.6405,-3.6405,-3.6405,-3.6405,-3.6405,-3.6405,-3.6405,-3.6405,-3.6405,-3.6405,-3.6405,-3.6405,-3.6405,-3.6405,-3.6405,-3.6405,-3.6405,-3.6405,-3.6531,-3.6707,-3.6707,-3.6832,-3.6998,-3.7362,-3.7475,-3.7538,-3.7889,-3.8002,-3.8002,-3.8002,-3.7764,-3.7475,-3.7475,-3.7224,-3.6958,-3.6757,-3.6707,-3.6656,-3.6455,-3.6405,-3.6405,-3.6405,-3.6405,-3.6405,-3.6405,-3.6405,-3.6405,-3.6405,-3.6405,-3.6405,-3.6405,-3.6405,-3.6405,-3.6405,-3.6405,-3.6405,-3.6405,-3.6405,-3.6405,-3.6405,-3.6405,-3.6405,-3.6405,-3.6405,-3.6405,-3.6405,-3.6405,-3.6405,-3.6405,-3.6405,-3.6405,-3.6405,-3.6405,-3.6405,-3.6405,-3.6405,-3.6405,0.0,0.0,0.0,0.0,0.0,0.0,0.0,0.0,0.0,0.0,0.0,0.0,0.0,0.0,0.0,0.0,0.0,0.0,0.0,0.0,0.0,0.0,0.0,0.0,0.0,0.0,0.0,0.0,-3.578,0.0,-3.6094,-3.6304,-3.6405,-3.6405,-3.6405,-3.6405,-3.6405,-3.6405,-3.6405,-3.6405,-3.6405,-3.6405,-3.6405,-3.6405,-3.6405,-3.6405,-3.6405,-3.6405,-3.6405,-3.6405,-3.6405,-3.6405,-3.6405,-3.6405,-3.6405,-3.6405,-3.6405,-3.6455,-3.6832,-3.6958,-3.6973,-3.7337,-3.745,-3.745,-3.745,-3.7199,-3.6958,-3.6958,-3.6681,-3.6405,-3.6405,-3.6405,-3.6405,-3.6405,-3.6405,-3.6405,-3.6405,-3.6405,-3.6405,-3.6405,-3.6405,-3.6405,-3.6405,-3.6405,-3.6405,-3.6405,-3.6405,-3.6405,-3.6405,-3.6405,-3.6405,-3.6405,-3.6405,-3.6405,-3.6405,-3.6405,-3.6405,-3.6405,-3.6405,-3.6405,-3.6405,-3.6405,-3.6405,-3.6405,-3.6405,-3.6405,-3.6405,-3.6405,-3.6405,-3.6405,-3.6405,-3.6405,0.0,0.0,0.0,0.0,0.0,0.0,0.0,0.0,0.0,0.0,0.0,0.0,0.0,0.0,0.0,0.0,0.0,0.0,0.0,0.0,0.0,0.0,0.0,0.0,0.0,0.0,0.0,-3.47,-3.5157,-3.547,-3.547,-3.6044,-3.638,-3.638,-3.6405,-3.6405,-3.6405,-3.6405,-3.6405,-3.6405,-3.6405,-3.6405,-3.6405,-3.6405,-3.6405,-3.6405,-3.6405,-3.6405,-3.6405,-3.6405,-3.6405,-3.6405,-3.6405,-3.6405,-3.6405,-3.6405,-3.6405,-3.6405,-3.6405,-3.6405,-3.6405,-3.6405,-3.6405,-3.6405,-3.6405,-3.6405,-3.6452,-3.6452,-3.6452,-3.6452,-3.6405,-3.6405,-3.6405,-3.6405,-3.6405,-3.6405,-3.6405,-3.6405,-3.6405,-3.6405,-3.6405,-3.6405,-3.6405,-3.6405,-3.6405,-3.6405,-3.6405,-3.6405,-3.6405,-3.6405,-3.6405,-3.6405,-3.6405,-3.6405,-3.6405,-3.6405,-3.6405,-3.6405,-3.6405,-3.6405,-3.6405,-3.6405,-3.6405,-3.6405,-3.6405,-3.6405,-3.6405,-3.6405,-3.6405,-3.6405,-3.6405,-3.6405,-2.6499,0.0,0.0,0.0,0.0,0.0,0.0,0.0,0.0,0.0,0.0,0.0,0.0,0.0,0.0,0.0,0.0,0.0,0.0,0.0,0.0,0.0,0.0,0.0,0.0,0.0,0.0,0.0,-3.4638,-3.4906,-3.4906,-3.5466,-3.5768,-3.5768,-3.6157,-3.6405,-3.6405,-3.6405,-3.6405,-3.6405,-3.6405,-3.6405,-3.6405,-3.6405,-3.6405,-3.6405,-3.6405,-3.6405,-3.6405,-3.6405,-3.6405,-3.6405,-3.6405,-3.6405,-3.6405,-3.6405,-3.6405,-3.6405,-3.6405,-3.6405,-3.6405,-3.6405,-3.6405,-3.6405,-3.6405,-3.6977,-3.7632,-3.7632,-3.7632,-3.7461,-3.6628,-3.6405,-3.6405,-3.6405,-3.6405,-3.6405,-3.6405,-3.6405,-3.6405,-3.6405,-3.6405,-3.6405,-3.6405,-3.6405,-3.6405,-3.6405,-3.6405,-3.6405,-3.6405,-3.6405,-3.6405,-3.6405,-3.6405,-3.6405,-3.6405,-3.6405,-3.6405,-3.6405,-3.6405,-3.6405,-3.6405,-3.6405,-3.6405,-3.6405,-3.6405,-3.6405,-3.6405,-3.6405,-3.6405,-3.6405,-3.6405,-3.6405,0.0,0.0,0.0,0.0,0.0,0.0,-2.8888,-2.9478,-3.0231,0.0,0.0,0.0,0.0,0.0,0.0,0.0,0.0,0.0,0.0,0.0,0.0,0.0,0.0,0.0,0.0,-3.337,-3.3558,-3.3558,-3.406,-3.4474,-3.4668,-3.4981,-3.5157,-3.5157,-3.573,-3.6019,-3.6019,-3.6292,-3.6405,-3.6405,-3.6405,-3.6405,-3.6405,-3.6405,-3.6405,-3.6405,-3.6405,-3.6405,-3.6405,-3.6405,-3.6405,-3.6405,-3.6405,-3.6405,-3.6405,-3.6405,-3.6405,-3.6405,-3.6405,-3.6405,-3.6405,-3.6405,-3.6709,-3.7103,-3.7103,-3.7939,-3.8872,-3.8872,-3.8872,-3.8693,-3.8043,-3.7507,-3.7103,-3.7103,-3.6756,-3.6405,-3.6405,-3.6405,-3.6405,-3.6405,-3.6405,-3.6405,-3.6405,-3.6405,-3.6405,-3.6405,-3.6405,-3.6405,-3.6405,-3.6405,-3.6405,-3.6405,-3.6405,-3.6405,-3.6405,-3.6405,-3.6405,-3.6405,-3.6405,-3.6405,-3.6405,-3.6405,-3.6405,-3.6405,-3.6405,-3.6405,-3.6405,-3.6405,-3.6405,-3.6405,-3.6405,-3.6405,0.0,0.0,0.0,0.0,0.0,0.0,-2.9591,-2.9779,-3.0018,0.0,0.0,0.0,0.0,0.0,0.0,0.0,0.0,0.0,0.0,0.0,0.0,0.0,0.0,0.0,-3.3124,-3.3124,-3.3124,-3.3124,-3.3533,-3.4022,-3.4512,-3.46,-3.4625,-3.4625,-3.5119,-3.5408,-3.5408,-3.5994,-3.6317,-3.6317,-3.638,-3.6405,-3.6405,-3.6405,-3.6405,-3.6405,-3.6405,-3.6405,-3.6405,-3.6405,-3.6405,-3.6405,-3.6405,-3.6405,-3.6405,-3.6405,-3.6405,-3.6405,-3.6405,-3.6405,-3.6405,-3.6405,-3.7103,-3.7939,-3.8062,-3.8961,-3.9942,-4.0073,-4.0073,-4.0073,-3.9942,-3.9094,-3.8289,-3.8289,-3.7507,-3.6803,-3.6803,-3.6675,-3.6581,-3.6581,-3.6499,-3.6405,-3.6405,-3.6405,-3.6405,-3.6405,-3.6405,-3.6405,-3.6405,-3.6405,-3.6405,-3.6405,-3.6405,-3.6405,-3.6405,-3.6405,-3.6405,-3.6405,-3.6405,-3.6405,-3.6405,-3.6405,-3.6405,-3.6405,-3.6405,-3.6405,-3.6405,-3.6405,-3.6405,-3.6405,-3.6405,-3.6405,0.0,0.0,0.0,0.0,0.0,0.0,-2.719,-2.7216,-2.7517,0.0,0.0,0.0,0.0,0.0,0.0,0.0,0.0,0.0,0.0,0.0,0.0,0.0,0.0,0.0,-3.3124,-3.3124,-3.3124,-3.3124,-3.3224,-3.3282,-3.3395,-3.3822,-3.406,-3.406,-3.46,-3.4843,-3.4843,-3.5382,-3.5658,-3.5658,-3.6157,-3.6405,-3.6405,-3.6405,-3.6405,-3.6405,-3.6405,-3.6405,-3.6405,-3.6405,-3.6405,-3.6405,-3.6405,-3.6405,-3.6405,-3.6405,-3.6405,-3.6405,-3.6405,-3.6405,-3.6405,-3.6405,-3.6534,-3.6883,-3.7802,-3.8961,-4.0073,-4.1,-4.1253,-4.1042,-4.0159,-3.9724,-3.9536,-3.9536,-3.9373,-3.9241,-3.9241,-3.8424,-3.7756,-3.7756,-3.7023,-3.6405,-3.6405,-3.6405,-3.6405,-3.6405,-3.6405,-3.6405,-3.6405,-3.6405,-3.6405,-3.6405,-3.6405,-3.6405,-3.6405,-3.6405,-3.6405,-3.6405,-3.6405,-3.6405,-3.6405,-3.6405,-3.6405,-3.6405,-3.6405,-3.6405,-3.6405,-3.6405,-3.6405,-3.6405,-3.6405,-3.6405,0.0,0.0,0.0,-2.6499,0.0,0.0,0.0,-2.7281,-2.7595,0.0,0.0,0.0,0.0,0.0,0.0,0.0,0.0,0.0,0.0,0.0,0.0,0.0,0.0,0.0,-3.3124,-3.3124,-3.3124,-3.3124,-3.3124,-3.3124,-3.3124,-3.3332,-3.3483,-3.3483,-3.4022,-3.4311,-3.4311,-3.4818,-3.5094,-3.5094,-3.5692,-3.5956,-3.5968,-3.6279,-3.6709,-3.7243,-3.7243,-3.7243,-3.7243,-3.7243,-3.7243,-3.7243,-3.7243,-3.7243,-3.7322,-3.7906,-3.8134,-3.8134,-3.8134,-3.8134,-3.8134,-3.8134,-3.8514,-3.9112,-3.9669,-4.0689,-4.1699,-4.229,-4.2467,-4.233,-4.174,-4.1183,-4.0746,-4.0746,-4.0318,-3.9899,-3.9899,-3.9404,-3.9006,-3.9006,-3.803,-3.7057,-3.6499,-3.6405,-3.6405,-3.6405,-3.6405,-3.6405,-3.6405,-3.6405,-3.6405,-3.6405,-3.6405,-3.6405,-3.6405,-3.6405,-3.6405,-3.6405,-3.6405,-3.6405,-3.6405,-3.6405,-3.6405,-3.6405,-3.6405,-3.6405,-3.6405,-3.6405,-3.6405,-3.6405,-3.6405,-3.6405,0.0,0.0,0.0,0.0,0.0,-2.6851,0.0,0.0,0.0,0.0,0.0,0.0,0.0,0.0,0.0,0.0,0.0,0.0,0.0,0.0,0.0,0.0,0.0,0.0,-3.2767,-3.2797,-3.2842,-3.3056,-3.2923,-3.2855,-3.3111,-3.3124,-3.3124,-3.3124,-3.3508,-3.3746,-3.3746,-3.4496,-3.485,-3.4863,-3.5421,-3.5829,-3.6159,-3.6434,-3.7265,-3.8469,-3.8469,-3.8469,-3.8469,-3.8469,-3.8469,-3.8424,-3.8198,-3.8243,-3.8559,-3.9536,-3.9899,-3.9899,-3.9899,-3.9899,-3.9899,-3.9899,-4.0661,-4.1587,-4.1587,-4.2412,-4.329,-4.329,-4.329,-4.329,-4.329,-4.2629,-4.1932,-4.1932,-4.1225,-4.0546,-4.0546,-4.0375,-4.0232,-4.0232,-3.9258,-3.8075,-3.6943,-3.6534,-3.6405,-3.6405,-3.6405,-3.6405,-3.6405,-3.6405,-3.6405,-3.6405,-3.6405,-3.6405,-3.6405,-3.6405,-3.6405,-3.6405,-3.6405,-3.6405,-3.6405,-3.6405,-3.6405,-3.6405,-3.6405,-3.6405,-3.6405,-3.6405,-3.6405,-3.6405,-3.6405,-3.6405,0.0,0.0,0.0,0.0,-2.6864,0.0,0.0,0.0,-2.6713,-2.6851,0.0,0.0,0.0,0.0,0.0,0.0,0.0,0.0,0.0,0.0,0.0,0.0,0.0,0.0,0.0,-3.1587,-3.2001,-3.3006,-3.2152,-3.2014,-3.3074,-3.3124,-3.3124,-3.3124,-3.3174,-3.3212,-3.3212,-3.4654,-3.5427,-3.5427,-3.5961,-3.701,-3.8476,-3.7612,-3.8109,-3.9724,-3.9724,-3.9724,-3.9724,-3.9724,-3.9724,-3.9579,-3.8514,-3.8738,-3.9724,-3.9855,-3.9899,-3.9899,-3.9899,-3.9899,-3.9899,-3.9899,-4.0661,-4.1587,-4.1587,-4.2412,-4.329,-4.329,-4.329,-4.329,-4.329,-4.321,-4.3115,-4.3115,-4.2996,-4.29,-4.29,-4.2111,-4.142,-4.142,-4.049,-3.9316,-3.8121,-3.7057,-3.6405,-3.6405,-3.6405,-3.6405,-3.6405,-3.6405,-3.6405,-3.6405,-3.6405,-3.6405,-3.6405,-3.6405,-3.6405,-3.6405,-3.6405,-3.6405,-3.6405,-3.6405,-3.6405,-3.6405,-3.6405,-3.6405,-3.6405,-3.6405,-3.6405,-3.6405,-3.6405,-3.6405,0.0,0.0,0.0,0.0,0.0,0.0,-2.6826,0.0,-2.6499,0.0,0.0,0.0,0.0,0.0,0.0,0.0,-2.7231,0.0,0.0,0.0,0.0,0.0,0.0,0.0,0.0,0.0,-3.1863,-3.2993,-3.2026,-3.1888,-3.3061,-3.367,-3.4037,-3.4037,-3.4609,-3.4609,-3.4037,-3.5288,-3.56,-3.5033,-3.6218,-3.7165,-3.7827,-3.7723,-3.8639,-4.0294,-4.0294,-4.0548,-4.0873,-4.0873,-4.0873,-4.0831,-4.0333,-4.0419,-4.0958,-4.1616,-4.1879,-4.1879,-4.1879,-4.1879,-4.1879,-4.1879,-4.2208,-4.2589,-4.2589,-4.29,-4.329,-4.329,-4.329,-4.329,-4.329,-4.329,-4.329,-4.329,-4.329,-4.329,-4.329,-4.29,-4.2589,-4.2589,-4.1643,-4.0746,-4.0204,-3.859,-3.7368,-3.7368,-3.6803,-3.6405,-3.6405,-3.6405,-3.6405,-3.6405,-3.6405,-3.6405,-3.6405,-3.6405,-3.6405,-3.6405,-3.6405,-3.6405,-3.6405,-3.6405,-3.6405,-3.6405,-3.6405,-3.6405,-3.6405,-3.6405,-3.6405,-3.6405,-3.6405,-3.6405,-3.1246,0.0,0.0,0.0,0.0,0.0,0.0,0.0,0.0,0.0,0.0,0.0,0.0,0.0,0.0,0.0,0.0,-2.7318,0.0,0.0,0.0,0.0,0.0,0.0,0.0,-3.067,-3.1085,-3.2546,-3.1587,-3.1726,-3.3437,-3.3995,-3.4498,-3.5088,-3.5547,-3.5588,-3.5129,-3.6146,-3.6265,-3.5548,-3.6735,-3.7559,-3.802,-3.8095,-3.913,-4.0822,-4.0822,-4.1211,-4.1808,-4.1808,-4.191,-4.207,-4.207,-4.207,-4.2152,-4.2981,-4.329,-4.329,-4.329,-4.329,-4.329,-4.329,-4.329,-4.329,-4.329,-4.329,-4.329,-4.329,-4.329,-4.329,-4.329,-4.329,-4.329,-4.329,-4.329,-4.329,-4.329,-4.329,-4.329,-4.329,-4.2629,-4.207,-4.207,-4.0118,-3.8604,-3.8604,-3.7906,-3.7243,-3.6883,-3.6896,-3.6756,-3.6452,-3.6405,-3.6405,-3.6405,-3.6405,-3.6405,-3.6405,-3.6405,-3.6405,-3.6405,-3.6405,-3.6405,-3.6405,-3.6405,-3.6405,-3.6405,-3.6405,-3.6405,-3.6405,-3.6405,-3.6405,0.0,0.0,0.0,-2.9524,0.0,0.0,0.0,0.0,-2.714,0.0,0.0,0.0,0.0,0.0,0.0,0.0,0.0,0.0,0.0,0.0,0.0,0.0,0.0,0.0,0.0,-2.885,-2.9114,-3.1286,-3.0444,-3.1275,-3.4462,-3.3713,-3.4053,-3.6093,-3.5251,-3.521,-3.6119,-3.7214,-3.7715,-3.7715,-3.7729,-3.8658,-4.0271,-3.9246,-3.9711,-4.1361,-4.1361,-4.1735,-4.2387,-4.2387,-4.2722,-4.325,-4.325,-4.325,-4.325,-4.329,-4.329,-4.329,-4.329,-4.329,-4.329,-4.329,-4.329,-4.329,-4.329,-4.329,-4.329,-4.329,-4.329,-4.329,-4.329,-4.329,-4.329,-4.329,-4.329,-4.329,-4.329,-4.329,-4.329,-4.329,-4.325,-4.325,-4.325,-4.1351,-3.9855,-3.9855,-3.9812,-3.9373,-3.8198,-3.8062,-3.7632,-3.6546,-3.6405,-3.6405,-3.6405,-3.6405,-3.6405,-3.6405,-3.6405,-3.6405,-3.6405,-3.6405,-3.6405,-3.6405,-3.6405,-3.6405,-3.6405,-3.6405,-3.6405,-3.6405,-3.6405,-3.6405,0.0,0.0,-3.4694,-3.1578,0.0,0.0,0.0,0.0,0.0,0.0,0.0,0.0,0.0,0.0,0.0,0.0,0.0,0.0,0.0,0.0,0.0,0.0,0.0,0.0,0.0,0.0,0.0,-3.1286,-3.1702,-3.2738,-3.4584,-3.5655,-3.6515,-3.7228,-3.7625,-3.7625,-3.7252,-3.8308,-3.8509,-3.7791,-3.8509,-3.9187,-3.9717,-3.9358,-3.975,-4.0726,-4.0726,-4.11,-4.1752,-4.1752,-4.2141,-4.2686,-4.2686,-4.2955,-4.329,-4.329,-4.329,-4.329,-4.329,-4.329,-4.329,-4.329,-4.329,-4.3215,-4.2821,-4.2686,-4.2596,-4.2162,-4.2043,-4.2043,-4.2043,-4.2043,-4.2043,-4.2043,-4.2372,-4.2686,-4.2686,-4.303,-4.329,-4.329,-4.329,-4.329,-4.329,-4.2644,-4.1906,-4.1127,-4.0361,-3.9768,-3.9316,-3.9271,-3.9139,-3.8751,-3.7984,-3.754,-3.754,-3.6849,-3.6405,-3.6405,-3.6405,-3.6405,-3.6405,-3.6405,-3.6405,-3.6405,-3.6405,-3.6405,-3.6405,-3.6405,-3.6405,-3.6405,-3.6405,-3.6405,-3.6333,-3.6641,0.0,-3.3724,-3.3831,0.0,-3.0296,0.0,-2.9293,0.0,0.0,0.0,0.0,0.0,0.0,0.0,0.0,0.0,0.0,-2.6499,0.0,0.0,0.0,0.0,0.0,0.0,-2.9816,-3.1695,-3.2455,-3.3538,-3.5041,-3.6473,-3.7587,-3.8345,-3.8671,-3.8671,-3.8383,-3.9068,-3.9068,-3.8383,-3.9068,-3.9388,-3.9388,-3.9388,-3.9649,-4.0053,-4.0053,-4.0427,-4.1025,-4.1025,-4.1452,-4.2051,-4.2051,-4.2267,-4.2686,-4.3125,-4.329,-4.326,-4.306,-4.2985,-4.2955,-4.2716,-4.2641,-4.2551,-4.2171,-4.2051,-4.2006,-4.1826,-4.1767,-4.1767,-4.1767,-4.1767,-4.1707,-4.1482,-4.1737,-4.2051,-4.2051,-4.2342,-4.2701,-4.294,-4.2985,-4.306,-4.3245,-4.329,-4.3036,-4.233,-4.1574,-4.0972,-4.0575,-4.049,-4.0361,-3.9942,-3.9183,-3.8559,-3.8153,-3.7415,-3.6849,-3.6452,-3.6405,-3.6405,-3.6405,-3.6405,-3.6405,-3.6405,-3.6405,-3.6405,-3.6405,-3.6405,-3.6405,-3.6405,-3.6405,-3.6405]},{"header":{"parameterUnit":"m.s-1","parameterCategory":1,"la1":30.6,"la2":29.2853,"lo1":-89.7004,"lo2":-87.6739,"dy":0.0162,"dx":0.0183,"nx":112,"ny":82,"refTime":"2023-06-07T18:00:00:Z","depth":0,"parameterNumber":3,"parameterNumberName":"V-component_of_WINDS"},"data":[0.0,0.0,0.0,0.0,0.0,0.0,0.0,0.0,0.0,0.0,0.0,0.0,0.0,0.0,0.0,0.0,0.0,0.0,0.0,0.0,0.0,0.0,0.0,0.0,0.0,0.0,0.0,0.0,0.0,0.0,0.0,0.0,0.0,0.0,0.0,0.0,0.0,0.0,0.0,0.0,0.0,0.0,0.0,0.0,0.0,0.0,0.0,0.0,0.0,0.0,0.0,0.0,0.0,0.0,0.0,0.0,0.0,0.0,0.0,0.0,0.0,0.0,0.0,0.0,0.0,0.0,0.0,0.0,0.0,0.0,0.0,0.0,0.0,0.0,0.0,0.0,0.0,0.0,0.0,0.0,0.0,0.0,0.0,0.0,0.0,0.0,0.0,0.0,0.0,0.0,-3.6508,-3.5765,-3.5554,-3.5504,-3.5504,-3.5504,-3.5504,-3.5504,0.0,0.0,0.0,0.0,0.0,0.0,0.0,0.0,0.0,0.0,0.0,0.0,0.0,0.0,0.0,0.0,0.0,0.0,0.0,0.0,0.0,0.0,0.0,0.0,0.0,0.0,0.0,0.0,0.0,0.0,0.0,0.0,0.0,0.0,0.0,0.0,0.0,0.0,0.0,0.0,0.0,0.0,0.0,0.0,0.0,0.0,0.0,0.0,0.0,0.0,0.0,0.0,0.0,0.0,0.0,0.0,0.0,0.0,0.0,0.0,0.0,0.0,0.0,0.0,0.0,0.0,0.0,0.0,0.0,0.0,0.0,0.0,0.0,0.0,0.0,0.0,0.0,0.0,0.0,0.0,0.0,0.0,0.0,0.0,0.0,0.0,0.0,0.0,0.0,0.0,0.0,0.0,0.0,0.0,0.0,0.0,0.0,0.0,0.0,0.0,0.0,0.0,0.0,0.0,-3.7308,-3.6538,-3.5863,-3.5504,-3.5504,-3.5504,-3.5504,-3.5504,0.0,0.0,0.0,0.0,0.0,0.0,0.0,0.0,0.0,0.0,0.0,0.0,0.0,0.0,0.0,0.0,0.0,0.0,0.0,0.0,0.0,0.0,0.0,0.0,0.0,0.0,0.0,0.0,0.0,0.0,0.0,0.0,0.0,0.0,0.0,0.0,0.0,0.0,0.0,0.0,0.0,0.0,0.0,0.0,0.0,0.0,0.0,0.0,0.0,0.0,0.0,0.0,0.0,0.0,0.0,0.0,0.0,0.0,0.0,0.0,0.0,0.0,0.0,0.0,0.0,0.0,0.0,0.0,0.0,0.0,0.0,0.0,0.0,0.0,0.0,0.0,0.0,0.0,0.0,0.0,0.0,0.0,0.0,0.0,0.0,0.0,0.0,0.0,0.0,0.0,0.0,0.0,0.0,0.0,0.0,0.0,0.0,0.0,0.0,0.0,0.0,0.0,0.0,-3.74,-3.6937,-3.6571,-3.6529,-3.6537,-3.6537,-3.6537,-3.6537,-3.6537,-3.6589,0.0,0.0,0.0,0.0,0.0,0.0,0.0,0.0,0.0,0.0,0.0,0.0,0.0,0.0,0.0,0.0,0.0,0.0,0.0,0.0,0.0,0.0,0.0,0.0,0.0,0.0,0.0,0.0,0.0,0.0,0.0,0.0,0.0,0.0,0.0,0.0,0.0,0.0,0.0,0.0,0.0,0.0,0.0,0.0,0.0,0.0,0.0,0.0,0.0,0.0,0.0,0.0,0.0,0.0,0.0,0.0,0.0,0.0,0.0,0.0,0.0,0.0,0.0,0.0,0.0,0.0,0.0,0.0,0.0,0.0,0.0,0.0,0.0,0.0,0.0,0.0,0.0,0.0,0.0,0.0,0.0,0.0,0.0,0.0,0.0,0.0,0.0,0.0,0.0,0.0,0.0,0.0,0.0,0.0,0.0,0.0,0.0,0.0,0.0,0.0,0.0,0.0,-3.8119,-3.7531,-3.7303,-3.7528,-3.7628,-3.7404,-3.7404,-3.7507,-3.7681,-3.7793,0.0,0.0,0.0,0.0,0.0,0.0,0.0,0.0,0.0,0.0,0.0,0.0,0.0,0.0,0.0,0.0,0.0,0.0,0.0,0.0,0.0,0.0,0.0,0.0,0.0,0.0,0.0,0.0,0.0,0.0,0.0,0.0,0.0,0.0,0.0,0.0,0.0,0.0,0.0,0.0,0.0,0.0,0.0,0.0,0.0,0.0,0.0,0.0,0.0,0.0,0.0,0.0,0.0,0.0,0.0,0.0,0.0,0.0,0.0,0.0,0.0,0.0,0.0,0.0,0.0,0.0,0.0,0.0,0.0,0.0,0.0,0.0,0.0,0.0,0.0,0.0,0.0,0.0,0.0,0.0,0.0,0.0,0.0,0.0,0.0,0.0,0.0,0.0,0.0,0.0,0.0,0.0,0.0,0.0,0.0,0.0,0.0,0.0,0.0,0.0,0.0,0.0,-4.1327,-4.0554,-3.9761,-3.903,-3.8284,-3.7473,-3.7404,-3.7748,-3.8563,-3.8614,0.0,0.0,0.0,0.0,0.0,0.0,0.0,0.0,0.0,0.0,0.0,0.0,0.0,0.0,0.0,0.0,0.0,0.0,0.0,0.0,0.0,0.0,0.0,0.0,0.0,0.0,0.0,0.0,0.0,0.0,0.0,0.0,0.0,0.0,0.0,0.0,0.0,0.0,0.0,0.0,0.0,0.0,0.0,0.0,0.0,0.0,0.0,0.0,0.0,0.0,0.0,0.0,0.0,0.0,0.0,0.0,0.0,0.0,0.0,0.0,0.0,0.0,0.0,0.0,0.0,0.0,0.0,0.0,0.0,0.0,0.0,0.0,0.0,0.0,0.0,0.0,0.0,0.0,0.0,0.0,0.0,0.0,0.0,0.0,0.0,0.0,0.0,0.0,0.0,0.0,0.0,0.0,0.0,0.0,0.0,0.0,0.0,0.0,0.0,0.0,0.0,0.0,-4.1291,-4.0956,-4.0603,-4.069,-4.0639,-4.0313,-4.028,-4.0181,-3.9949,0.0,0.0,0.0,0.0,0.0,0.0,0.0,0.0,0.0,0.0,0.0,0.0,0.0,0.0,0.0,0.0,0.0,0.0,0.0,0.0,0.0,0.0,0.0,0.0,0.0,0.0,0.0,0.0,0.0,0.0,0.0,0.0,0.0,0.0,0.0,0.0,0.0,0.0,0.0,0.0,0.0,0.0,0.0,0.0,0.0,0.0,0.0,0.0,0.0,0.0,0.0,0.0,0.0,0.0,0.0,0.0,0.0,0.0,0.0,0.0,0.0,0.0,0.0,0.0,0.0,0.0,0.0,0.0,0.0,0.0,0.0,0.0,0.0,0.0,0.0,0.0,0.0,0.0,0.0,0.0,0.0,0.0,0.0,0.0,0.0,0.0,0.0,0.0,0.0,0.0,0.0,0.0,0.0,0.0,0.0,0.0,0.0,0.0,0.0,0.0,0.0,0.0,-4.2254,-4.2206,-4.2036,-4.1761,-4.2136,-4.2284,-4.2029,-4.1997,-4.1869,-4.1543,0.0,0.0,0.0,0.0,0.0,0.0,0.0,0.0,0.0,0.0,0.0,0.0,0.0,0.0,0.0,0.0,0.0,0.0,0.0,0.0,0.0,0.0,0.0,0.0,0.0,0.0,0.0,0.0,0.0,0.0,0.0,0.0,0.0,0.0,0.0,0.0,0.0,0.0,0.0,0.0,0.0,0.0,0.0,0.0,0.0,0.0,0.0,0.0,0.0,0.0,0.0,0.0,0.0,0.0,0.0,0.0,0.0,0.0,0.0,0.0,0.0,0.0,0.0,0.0,0.0,0.0,0.0,0.0,0.0,0.0,0.0,0.0,0.0,0.0,0.0,0.0,0.0,0.0,0.0,0.0,0.0,0.0,0.0,0.0,0.0,0.0,0.0,0.0,0.0,0.0,0.0,0.0,0.0,0.0,0.0,0.0,0.0,0.0,0.0,0.0,0.0,0.0,-4.4513,-4.4615,-4.4253,-4.3396,-4.3306,-4.2986,-4.2093,-4.2029,-4.2395,0.0,0.0,0.0,0.0,0.0,0.0,0.0,0.0,0.0,0.0,0.0,0.0,0.0,0.0,0.0,0.0,0.0,0.0,0.0,0.0,0.0,0.0,0.0,0.0,0.0,0.0,0.0,0.0,0.0,0.0,0.0,0.0,0.0,0.0,0.0,0.0,0.0,0.0,0.0,0.0,0.0,0.0,0.0,0.0,0.0,0.0,0.0,0.0,0.0,0.0,0.0,0.0,0.0,0.0,0.0,0.0,0.0,0.0,0.0,0.0,0.0,0.0,0.0,0.0,0.0,0.0,0.0,0.0,0.0,0.0,0.0,0.0,0.0,0.0,0.0,0.0,0.0,0.0,0.0,0.0,0.0,0.0,0.0,0.0,0.0,0.0,0.0,0.0,0.0,0.0,0.0,0.0,0.0,0.0,0.0,0.0,0.0,0.0,0.0,0.0,0.0,0.0,0.0,-4.4581,-4.4615,-4.4514,-4.4253,-4.4224,-4.4121,-4.3873,-4.3827,-4.368,-4.3306,0.0,0.0,0.0,0.0,0.0,0.0,0.0,0.0,0.0,0.0,0.0,0.0,0.0,0.0,0.0,0.0,0.0,0.0,0.0,0.0,0.0,0.0,0.0,0.0,0.0,0.0,0.0,0.0,0.0,0.0,0.0,0.0,0.0,0.0,0.0,0.0,0.0,0.0,0.0,0.0,0.0,0.0,0.0,0.0,0.0,0.0,0.0,0.0,0.0,0.0,0.0,0.0,0.0,0.0,0.0,0.0,0.0,0.0,0.0,0.0,0.0,0.0,0.0,0.0,0.0,0.0,0.0,0.0,0.0,0.0,0.0,0.0,0.0,0.0,0.0,0.0,0.0,0.0,0.0,0.0,0.0,0.0,0.0,0.0,0.0,0.0,0.0,0.0,0.0,0.0,0.0,0.0,0.0,0.0,0.0,0.0,0.0,0.0,0.0,0.0,0.0,0.0,-4.4615,-4.4615,-4.4615,-4.4615,-4.4615,-4.4615,-4.4615,-4.4615,-4.4384,-4.3844,0.0,0.0,0.0,0.0,0.0,0.0,0.0,0.0,0.0,0.0,0.0,0.0,0.0,0.0,0.0,0.0,0.0,0.0,0.0,0.0,0.0,0.0,0.0,0.0,0.0,0.0,0.0,0.0,0.0,0.0,0.0,0.0,0.0,0.0,0.0,0.0,0.0,0.0,0.0,0.0,0.0,0.0,0.0,0.0,0.0,0.0,0.0,0.0,0.0,0.0,0.0,0.0,0.0,0.0,0.0,0.0,0.0,0.0,0.0,0.0,0.0,0.0,0.0,0.0,0.0,0.0,0.0,0.0,0.0,0.0,0.0,0.0,0.0,0.0,0.0,0.0,0.0,0.0,0.0,0.0,0.0,0.0,0.0,0.0,0.0,0.0,0.0,0.0,0.0,0.0,0.0,0.0,0.0,0.0,0.0,0.0,0.0,0.0,0.0,0.0,0.0,0.0,-4.4615,-4.4615,-4.4615,-4.4615,-4.4615,-4.4615,-4.4615,-4.4615,-4.4615,-4.4615,0.0,0.0,0.0,0.0,0.0,0.0,0.0,0.0,0.0,0.0,0.0,0.0,0.0,0.0,0.0,0.0,0.0,0.0,0.0,0.0,0.0,0.0,0.0,0.0,0.0,0.0,0.0,0.0,0.0,0.0,0.0,0.0,0.0,0.0,0.0,0.0,0.0,0.0,0.0,0.0,0.0,0.0,0.0,0.0,0.0,0.0,0.0,0.0,0.0,0.0,0.0,0.0,0.0,0.0,0.0,0.0,0.0,0.0,0.0,0.0,-3.9931,0.0,0.0,0.0,0.0,0.0,0.0,0.0,0.0,0.0,0.0,0.0,0.0,0.0,0.0,0.0,0.0,0.0,0.0,0.0,0.0,0.0,0.0,0.0,0.0,0.0,0.0,0.0,0.0,0.0,0.0,0.0,0.0,0.0,0.0,0.0,0.0,0.0,0.0,0.0,0.0,0.0,-4.4615,-4.4615,-4.4615,-4.4615,-4.4615,-4.4615,-4.4615,-4.4615,-4.4615,-4.4615,-4.4615,0.0,0.0,0.0,0.0,0.0,0.0,0.0,0.0,0.0,0.0,0.0,0.0,0.0,0.0,0.0,0.0,0.0,0.0,0.0,0.0,0.0,0.0,0.0,0.0,0.0,0.0,0.0,0.0,0.0,0.0,0.0,0.0,0.0,0.0,0.0,0.0,0.0,0.0,0.0,0.0,0.0,0.0,0.0,0.0,0.0,0.0,0.0,0.0,0.0,0.0,0.0,0.0,0.0,0.0,0.0,0.0,0.0,0.0,0.0,0.0,-4.0446,0.0,0.0,0.0,0.0,0.0,0.0,0.0,0.0,0.0,0.0,0.0,0.0,0.0,0.0,0.0,0.0,0.0,0.0,0.0,0.0,0.0,0.0,0.0,0.0,0.0,0.0,0.0,0.0,0.0,0.0,0.0,0.0,0.0,0.0,0.0,0.0,0.0,0.0,0.0,0.0,-4.4615,-4.4615,-4.4615,-4.4615,-4.4615,-4.4615,-4.4615,-4.4615,-4.4615,-4.4615,-4.4615,0.0,0.0,0.0,0.0,0.0,0.0,0.0,0.0,0.0,0.0,0.0,0.0,0.0,0.0,0.0,0.0,0.0,0.0,0.0,0.0,0.0,0.0,0.0,0.0,0.0,0.0,0.0,0.0,0.0,0.0,0.0,0.0,0.0,0.0,0.0,0.0,0.0,0.0,0.0,0.0,0.0,0.0,0.0,0.0,0.0,0.0,0.0,0.0,0.0,0.0,0.0,0.0,0.0,-4.1446,-4.1333,-4.1333,-4.1027,-4.1238,-4.183,-4.2422,-4.1788,-4.0231,-3.9495,0.0,0.0,0.0,0.0,0.0,0.0,0.0,0.0,0.0,0.0,0.0,0.0,0.0,0.0,0.0,0.0,0.0,0.0,0.0,0.0,0.0,0.0,0.0,0.0,-4.4615,-4.4615,-4.4615,0.0,0.0,0.0,0.0,0.0,0.0,0.0,0.0,0.0,0.0,0.0,-4.4615,-4.4615,-4.4615,-4.4615,-4.4615,-4.4615,-4.4615,-4.4615,-4.4615,-4.4615,-4.4615,-4.4615,0.0,0.0,0.0,0.0,0.0,0.0,0.0,0.0,0.0,0.0,0.0,0.0,0.0,0.0,0.0,0.0,0.0,0.0,0.0,0.0,0.0,0.0,0.0,0.0,0.0,0.0,0.0,0.0,0.0,0.0,0.0,0.0,-4.146,-4.0838,0.0,0.0,0.0,0.0,0.0,0.0,0.0,0.0,0.0,0.0,0.0,0.0,0.0,-4.1598,-4.1621,-4.1847,-4.1953,-4.197,-4.2714,-4.3071,-4.3088,-4.3728,-4.4073,-4.4175,-4.4259,0.0,-4.1001,-4.0265,0.0,0.0,0.0,0.0,0.0,0.0,0.0,0.0,0.0,0.0,0.0,0.0,0.0,0.0,0.0,0.0,0.0,0.0,0.0,0.0,0.0,0.0,-4.2675,-4.4242,-4.4615,-4.4615,0.0,-4.4615,-4.4615,-4.4615,-4.4615,0.0,0.0,0.0,0.0,0.0,0.0,0.0,-4.4615,-4.4615,-4.4615,-4.4615,-4.4615,-4.4615,-4.4615,-4.4615,-4.4615,-4.4615,-4.4615,-4.4615,-4.4615,-4.4615,0.0,0.0,0.0,0.0,0.0,0.0,0.0,0.0,0.0,0.0,0.0,0.0,0.0,0.0,0.0,0.0,0.0,0.0,0.0,0.0,0.0,0.0,0.0,0.0,0.0,0.0,0.0,0.0,0.0,-4.091,-4.148,-4.1132,-4.1809,-4.1846,0.0,0.0,0.0,0.0,0.0,0.0,0.0,0.0,0.0,-4.1347,-4.2498,-4.294,-4.2607,-4.3186,-4.3465,-4.3482,-4.3878,-4.4062,-4.4079,-4.4445,-4.4615,-4.4615,-4.4615,-4.4039,-4.3014,-4.1839,-4.0696,-3.9681,0.0,0.0,0.0,0.0,-3.9012,-3.8826,-3.9969,-4.0104,-3.9766,-3.9766,0.0,0.0,0.0,0.0,0.0,0.0,0.0,0.0,0.0,0.0,-4.32,-4.4344,-4.4615,-4.4615,-4.4615,-4.4615,-4.4615,0.0,-4.4615,-4.4615,-4.4615,0.0,0.0,0.0,0.0,-4.4615,-4.4615,-4.4615,-4.4615,-4.4615,-4.4615,-4.4615,-4.4615,-4.4615,-4.4615,-4.4615,-4.4615,-4.4615,-4.4615,-4.4615,-4.4615,0.0,0.0,0.0,0.0,0.0,0.0,0.0,0.0,0.0,0.0,0.0,0.0,0.0,0.0,0.0,0.0,0.0,0.0,0.0,0.0,0.0,0.0,0.0,0.0,0.0,0.0,0.0,0.0,-4.1442,-4.2178,-4.1772,-4.2477,-4.261,0.0,0.0,0.0,0.0,0.0,0.0,-4.0898,-4.2337,-4.2922,-4.2377,-4.3675,-4.4152,-4.3707,-4.4282,-4.4615,-4.4615,-4.4615,-4.4615,-4.4615,-4.4615,-4.4615,-4.4615,-4.4615,-4.4615,-4.4513,-4.3132,-4.2151,-4.1407,-4.0663,-4.0273,-4.018,-4.0933,-4.0849,-4.0587,-4.1847,-4.1931,-4.1474,-4.1474,-4.1356,-4.1102,-4.0544,0.0,0.0,0.0,0.0,-4.0586,-4.1525,-4.2591,-4.3606,-4.4429,-4.4615,-4.4615,-4.4615,-4.4615,-4.4615,0.0,-4.4615,-4.4615,-4.4615,0.0,0.0,0.0,0.0,-4.4615,-4.4615,-4.4615,-4.4615,-4.4615,-4.4615,-4.4615,-4.4615,-4.4615,-4.4615,-4.4615,-4.4615,-4.4615,-4.4615,-4.4615,-4.4615,-4.4615,0.0,0.0,0.0,0.0,0.0,0.0,0.0,0.0,0.0,0.0,0.0,0.0,0.0,0.0,0.0,0.0,0.0,0.0,0.0,0.0,0.0,0.0,0.0,0.0,0.0,0.0,0.0,0.0,0.0,-4.3552,-4.4306,0.0,0.0,0.0,0.0,-4.1519,-4.2264,-4.2459,-4.194,-4.3375,-4.3967,-4.3356,-4.4152,-4.4575,-4.4547,-4.4581,-4.4615,-4.4615,-4.4615,-4.4615,-4.4615,-4.4615,-4.4615,-4.4615,-4.4615,-4.4615,-4.4547,-4.369,-4.2912,-4.2168,-4.1424,-4.073,-4.018,-4.0933,-4.1187,-4.1271,-4.2016,-4.2269,-4.2236,-4.2236,-4.1762,-4.1204,-4.117,-4.0646,0.0,0.0,-4.1102,-4.1491,-4.2929,-4.3341,-4.3606,-4.4429,-4.4615,-4.4615,-4.4615,-4.4615,-4.4615,0.0,-4.4615,-4.4615,-4.4615,0.0,-4.4615,-4.4615,-4.4615,-4.4615,-4.4615,-4.4615,-4.4615,-4.4615,-4.4615,-4.4615,-4.4615,-4.4615,-4.4615,-4.4615,-4.4615,-4.4615,-4.4615,-4.4615,-4.4615,-4.4615,-4.4615,0.0,0.0,0.0,0.0,0.0,0.0,0.0,0.0,0.0,0.0,0.0,0.0,0.0,0.0,0.0,0.0,0.0,0.0,0.0,0.0,0.0,0.0,0.0,0.0,0.0,0.0,0.0,0.0,-4.3832,-4.4146,0.0,-4.3547,-4.254,-4.2102,-4.2573,-4.2973,-4.3109,-4.2909,-4.3897,-4.4378,-4.4192,-4.4462,-4.4615,-4.4615,-4.4615,-4.4852,-4.5314,-4.5314,-4.5551,-4.6007,-4.6007,-4.6007,-4.6007,-4.6007,-4.6007,-4.5974,-4.5703,-4.4857,-4.3768,-4.347,-4.3217,-4.3031,-4.3284,-4.3369,-4.3447,-4.3701,-4.3785,-4.3785,-4.3785,-4.3616,-4.3284,-4.2777,-4.2429,-4.2175,-4.1965,-4.2252,-4.2733,-4.3257,-4.3792,-4.4231,-4.4547,-4.4615,-4.4615,-4.4615,-4.4615,-4.4615,-4.4615,-4.4615,-4.4615,-4.4615,-4.4615,-4.4615,-4.4615,-4.4615,-4.4615,-4.4615,-4.4615,-4.4615,-4.4615,-4.4615,-4.4615,-4.4615,-4.4615,-4.4615,-4.4615,-4.4615,-4.4615,-4.4615,-4.4615,-4.4615,-4.4615,-4.4615,-4.4615,0.0,0.0,0.0,0.0,0.0,0.0,0.0,0.0,0.0,0.0,0.0,0.0,0.0,0.0,0.0,0.0,0.0,0.0,0.0,0.0,0.0,0.0,0.0,0.0,0.0,0.0,-4.3766,-4.3963,-4.4067,-4.4126,-4.4103,-4.3106,-4.2817,-4.3606,-4.3749,-4.3809,-4.3809,-4.4299,-4.4615,-4.4615,-4.4852,-4.4959,-4.4959,-4.5224,-4.5585,-4.6075,-4.6075,-4.6329,-4.6786,-4.6786,-4.6786,-4.6786,-4.6786,-4.6786,-4.6786,-4.6786,-4.621,-4.5359,-4.5359,-4.5359,-4.5359,-4.5359,-4.5359,-4.5359,-4.5359,-4.5359,-4.5359,-4.5359,-4.5359,-4.5229,-4.4705,-4.4553,-4.4451,-4.3944,-4.4164,-4.4553,-4.4553,-4.4942,-4.5359,-4.5359,-4.5359,-4.5359,-4.5359,-4.5359,-4.5359,-4.5359,-4.4953,-4.4615,-4.4615,-4.4615,-4.4615,-4.4615,-4.4615,-4.4615,-4.4615,-4.4615,-4.4615,-4.4615,-4.4615,-4.4615,-4.4615,-4.4615,-4.4615,-4.4615,-4.4615,-4.4615,-4.4615,-4.4615,-4.4615,-4.4615,-4.4615,-4.4615,-4.4615,0.0,0.0,0.0,0.0,0.0,0.0,0.0,0.0,0.0,0.0,0.0,0.0,0.0,0.0,0.0,0.0,0.0,0.0,0.0,0.0,0.0,0.0,0.0,-4.1701,-4.3716,-4.4864,-4.4112,-4.4261,-4.4377,-4.431,-4.3771,-4.3775,-4.4547,-4.4615,-4.4615,-4.4632,-4.4632,-4.4649,-4.4682,-4.5348,-4.5737,-4.5737,-4.6447,-4.6802,-4.6819,-4.6819,-4.6836,-4.6853,-4.6853,-4.6853,-4.6853,-4.6853,-4.6853,-4.6853,-4.6853,-4.6853,-4.6853,-4.6802,-4.6786,-4.6786,-4.6786,-4.6786,-4.6786,-4.6786,-4.6786,-4.6786,-4.6786,-4.6786,-4.6786,-4.6786,-4.6786,-4.6786,-4.6786,-4.6786,-4.6786,-4.6786,-4.6786,-4.6786,-4.6786,-4.6786,-4.6786,-4.6786,-4.6786,-4.6786,-4.6786,-4.5664,-4.4682,-4.4682,-4.4649,-4.4632,-4.4632,-4.4615,0.0,-4.4615,-4.4615,-4.4615,-4.4632,-4.4632,-4.4649,-4.4682,-4.4649,-4.4632,-4.4632,-4.4615,-4.4615,-4.4615,-4.4615,-4.4587,-4.4542,-4.4587,-4.4587,-4.4542,0.0,0.0,0.0,0.0,0.0,0.0,0.0,0.0,0.0,0.0,0.0,0.0,0.0,0.0,0.0,0.0,0.0,0.0,0.0,0.0,0.0,0.0,-4.3425,-4.3555,-4.3742,-4.4034,-4.4384,-4.449,-4.4535,-4.4507,-4.4359,-4.435,-4.4581,-4.4615,-4.4852,-4.5365,-4.5399,-4.5635,-4.616,-4.638,-4.6498,-4.6498,-4.6684,-4.7073,-4.7614,-4.7614,-4.7885,-4.8392,-4.8392,-4.8392,-4.8392,-4.8392,-4.8392,-4.8392,-4.8392,-4.8392,-4.8291,-4.7208,-4.6786,-4.6786,-4.6786,-4.6786,-4.6786,-4.6786,-4.6786,-4.6786,-4.6786,-4.6786,-4.6786,-4.6786,-4.6786,-4.6786,-4.6786,-4.6786,-4.6786,-4.6786,-4.6786,-4.6786,-4.6786,-4.6786,-4.6786,-4.6786,-4.6786,-4.6786,-4.6786,-4.6464,-4.6223,-4.6223,-4.5737,-4.5399,-4.5399,-4.4925,0.0,-4.4615,-4.4615,-4.4818,-4.5331,-4.5399,-4.5602,-4.6143,-4.5703,-4.5399,-4.5399,-4.4919,-4.4615,-4.4615,-4.4615,-4.4281,-4.3651,-4.4281,-4.4281,0.0,0.0,0.0,0.0,0.0,0.0,0.0,0.0,0.0,0.0,0.0,0.0,0.0,0.0,0.0,0.0,0.0,0.0,0.0,0.0,0.0,0.0,-4.3029,-4.4051,-4.4376,-4.4123,-4.4079,-4.4547,-4.4615,-4.4615,-4.4615,-4.4615,-4.4733,-4.5026,-4.5043,-4.5382,-4.6126,-4.616,-4.6363,-4.6786,-4.7107,-4.7259,-4.7259,-4.7868,-4.8392,-4.8832,-4.9137,-4.9526,-4.9932,-4.9932,-4.9932,-4.9932,-4.9932,-4.9932,-4.9932,-4.9932,-4.9746,0.0,0.0,0.0,0.0,0.0,-4.7716,-4.7716,-4.7716,-4.7716,-4.7716,-4.7716,-4.7716,-4.7716,-4.7716,-4.7716,-4.7716,-4.7716,-4.7716,-4.7716,-4.7716,-4.7716,-4.7716,-4.7716,-4.7716,-4.7716,-4.7716,-4.7716,-4.7716,-4.7716,-4.7716,0.0,-4.7716,-4.6853,-4.616,-4.616,-4.5788,-4.5529,-4.5529,-4.5529,-4.5669,-4.6109,-4.616,-4.6329,-4.6752,-4.6413,0.0,0.0,0.0,-4.4749,-4.408,-4.4412,0.0,0.0,0.0,-4.3814,-4.3306,-4.3456,0.0,0.0,-4.4051,-4.4361,0.0,0.0,0.0,0.0,0.0,0.0,0.0,0.0,0.0,0.0,0.0,0.0,0.0,0.0,0.0,0.0,-4.3337,-4.3792,-4.4513,-4.4615,-4.4615,-4.4615,-4.4615,-4.4632,-4.4733,-4.4733,-4.501,-4.5771,-4.5821,-4.616,-4.687,0.0,0.0,0.0,0.0,-4.8261,-4.8261,-4.9576,-5.0219,-5.0219,-5.0896,-5.1185,-5.1185,-5.1185,-5.1185,-5.1185,-5.1185,-5.1185,-5.1185,-5.1185,-5.0811,-5.0135,-4.9323,-4.9001,-4.9001,-4.9001,-4.9001,-4.9001,-4.9001,0.0,0.0,-4.9001,-4.9001,-4.9001,-4.9001,-4.9001,-4.9001,-4.9001,-4.9001,-4.9001,-4.9001,-4.9001,-4.9001,-4.9001,-4.9001,-4.9001,-4.9001,-4.9001,-4.9001,-4.9001,-4.9001,-4.9001,-4.9001,-4.7851,-4.6921,-4.6921,-4.6836,-4.6786,-4.6786,-4.6786,-4.6819,-4.6904,0.0,0.0,-4.7039,-4.6866,-4.6469,-4.5828,-4.5538,-4.4855,-4.3621,-4.4143,-4.4035,-4.3169,-4.3246,-4.3199,-4.3017,-4.2316,-4.1997,-4.2029,-4.3575,-4.4327,0.0,0.0,0.0,0.0,0.0,0.0,0.0,0.0,0.0,0.0,0.0,0.0,0.0,0.0,0.0,-4.2397,-4.3545,-4.4429,-4.4581,-4.4615,-4.4615,-4.4615,-4.4615,-4.4852,-4.5432,-4.5483,-4.5788,-4.6532,-4.6583,-4.6904,-4.7665,-4.8257,-4.8849,-4.9424,-5.0185,-5.0543,-5.0543,-5.083,-5.0997,-5.0997,0.0,0.0,-5.1185,-5.1185,-5.1185,-5.1185,-5.1185,-5.1185,-5.1185,-5.1185,-5.1133,-5.0862,-4.9526,-4.9001,-4.9001,-4.9001,-4.9001,-4.9001,-4.9001,-4.9001,-4.9001,-4.9001,-4.9001,-4.9001,-4.9001,-4.9001,0.0,-4.9001,-4.9001,-4.9001,-4.9001,-4.9001,-4.9001,-4.9001,-4.9001,-4.9001,-4.9001,-4.9001,-4.9001,-4.9001,-4.9001,-4.9001,-4.9001,-4.8274,-4.7699,-4.7699,-4.7175,-4.6786,-4.6786,-4.6786,-4.7022,-4.7631,-4.7699,-4.7936,-4.8528,-4.7354,-4.6511,-4.6331,-4.4575,-4.4046,-4.5206,-4.416,-4.3139,-4.2252,-4.2939,-4.2614,-4.1213,-4.1739,-4.1997,-4.1997,-4.2347,-4.2504,0.0,0.0,0.0,0.0,0.0,0.0,0.0,0.0,0.0,0.0,0.0,-4.044,0.0,0.0,-4.2731,-4.2848,-4.3826,-4.4615,-4.4615,-4.4936,-4.5145,-4.5145,-4.5145,-4.5432,-4.6177,-4.6244,-4.6566,-4.731,-4.7699,-4.8223,-4.8968,-4.9712,-5.027,-5.0642,-5.1014,-5.1185,-5.1185,-5.1589,-5.1758,-5.1775,-5.2164,-5.2367,-5.2367,-5.2367,-5.2367,-5.2367,-5.2367,-5.2367,-5.2334,-5.1928,-5.1758,-5.1657,-5.0541,-5.0118,-5.0118,-5.0118,-5.0118,-5.0118,-5.0118,-5.0118,-5.0118,-5.0118,-4.9847,-4.9543,-4.9543,-4.9289,-4.9001,-4.9001,-4.9001,-4.9001,-4.9001,-4.9001,-4.9001,-4.9001,-4.9001,-4.9001,-4.9001,-4.9001,-4.9001,-4.9001,-4.9001,-4.9001,-4.9001,-4.8697,-4.846,-4.846,-4.8139,-4.7902,-4.7902,-4.7902,-4.8037,-4.8426,-4.846,-4.8612,-4.8968,-4.7891,-4.6984,-4.6535,-4.5065,-4.4204,-4.4188,-4.3848,-4.3089,-4.1881,-4.2703,-4.2349,-4.069,-4.156,-4.1543,-4.0706,-4.1162,-4.1576,0.0,0.0,0.0,0.0,0.0,0.0,0.0,0.0,-4.0552,-4.1808,-4.1707,-4.1593,-4.2185,-4.2912,-4.3392,-4.3392,-4.4079,-4.4649,-4.4801,-4.5331,-4.5821,-4.6092,-4.6007,-4.621,-4.6938,-4.7005,-4.7378,-4.8274,-4.8883,-4.9543,-5.027,-5.1014,-5.1388,-5.1388,-5.1589,-5.1657,-5.1657,-5.2249,-5.2536,-5.2536,-5.3196,-5.3501,-5.3501,-5.3501,-5.3501,-5.3501,-5.3501,-5.3501,-5.345,-5.2807,-5.2536,-5.2469,-5.1894,-5.1657,-5.1623,-5.1319,-5.1185,-5.1185,-5.1185,-5.1185,-5.1185,-5.1185,-5.0811,-5.0304,-5.0304,-4.9898,-4.9441,-4.9441,-4.9441,-4.9441,-4.9441,-4.9441,-4.9441,-4.9441,-4.9441,-4.9441,-4.9441,-4.9441,-4.9441,-4.9441,-4.9441,-4.939,-4.9238,-4.9221,-4.9171,-4.9018,-4.9001,-4.9001,-4.9001,-4.9001,-4.9001,-4.9001,-4.9001,-4.8861,-4.8482,-4.7914,-4.7263,-4.6504,-4.5439,-4.4403,-4.347,-4.3627,-4.3157,-4.1926,-4.259,-4.2176,-4.0632,-4.135,-4.0898,-3.9424,-4.0115,-4.0826,-3.8924,-3.902,-3.9602,-4.0502,-4.0861,-4.118,0.0,0.0,-4.2053,-4.2223,-4.2221,-4.2202,-4.2269,-4.2912,-4.3392,-4.3392,-4.4079,-4.4852,-4.5483,-4.5652,-4.6194,-4.7483,-4.709,-4.6972,-4.7733,-4.78,-4.8359,-4.9746,-4.9915,-5.0287,-5.1048,-5.1792,-5.2181,-5.2181,-5.2875,-5.3247,-5.3247,-5.3331,-5.3365,-5.3365,-5.3467,-5.3501,-5.3501,-5.3501,-5.3501,-5.3501,-5.3501,-5.3501,-5.3501,-5.3399,-5.3365,-5.3365,-5.3281,-5.3247,-5.3078,-5.1725,-5.1185,-5.1185,-5.1185,-5.1185,-5.1185,-5.1185,-5.115,-5.1099,-5.1099,-5.1031,-5.0963,-5.0963,-5.0963,-5.0963,-5.0963,-5.0963,-5.0963,-5.0963,-5.0963,-5.0963,-5.0963,-5.0963,-5.0963,-5.0963,-5.0963,-5.076,-5.0084,-4.9965,-4.9746,-4.9103,-4.9001,-4.9001,-4.9001,-4.9001,-4.9001,-4.9001,-4.9001,-4.8321,-4.6662,-4.6424,-4.6341,-4.6236,-4.4006,-4.3744,-4.5963,-4.4,-4.2756,-4.2587,-4.2678,-4.1961,-4.0424,-4.0519,-4.0182,-3.9388,-3.9517,-3.961,-4.1412,-4.1335,0.0,0.0,-4.2421,-4.2574,-4.2878,-4.2946,-4.3064,-4.3521,-4.365,-4.365,-4.365,-4.3876,-4.4096,0.0,-4.4739,-4.5348,-4.5669,-4.6447,-4.7225,-4.7821,-4.802,-4.8376,-4.912,-4.9187,-4.961,-5.0659,-5.1133,-5.1505,-5.1826,-5.2587,-5.301,-5.301,-5.3331,-5.3501,-5.3501,-5.3501,-5.3501,-5.3501,-5.3501,-5.3501,-5.3501,-5.3501,-5.3501,-5.3501,-5.3501,-5.3501,-5.3501,-5.3501,-5.3501,-5.3501,-5.3501,-5.3501,-5.3433,-5.279,-5.2553,-5.2553,-5.2553,-5.2553,-5.2553,-5.2553,-5.2232,-5.1843,-5.1843,-5.1555,-5.1185,-5.1185,-5.1185,-5.1185,-5.1185,-5.1185,-5.1185,-5.1185,-5.1185,-5.1185,-5.1185,-5.1185,-5.1185,-5.1185,-5.1185,-5.1083,-5.0794,-5.0744,-5.049,-4.9746,-4.9272,-4.9001,-4.9001,-4.9001,-4.8798,-4.8257,-4.8193,-4.7655,-4.6314,-4.6208,-4.5977,-4.5431,-4.4384,-4.4042,-4.4611,-4.3615,-4.2872,-4.2515,-4.3042,-4.2536,-4.0965,-4.2012,-4.1638,-3.9993,-4.0491,-4.0258,-4.2255,0.0,0.0,-4.3261,-4.3589,-4.3741,-4.3741,-4.3741,-4.391,-4.4496,-4.4615,-4.4615,-4.4615,-4.4615,-4.4682,-4.4886,-4.5348,-4.5838,-4.6261,-4.7242,-4.7973,-4.8189,-4.8849,-4.9593,-5.0321,-5.0219,-5.049,-5.1437,-5.2012,-5.2401,-5.2621,-5.3179,-5.3501,-5.3501,-5.3501,-5.3501,-5.3501,-5.3501,-5.3501,-5.3501,-5.3501,-5.3501,-5.3501,-5.3501,-5.3501,-5.3501,-5.3501,-5.3501,-5.3501,-5.3501,-5.3501,-5.3501,-5.3501,-5.3501,-5.3501,-5.3501,-5.3501,-5.3501,-5.3501,-5.3501,-5.3501,-5.3501,-5.3112,-5.2638,-5.2638,-5.2266,-5.1843,-5.1843,-5.1843,-5.1843,-5.1843,-5.1843,-5.1843,-5.1843,-5.1843,-5.1843,-5.1843,-5.1843,-5.1843,-5.1843,-5.1843,-5.1775,-5.1555,-5.1522,-5.1251,-5.0507,-4.9949,-4.9458,-4.9052,-4.9001,-4.875,-4.8047,-4.7754,-4.7239,-4.6279,-4.5977,-4.5525,-4.4849,-4.4548,-4.4182,-4.3732,-4.3448,-4.3105,-4.2641,-4.3275,-4.294,-4.1692,-4.2958,-4.2566,-4.0703,-4.1319,-4.0933,0.0,0.0,-4.3208,-4.3352,-4.3995,-4.4564,-4.4564,-4.4564,-4.4581,-4.4598,-4.4615,-4.4615,-4.4615,-4.4615,-4.4852,-4.5551,-4.5703,-4.621,-4.7618,-4.7855,-4.8189,-4.8883,-4.961,-5.0355,0.0,-5.0524,-5.0693,-5.2164,-5.2283,-5.2638,-5.3416,-5.3501,-5.3501,-5.3501,-5.3501,-5.3501,-5.3501,-5.3501,-5.3501,-5.3501,-5.3501,-5.3501,-5.3501,-5.3501,-5.3501,-5.3501,-5.3501,-5.3501,-5.3501,-5.3501,-5.3501,-5.3501,-5.3501,-5.3501,-5.3501,-5.3501,-5.3501,-5.3501,-5.3501,-5.3501,-5.3501,-5.3501,-5.3484,-5.3467,-5.3467,-5.345,-5.3433,-5.3433,-5.3433,-5.3433,-5.3433,-5.3433,-5.3433,-5.3433,-5.3433,-5.3433,-5.3433,-5.3433,-5.3433,-5.3433,-5.3433,-5.3179,-5.2401,-5.2266,-5.2029,-5.1302,-5.1134,-5.0642,-4.9187,-4.9001,-4.9001,-4.897,-4.8144,-4.7239,-4.6279,-4.5358,-4.4849,-4.4812,-4.3888,-4.3771,-4.4699,-4.381,-4.329,-4.326,-4.3299,-4.3024,-4.2366,-4.2404,-4.2074,-4.1392,-4.1392,-4.1033,0.0,0.0,-4.3469,-4.405,-4.4412,-4.4615,-4.4615,-4.4615,-4.4615,-4.4615,-4.4615,-4.4615,-4.4615,-4.4993,-4.5415,-4.5669,-4.6532,-4.7344,-4.7821,-4.8342,-4.8731,-4.8968,-4.9644,0.0,0.0,0.0,0.0,-5.3027,-5.3095,-5.3213,-5.3501,-5.3501,-5.3501,-5.3501,-5.3501,-5.3501,-5.3501,-5.3501,-5.3501,-5.3501,-5.3501,-5.3501,-5.3501,-5.3501,-5.3501,-5.3501,-5.3501,-5.3501,-5.3501,-5.3501,-5.3501,-5.3501,-5.3501,-5.3501,-5.3501,-5.3501,-5.3501,-5.3501,-5.3501,-5.3501,-5.3501,-5.3501,-5.3501,-5.3501,-5.3501,-5.3501,-5.3501,-5.3501,-5.3501,-5.3501,-5.3501,-5.3501,-5.3501,-5.3501,-5.3501,-5.3501,-5.3501,-5.3501,-5.3501,-5.3501,-5.3501,-5.3416,-5.3145,-5.3095,-5.2841,-5.2063,-5.1099,-5.0287,-4.9779,-4.9306,-4.8513,-4.7273,-4.685,-4.6032,-4.4403,-4.3989,-4.381,-4.381,-4.3472,-4.3448,-4.3771,-4.3472,-4.329,-4.329,-4.329,-4.3185,-4.3015,-4.3015,-4.2671,-4.2066,-4.2066,-4.1707,0.0,-4.2844,-4.3578,-4.4412,-4.4615,-4.4615,-4.4615,-4.4615,-4.4615,-4.4615,-4.435,-4.4164,-4.4164,-4.457,-4.4976,-4.5263,-4.6329,-4.731,-4.7821,-4.8325,-4.8714,-4.8968,-4.9881,-5.0676,0.0,0.0,0.0,-5.3467,-5.3501,-5.3501,-5.3501,-5.3501,-5.3501,-5.3501,-5.3501,-5.3501,-5.3501,-5.3501,-5.3501,-5.3501,-5.3501,-5.3501,-5.3501,-5.3501,-5.3501,-5.3501,-5.3501,-5.3501,-5.3501,-5.3501,-5.3501,-5.3501,-5.3501,-5.3501,-5.3501,-5.3501,-5.3501,-5.3501,-5.3501,-5.3501,-5.3501,-5.3501,-5.3501,-5.3501,-5.3501,-5.3501,-5.3501,-5.3501,-5.3501,-5.3501,-5.3501,-5.3501,-5.3501,-5.3501,-5.3501,-5.3501,-5.3501,-5.3501,-5.3501,-5.3501,-5.3501,-5.3501,-5.3501,-5.3501,-5.3331,-5.2807,-5.1674,-5.0777,-5.0524,-4.9847,-4.8786,-4.7273,-4.658,-4.5545,-4.395,-4.3512,-4.329,-4.329,-4.329,-4.329,-4.329,-4.329,-4.329,-4.329,-4.329,-4.329,-4.329,-4.329,-4.312,-4.2701,-4.2701,-4.2396,-4.2151,-4.2912,-4.3656,-4.4429,-4.4615,-4.4615,-4.4615,-4.4615,-4.4598,-4.4564,-4.3927,-4.3375,0.0,0.0,-4.3775,-4.4547,-4.5331,-4.6363,-4.7753,-4.7939,-4.824,0.0,0.0,0.0,0.0,0.0,0.0,-5.3501,0.0,-5.3501,-5.3501,-5.3501,-5.3501,-5.3501,-5.3501,-5.3501,-5.3501,-5.3551,-5.3568,-5.3568,-5.3602,-5.3619,-5.3619,-5.3568,-5.3568,-5.3551,-5.3518,-5.3501,-5.3501,-5.3501,-5.3501,-5.3501,-5.3501,-5.3501,-5.3501,-5.3501,-5.3501,-5.3501,-5.3501,-5.3501,-5.3501,-5.3501,-5.3501,-5.3501,-5.3501,-5.3501,-5.3501,-5.3501,-5.3501,-5.3501,-5.3501,-5.3501,-5.3501,-5.3501,-5.3501,-5.3501,-5.3501,-5.3501,-5.3501,-5.3501,-5.3501,-5.3501,-5.3501,-5.3501,-5.3501,-5.3501,-5.2858,-5.2097,-5.1369,-5.0608,-4.9782,-4.8726,-4.7216,-4.5845,-4.4812,-4.3849,-4.329,-4.329,-4.329,-4.329,-4.329,-4.329,-4.329,-4.329,-4.329,-4.329,-4.329,-4.329,-4.329,-4.329,-4.329,-4.3,-4.2929,-4.369,-4.4333,-4.4564,-4.4615,-4.4615,-4.4615,-4.4615,-4.4445,-4.3826,-4.3527,-4.325,0.0,0.0,0.0,-4.5382,-4.6972,0.0,-4.868,-4.8731,0.0,-4.8984,0.0,-5.1185,-5.1185,-5.2604,0.0,0.0,-5.3501,-5.3501,-5.3501,-5.3501,-5.3501,-5.3501,-5.3501,-5.3501,-5.3501,-5.4042,-5.4313,-5.4329,-5.4888,-5.5158,-5.5141,-5.4566,-5.4313,-5.4279,-5.3737,-5.3501,-5.3501,-5.3501,-5.3501,-5.3501,-5.3501,-5.3501,-5.3501,-5.3501,-5.3501,-5.3501,-5.3501,-5.3501,-5.3501,-5.3501,-5.3501,-5.3501,-5.3501,-5.3501,-5.3501,-5.3501,-5.3501,-5.3501,-5.3501,-5.3501,-5.3501,-5.3501,-5.3501,-5.3501,-5.3501,-5.3501,-5.3501,-5.3501,-5.3501,-5.3501,-5.3501,-5.3501,-5.3501,-5.3501,-5.3331,-5.2909,-5.2131,-5.1386,-5.0075,-4.788,-4.7264,-4.6113,-4.3895,-4.3448,-4.329,-4.329,-4.329,-4.329,-4.329,-4.329,-4.329,-4.329,-4.329,-4.329,-4.329,-4.329,-4.329,-4.329,-4.329,-4.32,-4.3724,-4.4248,-4.4615,-4.4615,-4.4615,-4.4429,-4.3752,-4.3599,-4.3369,-4.2591,-4.2175,0.0,0.0,0.0,0.0,0.0,0.0,0.0,-4.8477,-4.8528,-4.8646,0.0,-5.0321,0.0,-5.1185,-5.2604,-5.3501,0.0,-5.3501,-5.3501,-5.3501,-5.3501,-5.3501,-5.3501,-5.3501,-5.3653,-5.3974,-5.438,-5.4752,-5.5091,-5.5513,-5.5681,-5.57,-5.5277,-5.4905,-5.4566,0.0,-5.3805,-5.3501,-5.3501,-5.3501,-5.3501,-5.3501,-5.3501,-5.3501,-5.3501,-5.3501,-5.3501,-5.3501,-5.3501,-5.3501,-5.3501,-5.3501,-5.3501,-5.3501,-5.3501,-5.3501,-5.3501,-5.3501,-5.3501,-5.3501,-5.3501,-5.3501,-5.3501,-5.3501,-5.3501,-5.3501,-5.3501,-5.3501,-5.3501,-5.3501,-5.3348,-5.287,-5.3195,-5.3348,-5.287,-5.28,-5.2633,-5.2182,-5.1479,-5.0318,-4.8409,-4.7501,-4.6135,-4.3928,-4.3723,-4.3604,-4.3305,-4.329,-4.329,-4.329,-4.329,-4.329,-4.329,-4.329,-4.329,-4.329,-4.329,-4.329,-4.329,-4.329,-4.329,-4.4401,-4.4615,-4.4615,-4.4615,-4.4615,-4.4209,-4.2642,-4.2371,-4.2168,-4.1255,0.0,-4.04,-4.095,-4.2269,-4.3335,-4.3538,0.0,-4.709,-4.7922,-4.8041,-4.8261,-4.8934,-5.0321,-5.1185,-5.1185,-5.2604,-5.3501,-5.3501,-5.3501,-5.3501,-5.3501,-5.3501,-5.3501,-5.3501,-5.3501,-5.3856,-5.4583,-5.4685,-5.5124,-5.5869,-5.5953,-5.6004,-5.6004,-5.5902,-5.5513,-5.4871,-5.4668,-5.4228,-5.3653,-5.3551,-5.3501,-5.3501,-5.3501,-5.3501,-5.3501,-5.3501,-5.3501,-5.3501,-5.3501,-5.3501,-5.3501,-5.3501,-5.3501,-5.3501,-5.3501,-5.3501,-5.3501,-5.3501,-5.3501,-5.3501,-5.3501,-5.3501,-5.3501,-5.3501,-5.3501,-5.3501,-5.3501,-5.3501,-5.3501,-5.3501,-5.3501,-5.3144,-5.2082,-5.2662,-5.2921,-5.1849,-5.1687,-5.1687,-5.1687,-5.1129,-5.0363,-4.9287,-4.7793,-4.6199,-4.4578,-4.4362,-4.4062,-4.3469,-4.3349,-4.329,-4.329,-4.329,-4.329,-4.329,-4.329,-4.329,-4.329,-4.329,-4.329,-4.329,-4.329,-4.329,-4.4564,-4.4615,-4.4615,-4.4615,-4.4615,-4.4209,-4.2642,-4.2777,0.0,0.0,0.0,-4.0865,-4.0383,-4.1491,0.0,-4.4164,0.0,0.0,0.0,0.0,-4.8866,0.0,0.0,0.0,0.0,0.0,0.0,0.0,0.0,-5.3501,-5.3501,-5.3501,-5.3501,-5.3501,-5.3501,-5.3856,-5.4583,-5.5209,-5.5886,-5.663,-5.7222,-5.7509,-5.7492,-5.6884,-5.6545,-5.6342,-5.5124,0.0,-5.4346,-5.3754,-5.3501,-5.3501,-5.3501,-5.3501,-5.3501,-5.3501,-5.3501,-5.3501,-5.3501,-5.3501,-5.3501,-5.3501,-5.3501,-5.3501,-5.3501,-5.3501,-5.3501,-5.3501,-5.3501,-5.3501,-5.3501,-5.3501,-5.3501,-5.3501,-5.3501,-5.3501,-5.3501,-5.3501,-5.3501,-5.3501,-5.3501,-5.3144,-5.2082,-5.2029,-5.1813,-5.0817,-5.0665,-5.0665,-5.0665,-5.0568,-4.9866,-4.8247,-4.7814,-4.6944,-4.5252,-4.4631,-4.4272,-4.4152,-4.3604,-4.329,-4.329,-4.329,-4.329,-4.329,-4.329,-4.329,-4.329,-4.329,-4.329,-4.329,-4.329,-4.329,-4.4615,-4.4253,-4.4035,-4.4485,-4.4253,-4.3449,-4.1582,0.0,0.0,0.0,0.0,-4.0054,-4.0096,0.0,0.0,0.0,0.0,0.0,0.0,0.0,0.0,0.0,0.0,0.0,0.0,0.0,0.0,0.0,0.0,-5.3501,-5.3501,-5.3501,-5.3501,-5.3501,-5.3501,-5.4042,-5.5158,-5.553,-5.6275,-5.7374,-5.7729,-5.7881,-5.7881,-5.7526,-5.6951,-5.619,-5.548,-5.4735,-5.3991,-5.3653,-5.3501,-5.3501,-5.3501,-5.3144,-5.2749,-5.3298,-5.3144,-5.2749,-5.3314,-5.3501,-5.3501,-5.3501,-5.3501,-5.3501,-5.3501,-5.3501,-5.3501,-5.3501,-5.3501,-5.3501,-5.3501,-5.3501,-5.3501,-5.3501,-5.3501,-5.3348,-5.2784,-5.2662,-5.2522,-5.199,-5.1882,-5.1557,-5.0458,-5.0763,-5.0779,-4.9734,-4.9575,-4.9575,-4.9575,-4.9125,-4.8691,-4.8335,-4.7845,-4.7092,-4.593,-4.5544,-4.5065,-4.4362,-4.4018,-4.3648,-4.3305,-4.329,-4.329,-4.329,-4.329,-4.329,-4.329,-4.329,-4.329,-4.329,-4.329,-4.329,-4.4564,-4.3977,-4.3502,-4.4384,-4.3931,-4.2725,-4.0592,-4.0663,0.0,0.0,-3.8481,-3.9249,-3.996,0.0,0.0,0.0,0.0,0.0,0.0,0.0,0.0,0.0,0.0,0.0,0.0,0.0,0.0,0.0,0.0,0.0,-5.3501,-5.3501,-5.3501,-5.3501,-5.3501,-5.4211,-5.57,-5.5681,-5.6444,-5.7881,-5.7881,-5.7881,-5.7881,-5.7729,-5.7036,-5.5936,-5.5615,-5.4699,-5.3363,-5.3212,-5.3041,-5.2852,-5.2852,-5.2329,-5.1704,-5.2765,-5.2627,-5.2029,-5.287,-5.3144,-5.3144,-5.3144,-5.3314,-5.3501,-5.3501,-5.3501,-5.3501,-5.3501,-5.3501,-5.3501,-5.3501,-5.3348,-5.3144,-5.3144,-5.299,-5.2679,-5.2046,-5.1724,-5.134,-5.055,-5.0397,-5.0048,-4.8988,-4.9496,-4.9694,-4.8636,-4.8486,-4.8486,-4.8486,-4.7807,-4.7609,-4.8403,-4.7764,-4.71,-4.6576,-4.6369,-4.5813,-4.4601,-4.4392,-4.4018,-4.3319,-4.329,-4.329,-4.329,-4.329,-4.329,-4.329,-4.329,-4.329,-4.329,-4.329,-4.329,-4.4412,-4.3977,-4.3502,-4.4384,-4.3931,-4.2741,-4.06,0.0,0.0,-3.8362,-3.8481,-3.9249,-3.996,-4.0214,0.0,0.0,0.0,0.0,0.0,0.0,0.0,0.0,0.0,0.0,0.0,0.0,0.0,0.0,0.0,0.0,-5.3501,-5.3501,-5.3501,-5.3501,-5.3501,-5.4211,-5.57,-5.5681,-5.6444,-5.7881,-5.7881,-5.7881,-5.7865,-5.7205,-5.6833,-5.663,-5.5277,-5.408,0.0,-5.2329,-5.1504,-5.0681,-5.0681,-5.0627,-5.0665,-5.1651,-5.1993,-5.1921,-5.1993,-5.2046,-5.2046,-5.2046,-5.2714,-5.3501,-5.3501,-5.3501,-5.3501,-5.3501,-5.3501,-5.3501,-5.3501,-5.2784,-5.2046,-5.2046,-5.1357,-5.0908,-5.1724,-5.1192,-5.0512,-5.0397,-5.0397,-5.0048,-4.8988,-4.8866,-4.8594,-4.7566,-4.7424,-4.7424,-4.7424,-4.7337,-4.7352,-4.7424,-4.7337,-4.7279,-4.7219,-4.6666,-4.6007,-4.5244,-4.4646,-4.4018,-4.3319,-4.329,-4.329,-4.329,-4.329,-4.329,-4.329,-4.329,-4.329,-4.329,-4.329,-4.329,-4.3731,-4.3199,-4.2614,-4.2953,-4.2087,-4.0796,-3.96,0.0,0.0,-3.8164,-3.8481,-3.9249,-3.996,-4.0096,-4.0299,0.0,0.0,0.0,0.0,0.0,0.0,0.0,0.0,0.0,0.0,0.0,0.0,0.0,0.0,0.0,-5.2557,-5.3144,-5.3501,-5.3501,-5.3501,-5.4008,-5.5023,-5.504,-5.5564,-5.6579,-5.6579,-5.6579,-5.6579,-5.6275,-5.5902,-5.5394,-5.4157,-5.3125,0.0,-5.138,-5.0741,-5.0397,-5.0397,-5.0009,-4.9575,-5.0627,-5.0573,-5.0149,-5.0763,-5.1005,-5.1005,-5.1005,-5.1283,-5.1882,-5.311,-5.3501,-5.3501,-5.3501,-5.3025,-5.2557,-5.2557,-5.1776,-5.1005,-5.1005,-5.0703,-5.032,-5.011,-4.9718,-4.9271,-4.8666,-4.8543,-4.8392,-4.7946,-4.7919,-4.7764,-4.7337,-4.7309,-4.7309,-4.7309,-4.7309,-4.7309,-4.7309,-4.7309,-4.7309,-4.7309,-4.707,-4.6456,-4.5364,-4.505,-4.4436,-4.3334,-4.329,-4.329,-4.329,-4.329,-4.329,-4.329,-4.329,-4.329,-4.329,-4.329,-4.329,-4.2703,-4.2327,-4.1997,-4.1997,-4.0859,-3.9483,0.0,0.0,0.0,-3.7727,-3.8156,-3.8954,-3.9926,-4.0096,-4.0096,0.0,0.0,0.0,0.0,0.0,0.0,0.0,0.0,0.0,0.0,0.0,0.0,0.0,0.0,0.0,-5.1957,-5.2627,-5.287,-5.2574,-5.287,-5.3377,-5.4134,-5.3835,-5.4362,-5.5681,-5.5383,-5.5383,-5.5681,-5.548,-5.4934,-5.4082,-5.3105,-5.202,0.0,-5.0227,-4.9734,-4.9472,-4.9472,-4.9004,-4.8486,-4.9536,-4.9456,-4.8907,-4.9655,-4.9931,-4.9931,-4.9931,-4.9931,-5.0242,-5.2026,-5.2574,-5.2574,-5.2574,-5.2062,-5.1377,-5.108,-5.0458,-4.9931,-4.9931,-4.9694,-4.9352,-4.8907,-4.8553,-4.8141,-4.7424,-4.7309,-4.7309,-4.7309,-4.7309,-4.7309,-4.7309,-4.7309,-4.7309,-4.7309,-4.7309,-4.7309,-4.7309,-4.7309,-4.7309,-4.7309,-4.7309,-4.6726,-4.5379,-4.5289,-4.4706,-4.3349,-4.329,-4.329,-4.329,-4.329,-4.329,-4.329,-4.329,-4.329,-4.329,-4.329,-4.329,-4.1257,-4.1501,-4.1997,-4.1997,-4.0859,-3.9353,0.0,0.0,-3.763,-3.6949,-3.7409,-3.8362,-3.9842,-4.0096,-4.0096,-4.0096,0.0,0.0,0.0,0.0,0.0,0.0,0.0,0.0,0.0,0.0,0.0,0.0,0.0,0.0,-5.1957,-5.1921,-5.1467,-5.0435,-5.1394,-5.2251,-5.2996,-5.2041,-5.2926,-5.5681,-5.4595,-5.4685,-5.57,-5.4938,-5.4028,-5.2979,-5.2234,-5.0725,0.0,-4.8825,-4.8225,-4.7337,-4.7337,-4.7352,-4.7424,-4.8444,-4.8825,-4.8784,-4.8825,-4.8825,-4.8825,-4.8825,-4.8825,-4.9029,-5.0087,-5.0435,-5.0435,-5.0435,-5.0397,-5.0165,-4.911,-4.8825,-4.8825,-4.8825,-4.8072,-4.7609,-4.8594,-4.803,-4.7294,-4.7309,-4.7309,-4.7309,-4.7309,-4.7309,-4.7309,-4.7309,-4.7309,-4.7309,-4.7309,-4.7309,-4.7309,-4.7309,-4.7309,-4.7309,-4.7309,-4.7309,-4.6726,-4.5379,-4.5289,-4.4706,-4.3349,-4.329,-4.329,-4.329,-4.329,-4.329,-4.329,-4.329,-4.329,-4.329,-4.329,-4.329,-3.9637,-3.9678,-3.9559,-3.8482,-3.7869,-3.7291,-3.6469,0.0,-3.6255,-3.6083,-3.7034,-3.821,-3.9157,-3.9757,-4.0282,-4.0764,0.0,0.0,0.0,0.0,0.0,0.0,0.0,0.0,0.0,0.0,0.0,0.0,0.0,0.0,-4.9876,-5.0458,-5.0741,-5.0413,-5.0703,-5.1005,-5.1215,-5.0926,-5.1192,-5.2079,-5.2413,-5.2413,-5.2079,-5.2528,-5.2178,-5.1177,-5.0206,-4.94,-4.8759,-4.8072,-4.7566,-4.7309,-4.7309,-4.7309,-4.7337,-4.7651,-4.7749,-4.7749,-4.7749,-4.7749,-4.7749,-4.7749,-4.7749,-4.7849,-4.8198,-4.9287,-5.0242,-4.9496,-4.9296,-4.9069,-4.803,-4.7749,-4.7749,-4.7749,-4.7538,-4.7381,-4.7722,-4.7538,-4.7309,-4.7309,-4.7309,-4.7309,-4.7309,-4.7309,-4.7309,-4.7309,-4.7309,-4.7309,-4.7309,-4.7309,-4.7309,-4.7309,-4.7309,-4.7309,-4.7309,-4.689,-4.6247,-4.5349,-4.487,-4.4242,-4.3334,-4.329,-4.329,-4.329,-4.329,-4.329,-4.329,-4.329,-4.329,-4.329,-4.329,-4.329,0.0,-3.763,-3.7801,-3.677,-3.6104,0.0,0.0,0.0,-3.49,-3.5235,-3.6249,-3.7472,-3.8777,-3.9385,-3.9943,-4.0663,0.0,0.0,0.0,0.0,0.0,0.0,0.0,0.0,0.0,0.0,0.0,0.0,0.0,0.0,-4.8907,-4.9416,-4.9631,-4.9247,-4.9591,-4.9813,-4.9813,-4.9432,-4.9631,-5.0397,-5.0611,-5.0611,-5.0397,-5.1043,-5.0763,-4.9773,-4.9094,-4.8594,0.0,-4.7581,-4.7309,-4.7309,-4.7309,-4.7309,-4.7309,-4.7309,-4.7309,-4.7309,-4.7309,-4.7309,-4.7309,-4.7309,-4.7309,-4.7309,-4.7309,-4.8198,-4.9085,-4.8418,-4.821,-4.8099,-4.7452,-4.7309,-4.7309,-4.7309,-4.7309,-4.7309,-4.7309,-4.7309,-4.7309,-4.7309,-4.7309,-4.7309,-4.7309,-4.7309,-4.7309,-4.7309,-4.7309,-4.7309,-4.7309,-4.7309,-4.7309,-4.7309,-4.7085,-4.6935,-4.6935,-4.6561,-4.5933,-4.499,-4.4541,-4.4018,-4.3319,-4.329,-4.329,-4.329,-4.329,-4.329,-4.329,-4.329,-4.329,-4.329,-4.329,-4.329,0.0,0.0,0.0,0.0,0.0,0.0,0.0,0.0,0.0,-3.4468,-3.5152,-3.6257,-3.8377,-3.8854,0.0,0.0,0.0,0.0,0.0,0.0,0.0,0.0,0.0,0.0,0.0,0.0,0.0,0.0,0.0,0.0,-4.8759,-4.8677,-4.8252,-4.7352,-4.8225,-4.8677,-4.8677,-4.7764,-4.8282,-5.0181,-4.9215,-4.9296,-5.0165,-5.0242,-4.9694,0.0,-4.8677,-4.8183,-4.7309,-4.7309,-4.7309,-4.7309,-4.7309,-4.7309,-4.7309,-4.7309,-4.7309,-4.7309,-4.7309,-4.7309,-4.7309,-4.7309,-4.7309,-4.7309,-4.7309,-4.7309,-4.7309,-4.7309,-4.7309,-4.7309,-4.7309,-4.7309,-4.7309,-4.7309,-4.7309,-4.7309,-4.7309,-4.7309,-4.7309,-4.7309,-4.7309,-4.7309,-4.7309,-4.7309,-4.7309,-4.7309,-4.7309,-4.7309,-4.7309,-4.7309,-4.7294,-4.7234,-4.6696,-4.6249,-4.6145,-4.6145,-4.5648,-4.4392,-4.4272,-4.3932,-4.3319,-4.329,-4.329,-4.329,-4.329,-4.329,-4.329,-4.329,-4.329,-4.329,-4.329,-4.329,-3.2167,0.0,-3.4151,-3.3627,0.0,0.0,0.0,0.0,0.0,0.0,0.0,0.0,0.0,0.0,0.0,0.0,0.0,0.0,0.0,0.0,0.0,0.0,0.0,0.0,0.0,0.0,0.0,0.0,0.0,-4.8718,-4.7722,-4.7651,-4.7523,-4.7309,-4.7538,-4.7651,-4.7651,-4.7424,-4.7538,-4.8046,-4.8569,-4.8527,-4.8046,-4.8841,-4.861,-4.7651,-4.7651,-4.7538,-4.7309,-4.7309,-4.7309,-4.7309,-4.7309,-4.7309,-4.7309,-4.7309,-4.7309,-4.7309,-4.7309,-4.7309,-4.7309,-4.7309,-4.7309,-4.7309,-4.7309,-4.7309,-4.7309,-4.7309,-4.7309,-4.7309,-4.7309,-4.7309,-4.7309,-4.7309,-4.7309,-4.7309,-4.7309,-4.7309,-4.7309,-4.7309,-4.7309,-4.7309,-4.7309,-4.7309,-4.7309,-4.7309,-4.7309,-4.7309,-4.7309,-4.7309,-4.7115,-4.6606,-4.6369,-4.5861,-4.487,-4.4781,-4.4661,-4.4332,-4.3838,-4.3454,-4.3305,-4.329,-4.329,-4.329,-4.329,-4.329,-4.329,-4.329,-4.329,-4.329,-4.329,-4.329,-3.1511,-3.2264,-3.3047,-3.3017,-3.3048,-3.3075,0.0,0.0,0.0,0.0,0.0,0.0,0.0,0.0,0.0,0.0,0.0,0.0,0.0,0.0,0.0,0.0,0.0,0.0,0.0,0.0,0.0,0.0,0.0,-4.7876,-4.7352,-4.7309,-4.7309,-4.7309,-4.7309,-4.7309,-4.7309,-4.7309,-4.7309,-4.7309,-4.7834,-4.7849,-4.7309,-4.7876,-4.7792,-4.7309,-4.7309,-4.7309,-4.7309,-4.7309,-4.7309,-4.7309,-4.7309,-4.7309,-4.7309,-4.7309,-4.7309,-4.7309,-4.7309,-4.7309,-4.7309,-4.7309,-4.7309,-4.7309,-4.7309,-4.7309,-4.7309,-4.7309,-4.7309,-4.7309,-4.7309,-4.7309,-4.7309,-4.7309,-4.7309,-4.7309,-4.7309,-4.7309,-4.7309,-4.7309,-4.7309,-4.7309,-4.7309,-4.7309,-4.7309,-4.7309,-4.7309,-4.7309,-4.7309,-4.704,-4.6711,-4.6324,-4.5768,-4.511,-4.4377,-4.4032,-4.3828,-4.3828,-4.3484,-4.329,-4.329,-4.329,-4.329,-4.329,-4.329,-4.329,-4.329,-4.329,-4.329,-4.329,-4.329,-4.329,-3.163,-3.2213,-3.2871,-3.3133,-3.2846,-3.2615,0.0,0.0,0.0,0.0,0.0,0.0,0.0,0.0,0.0,0.0,0.0,0.0,0.0,0.0,0.0,0.0,0.0,0.0,0.0,0.0,0.0,0.0,0.0,-4.7309,-4.7309,-4.7309,-4.7309,-4.7309,-4.7309,-4.7309,-4.7309,-4.7309,-4.7309,-4.7309,-4.7309,-4.7309,-4.7309,-4.7309,-4.7309,-4.7309,0.0,0.0,-4.7309,-4.7309,-4.7309,-4.7309,-4.7309,-4.7309,-4.7309,-4.7309,-4.7309,-4.7309,-4.7309,-4.7309,-4.7309,-4.7309,-4.7309,-4.7309,-4.7309,-4.7309,-4.7309,-4.7309,-4.7309,-4.7309,-4.7309,-4.7309,-4.7309,-4.7309,-4.7309,-4.7309,-4.7309,-4.7309,-4.7309,-4.7309,-4.7309,-4.7309,-4.7309,-4.7309,-4.7309,-4.7309,-4.7309,-4.7264,-4.7174,-4.6666,-4.6204,-4.5995,-4.5005,-4.4272,-4.4167,-4.3618,-4.329,-4.329,-4.329,-4.329,-4.329,-4.329,-4.329,-4.329,-4.329,-4.329,-4.329,-4.329,-4.329,-4.329,-4.329,-4.329,-3.2183,-3.3245,-3.38,-3.2195,-3.2152,-3.2362,0.0,0.0,0.0,0.0,0.0,0.0,0.0,0.0,0.0,0.0,0.0,0.0,0.0,0.0,0.0,0.0,0.0,0.0,0.0,0.0,0.0,0.0,0.0,-4.7309,-4.7309,-4.7309,-4.7309,-4.7309,-4.7309,-4.7309,-4.7309,-4.7309,-4.7309,-4.7309,-4.7309,-4.7309,-4.7309,-4.7309,-4.7309,-4.7309,0.0,-4.7309,-4.7309,-4.7309,-4.7309,-4.7309,-4.7309,-4.7309,-4.7309,-4.7309,-4.7309,-4.7309,-4.7309,-4.7309,-4.7309,-4.7309,-4.7309,-4.7309,-4.7309,-4.7309,-4.7309,-4.7309,-4.7309,-4.7309,-4.7309,-4.7309,-4.7309,-4.7309,-4.7309,-4.7309,-4.7309,-4.7309,-4.7309,-4.7309,-4.7309,-4.7309,-4.7309,-4.7309,-4.7309,-4.7309,-4.7309,-4.71,-4.6546,-4.6339,-4.5888,-4.4751,-4.4436,-4.4092,-4.3484,-4.3349,-4.329,-4.329,-4.329,-4.329,-4.329,-4.329,-4.329,-4.329,-4.329,-4.329,-4.329,-4.329,-4.329,-4.329,-4.329,-4.329,-3.1869,-3.2677,-3.3275,-3.2736,-3.3634,-3.4577,0.0,0.0,0.0,0.0,0.0,0.0,0.0,0.0,0.0,0.0,0.0,0.0,0.0,0.0,0.0,0.0,0.0,0.0,0.0,0.0,0.0,0.0,0.0,0.0,-4.7309,-4.7309,-4.7309,-4.7309,-4.7309,-4.7309,-4.7309,-4.7309,-4.7309,-4.7309,-4.7309,-4.7309,-4.7309,-4.7309,-4.7309,-4.7309,0.0,-4.7309,-4.7309,-4.7309,-4.7309,-4.7309,-4.7309,-4.7309,-4.7309,-4.7309,-4.7309,-4.7309,-4.7309,-4.7309,-4.7309,-4.7309,-4.7309,-4.7309,-4.7309,-4.7309,-4.7309,-4.7309,-4.7309,-4.7309,-4.7309,-4.7309,-4.7309,-4.7309,-4.7309,-4.7309,-4.7309,-4.7309,-4.7309,-4.7309,-4.7309,-4.7309,-4.7309,-4.7309,-4.7309,-4.7309,-4.6995,-4.6666,-4.6324,-4.5693,-4.5005,-4.4392,-4.4003,-4.3618,-4.3319,-4.329,-4.329,-4.329,-4.329,-4.329,-4.329,-4.329,-4.329,-4.329,-4.329,-4.329,-4.329,-4.329,-4.329,-4.329,-4.329,-4.329,-3.169,-3.2213,-3.2901,-3.3559,0.0,-3.5684,0.0,0.0,0.0,0.0,0.0,0.0,0.0,0.0,0.0,0.0,0.0,0.0,0.0,0.0,0.0,0.0,0.0,0.0,0.0,0.0,0.0,0.0,0.0,0.0,-4.7309,-4.7309,-4.7309,-4.7309,-4.7309,-4.7309,-4.7309,-4.7309,-4.7309,-4.7309,-4.7309,-4.7309,-4.7309,-4.7309,-4.7309,-4.7309,-4.7309,-4.7309,-4.7309,-4.7309,-4.7309,-4.7309,-4.7309,-4.7309,-4.7309,-4.7309,-4.7309,-4.7309,-4.7309,-4.7309,-4.7309,-4.7309,-4.7309,-4.7309,-4.7309,-4.7309,-4.7309,-4.7309,-4.7309,-4.7309,-4.7309,-4.7309,-4.7309,-4.7309,-4.7309,-4.7309,-4.7309,-4.7309,-4.7309,-4.7309,-4.7309,-4.7309,-4.7309,-4.7309,-4.7249,-4.71,-4.6651,-4.6217,-4.5846,-4.496,-4.4257,-4.4067,-4.3604,-4.329,-4.329,-4.329,-4.329,-4.329,-4.329,-4.329,-4.329,-4.329,-4.329,-4.329,-4.329,-4.329,-4.329,-4.329,-4.329,-4.329,-4.329,-4.329,-3.2243,-3.2916,-3.3589,-3.4279,0.0,0.0,0.0,0.0,0.0,0.0,0.0,0.0,0.0,0.0,0.0,0.0,0.0,0.0,0.0,0.0,0.0,0.0,0.0,0.0,0.0,0.0,0.0,0.0,0.0,0.0,-4.7309,-4.7309,-4.7309,-4.7309,-4.7309,-4.7309,-4.7309,-4.7309,-4.7309,-4.7309,-4.7309,-4.7309,-4.7309,-4.7309,-4.7309,-4.7309,-4.7309,-4.7309,-4.7309,-4.7309,-4.7309,-4.7309,-4.7309,-4.7309,-4.7309,-4.7309,-4.7309,-4.7309,-4.7309,-4.7309,-4.7309,-4.7309,-4.7309,-4.7309,-4.7309,-4.7309,-4.7309,-4.7309,-4.7309,-4.7309,-4.7309,-4.7309,-4.7309,-4.7309,-4.7309,-4.7309,-4.7309,-4.7309,-4.7309,-4.7309,-4.7309,-4.7309,-4.7309,-4.7309,-4.71,-4.6486,-4.6309,-4.5831,-4.4616,-4.4377,-4.4077,-4.3424,-4.3319,-4.329,-4.329,-4.329,-4.329,-4.329,-4.329,-4.329,-4.329,-4.329,-4.329,-4.329,-4.329,-4.329,-4.329,-4.329,-4.329,-4.329,-4.329,-4.329,-3.1809,-3.2677,-3.3649,-3.4339,0.0,0.0,0.0,0.0,0.0,0.0,0.0,0.0,0.0,0.0,0.0,0.0,0.0,0.0,0.0,0.0,0.0,0.0,0.0,0.0,0.0,0.0,0.0,0.0,0.0,0.0,-4.7309,-4.7309,-4.7309,-4.7309,-4.7309,-4.7309,-4.7309,-4.7309,-4.7309,-4.7309,-4.7309,-4.7309,-4.7309,-4.7309,-4.7309,-4.7309,-4.7309,-4.7309,-4.7309,-4.7309,-4.7309,-4.7309,-4.7309,-4.7309,-4.7309,-4.7309,-4.7309,-4.7309,-4.7309,-4.7309,-4.7309,-4.7309,-4.7309,-4.7309,-4.7309,-4.7309,-4.7309,-4.7309,-4.7309,-4.7309,-4.7309,-4.7309,-4.7309,-4.7309,-4.7309,-4.7309,-4.7309,-4.7309,-4.7309,-4.7309,-4.7309,-4.7309,-4.7309,-4.6965,-4.6606,-4.6324,-4.5577,-4.4885,-4.4392,-4.3958,-4.3559,-4.3319,-4.329,-4.329,-4.329,-4.329,-4.329,-4.329,-4.329,-4.329,-4.329,-4.329,-4.329,-4.329,-4.329,-4.329,-4.329,-4.329,-4.329,-4.329,-4.329,-4.329,-3.1809,-3.2647,-3.3649,0.0,0.0,0.0,0.0,0.0,0.0,0.0,0.0,0.0,0.0,0.0,0.0,0.0,0.0,0.0,0.0,0.0,0.0,0.0,0.0,0.0,0.0,0.0,0.0,0.0,0.0,0.0,0.0,-4.7309,-4.7309,-4.7309,-4.7309,-4.7309,-4.7309,-4.7309,-4.7309,-4.7309,-4.7309,-4.7309,-4.7309,-4.7309,-4.7309,-4.7309,-4.7309,-4.7309,-4.7309,-4.7309,-4.7309,-4.7309,-4.7309,-4.7309,-4.7309,-4.7309,-4.7309,-4.7309,-4.7309,-4.7309,-4.7309,-4.7309,-4.7309,-4.7309,-4.7309,-4.7309,-4.7309,-4.7309,-4.7309,-4.7309,-4.7309,-4.7309,-4.7309,-4.7309,-4.7309,-4.7309,-4.7309,-4.7309,-4.7309,-4.7309,-4.7309,-4.7234,-4.704,-4.6621,-4.6145,-4.5711,-4.49,-4.4242,-4.3992,-4.3574,-4.329,-4.329,-4.329,-4.329,-4.329,-4.329,-4.329,-4.329,-4.329,-4.329,-4.329,-4.329,-4.329,-4.329,-4.329,-4.329,-4.329,-4.329,-4.329,-4.329,-4.329,-4.329,-3.2497,-3.3006,0.0,0.0,0.0,0.0,0.0,0.0,0.0,0.0,0.0,0.0,0.0,0.0,0.0,0.0,0.0,0.0,0.0,0.0,0.0,0.0,0.0,0.0,0.0,0.0,0.0,0.0,0.0,0.0,0.0,-4.7279,-4.7279,-4.7279,-4.7279,-4.7279,-4.7279,-4.7279,-4.7279,-4.7279,-4.7279,-4.7294,-4.7309,-4.7309,-4.7309,-4.7309,-4.7309,-4.7309,-4.7309,-4.7309,-4.7309,-4.7309,-4.7309,-4.7309,-4.7309,-4.7309,-4.7309,-4.7309,-4.7309,-4.7309,-4.7309,-4.7309,-4.7309,-4.7309,-4.7309,-4.7309,-4.7309,-4.7309,-4.7309,-4.7309,-4.7309,-4.7309,-4.7309,-4.7309,-4.7309,-4.7309,-4.7309,-4.7309,-4.7309,-4.7309,-4.7294,-4.7085,-4.6384,-4.6264,-4.5816,-4.4511,-4.4302,-4.4062,-4.3379,-4.329,-4.329,-4.329,-4.329,-4.329,-4.329,-4.329,-4.329,-4.329,-4.329,-4.329,-4.329,-4.329,-4.329,-4.329,-4.329,-4.329,-4.329,-4.329,-4.329,-4.329,-4.329,-4.329,-3.1795,0.0,0.0,0.0,0.0,0.0,0.0,0.0,0.0,0.0,0.0,0.0,0.0,0.0,0.0,0.0,0.0,0.0,0.0,0.0,0.0,0.0,0.0,0.0,0.0,0.0,0.0,0.0,0.0,0.0,0.0,-4.5888,-4.5888,-4.5888,-4.5888,-4.5888,-4.5888,-4.5888,-4.5888,-4.5888,-4.5888,-4.6381,-4.7309,-4.7309,-4.7309,-4.7309,-4.7309,-4.7309,-4.7309,-4.7309,-4.7309,-4.7309,-4.7309,-4.7309,-4.7309,-4.7309,-4.7309,-4.7309,-4.7309,-4.7309,-4.7309,-4.7309,-4.7309,-4.7309,-4.7309,-4.7309,-4.7309,-4.7309,-4.7309,-4.7309,-4.7309,-4.7309,-4.7309,-4.7309,-4.7309,-4.7309,-4.7309,-4.7309,-4.7309,-4.7309,-4.6935,-4.6503,-4.6309,-4.5502,-4.4781,-4.4377,-4.3888,-4.3514,-4.3319,-4.329,-4.329,-4.329,-4.329,-4.329,-4.329,-4.329,-4.329,-4.329,-4.329,-4.329,-4.329,-4.329,-4.329,-4.329,-4.329,-4.329,-4.329,-4.329,-4.329,-4.329,-4.329,-4.329,-3.2931,0.0,0.0,0.0,0.0,0.0,0.0,0.0,0.0,0.0,0.0,0.0,0.0,0.0,0.0,0.0,0.0,0.0,0.0,0.0,0.0,0.0,0.0,0.0,0.0,0.0,0.0,0.0,0.0,0.0,0.0,-4.5289,-4.5289,-4.5289,-4.5289,-4.5289,-4.5289,-4.5289,-4.5289,-4.5289,-4.5289,-4.5723,-4.6501,-4.6501,-4.6651,-4.6935,-4.7189,-4.7309,-4.7309,-4.7309,-4.7309,-4.7309,-4.7309,-4.7309,-4.7309,-4.7309,-4.7309,-4.7309,-4.7309,-4.7309,-4.7309,-4.7309,-4.7309,-4.7309,-4.7309,-4.7309,-4.7309,-4.7309,-4.7309,-4.7309,-4.7309,-4.7309,-4.7309,-4.7309,-4.7309,-4.7309,-4.7309,-4.7309,-4.7234,-4.6965,-4.6591,-4.6115,-4.5618,-4.4855,-4.4227,-4.3958,-4.3544,-4.329,-4.329,-4.329,-4.329,-4.329,-4.329,-4.329,-4.329,-4.329,-4.329,-4.329,-4.329,-4.329,-4.329,-4.329,-4.329,-4.329,-4.329,-4.329,-4.329,-4.329,-4.329,-4.329,-4.329,-4.329,0.0,0.0,0.0,0.0,0.0,0.0,0.0,0.0,0.0,0.0,0.0,0.0,0.0,0.0,0.0,0.0,0.0,0.0,0.0,0.0,0.0,0.0,0.0,0.0,0.0,0.0,0.0,0.0,0.0,0.0,-4.5095,-4.511,-4.511,-4.511,-4.511,-4.511,-4.511,-4.511,-4.511,-4.511,-4.511,-4.511,-4.5125,-4.5244,-4.5633,-4.6219,-4.686,-4.716,-4.7219,-4.7219,-4.7249,-4.7309,-4.7309,-4.7309,-4.7309,-4.7309,-4.7309,-4.7309,-4.7309,-4.7309,-4.7309,-4.7309,-4.7309,-4.7309,-4.7309,-4.7309,-4.7309,-4.7309,-4.7309,-4.7309,-4.7309,-4.7309,-4.7309,-4.7309,-4.7309,-4.7309,-4.7309,-4.7249,-4.704,-4.6441,-4.619,-4.5711,-4.4526,-4.4272,-4.4018,-4.3379,-4.329,-4.329,-4.329,-4.329,-4.329,-4.329,-4.329,-4.329,-4.329,-4.329,-4.329,-4.329,-4.329,-4.329,-4.329,-4.329,-4.329,-4.329,-4.329,-4.329,-4.329,-4.329,-4.329,-4.329,-4.329,-4.329,0.0,0.0,0.0,0.0,0.0,0.0,0.0,0.0,0.0,0.0,0.0,0.0,0.0,0.0,0.0,0.0,0.0,0.0,0.0,0.0,0.0,0.0,0.0,0.0,0.0,0.0,0.0,0.0,0.0,0.0,-4.3708,-4.3708,-4.3708,-4.3708,-4.3708,-4.3708,-4.3708,-4.3708,-4.3708,-4.3708,-4.3708,-4.3708,-4.3753,-4.4825,-4.5379,-4.5529,-4.5663,-4.6037,-4.6531,-4.6531,-4.6845,-4.7309,-4.7309,-4.7309,-4.7309,-4.7309,-4.7309,-4.7309,-4.7309,-4.7309,-4.7309,-4.7309,-4.7309,-4.7309,-4.7309,-4.7309,-4.7309,-4.7309,-4.7309,-4.7309,-4.7309,-4.7309,-4.7309,-4.7309,-4.7309,-4.7309,-4.7309,-4.6905,-4.6444,-4.6309,-4.5427,-4.4661,-4.4362,-4.3843,-4.3454,-4.3319,-4.329,-4.329,-4.329,-4.329,-4.329,-4.329,-4.329,-4.329,-4.329,-4.329,-4.329,-4.329,-4.329,-4.329,-4.329,-4.329,-4.329,-4.329,-4.329,-4.329,-4.329,-4.329,-4.329,-4.329,-4.329,-4.329,0.0,0.0,0.0,0.0,0.0,0.0,0.0,0.0,0.0,0.0,0.0,0.0,0.0,0.0,0.0,0.0,0.0,0.0,0.0,0.0,0.0,0.0,0.0,0.0,0.0,0.0,0.0,0.0,0.0,-4.329,-4.329,-4.329,-4.329,-4.329,-4.329,-4.329,-4.329,-4.329,-4.329,-4.329,-4.329,-4.329,-4.3319,-4.4362,-4.4825,-4.484,-4.5155,-4.5499,-4.5828,-4.5828,-4.6232,-4.683,-4.683,-4.7025,-4.7309,-4.7309,-4.7309,-4.7309,-4.7309,-4.7309,-4.7309,-4.7309,-4.7309,-4.7309,-4.7309,-4.7309,-4.7309,-4.7309,-4.7309,-4.7309,-4.7309,-4.7309,-4.7234,-4.692,-4.707,-4.7219,-4.6905,-4.6576,-4.6085,-4.5484,-4.4796,-4.4212,-4.3898,-4.3529,-4.329,-4.329,-4.329,-4.329,-4.329,-4.329,-4.329,-4.329,-4.329,-4.329,-4.329,-4.329,-4.329,-4.329,-4.329,-4.329,-4.329,-4.329,-4.329,-4.329,-4.329,-4.329,-4.329,-4.329,-4.329,-4.329,-4.329,-4.329,0.0,0.0,0.0,0.0,0.0,0.0,0.0,0.0,0.0,0.0,0.0,0.0,0.0,0.0,0.0,0.0,0.0,0.0,0.0,0.0,0.0,0.0,0.0,0.0,0.0,0.0,0.0,0.0,-4.329,-4.329,-4.329,-4.329,-4.329,-4.329,-4.329,-4.329,-4.329,-4.329,-4.329,-4.329,-4.329,-4.329,-4.3319,-4.3858,-4.4152,-4.4182,-4.4721,-4.502,-4.5125,-4.5125,-4.5529,-4.6142,-4.6142,-4.6561,-4.713,-4.713,-4.7204,-4.7309,-4.7309,-4.7309,-4.7309,-4.7309,-4.7309,-4.7309,-4.7309,-4.7309,-4.7309,-4.7309,-4.7309,-4.7279,-4.7174,-4.713,-4.6965,-4.6307,-4.6561,-4.68,-4.6262,-4.6052,-4.5648,-4.4526,-4.4227,-4.3932,-4.3394,-4.329,-4.329,-4.329,-4.329,-4.329,-4.329,-4.329,-4.329,-4.329,-4.329,-4.329,-4.329,-4.329,-4.329,-4.329,-4.329,-4.329,-4.329,-4.329,-4.329,-4.329,-4.329,-4.329,-4.329,-4.329,-4.329,-4.329,-4.329,-4.329,0.0,0.0,0.0,0.0,0.0,0.0,0.0,0.0,0.0,0.0,0.0,0.0,0.0,0.0,0.0,0.0,0.0,0.0,0.0,0.0,0.0,0.0,0.0,0.0,0.0,0.0,0.0,0.0,-4.329,-4.329,-4.329,-4.329,-4.329,-4.329,-4.329,-4.329,-4.329,-4.329,-4.329,-4.329,-4.329,-4.329,-4.329,-4.3379,-4.3424,-4.3424,-4.3514,-4.3888,-4.4451,-4.4451,-4.484,-4.5424,-4.5424,-4.5843,-4.6414,-4.6414,-4.6815,-4.7309,-4.7309,-4.7309,-4.7309,-4.7309,-4.7309,-4.7309,-4.7309,-4.7309,-4.7309,-4.7309,-4.7309,-4.7174,-4.6563,-4.6414,-4.6234,-4.5589,-4.5499,-4.5544,-4.5454,-4.499,-4.4526,-4.4347,-4.3813,-4.3394,-4.3305,-4.329,-4.329,-4.329,-4.329,-4.329,-4.329,-4.329,-4.329,-4.329,-4.329,-4.329,-4.329,-4.329,-4.329,-4.329,-4.329,-4.329,-4.329,-4.329,-4.329,-4.329,-4.329,-4.329,-4.329,-4.329,-4.329,-4.329,-4.329,-4.329,0.0,0.0,0.0,0.0,0.0,0.0,0.0,0.0,0.0,0.0,0.0,0.0,0.0,0.0,0.0,0.0,0.0,0.0,0.0,0.0,0.0,0.0,0.0,0.0,0.0,0.0,0.0,0.0,-4.329,-4.329,-4.329,-4.329,-4.329,-4.329,-4.329,-4.329,-4.329,-4.329,-4.329,-4.329,-4.329,-4.329,-4.329,-4.329,-4.329,-4.329,-4.329,-4.3454,-4.3723,-4.3723,-4.4152,-4.4751,-4.4751,-4.5155,-4.5753,-4.5753,-4.5933,-4.6232,-4.6621,-4.6756,-4.6815,-4.7189,-4.7309,-4.7309,-4.7309,-4.7055,-4.6756,-4.6756,-4.6471,-4.6112,-4.5828,-4.5753,-4.5574,-4.49,-4.4751,-4.4646,-4.4272,-4.4257,-4.4212,-4.3798,-4.3484,-4.329,-4.329,-4.329,-4.329,-4.329,-4.329,-4.329,-4.329,-4.329,-4.329,-4.329,-4.329,-4.329,-4.329,-4.329,-4.329,-4.329,-4.329,-4.329,-4.329,-4.329,-4.329,-4.329,-4.329,-4.329,-4.329,-4.329,-4.329,-4.329,-4.329,-4.329,0.0,0.0,0.0,0.0,0.0,0.0,0.0,0.0,0.0,0.0,0.0,0.0,0.0,0.0,0.0,0.0,0.0,0.0,0.0,0.0,0.0,0.0,0.0,0.0,0.0,0.0,0.0,0.0,-4.329,-4.329,-4.329,-4.329,-4.329,-4.329,-4.329,-4.329,-4.329,-4.329,-4.329,-4.329,-4.329,-4.329,-4.329,-4.329,-4.329,-4.329,-4.329,-4.329,-4.329,-4.329,-4.3589,-4.4062,-4.4062,-4.4466,-4.505,-4.505,-4.5155,-4.5364,-4.5888,-4.6067,-4.6142,-4.6636,-4.68,-4.68,-4.68,-4.6456,-4.6067,-4.6067,-4.5693,-4.5259,-4.5095,-4.505,-4.4885,-4.4227,-4.4062,-4.3888,-4.3409,-4.3678,-4.3888,-4.3394,-4.329,-4.329,-4.329,-4.329,-4.329,-4.329,-4.329,-4.329,-4.329,-4.329,-4.329,-4.329,-4.329,-4.329,-4.329,-4.329,-4.329,-4.329,-4.329,-4.329,-4.329,-4.329,-4.329,-4.329,-4.329,-4.329,-4.329,-4.329,-4.329,-4.329,-4.329,-4.329,0.0,0.0,0.0,0.0,0.0,0.0,0.0,0.0,0.0,0.0,0.0,0.0,0.0,0.0,0.0,0.0,0.0,0.0,0.0,0.0,0.0,0.0,0.0,0.0,0.0,0.0,0.0,0.0,-4.329,-4.329,-4.329,-4.329,-4.329,-4.329,-4.329,-4.329,-4.329,-4.329,-4.329,-4.329,-4.329,-4.329,-4.329,-4.329,-4.329,-4.329,-4.329,-4.329,-4.329,-4.329,-4.3319,-4.3349,-4.3349,-4.3738,-4.4362,-4.4362,-4.4751,-4.5289,-4.5334,-4.5349,-4.5349,-4.5394,-4.5394,-4.5394,-4.5394,-4.5379,-4.5349,-4.5349,-4.5319,-4.5155,-4.4526,-4.4362,-4.4197,-4.3499,-4.3349,-4.3334,-4.3305,-4.3319,-4.3334,-4.3305,-4.329,-4.329,-4.329,-4.329,-4.329,-4.329,-4.329,-4.329,-4.329,-4.329,-4.329,-4.329,-4.329,-4.329,-4.329,-4.329,-4.329,-4.329,-4.329,-4.329,-4.329,-4.329,-4.329,-4.329,-4.329,-4.329,-4.329,-4.329,-4.329,-4.329,-4.329,-4.329,0.0,0.0,0.0,0.0,0.0,0.0,0.0,0.0,0.0,0.0,0.0,0.0,0.0,0.0,0.0,0.0,0.0,0.0,0.0,0.0,0.0,0.0,0.0,0.0,0.0,0.0,0.0,0.0,-4.309,-4.329,-4.329,-4.329,-4.329,-4.329,-4.329,-4.329,-4.329,-4.329,-4.329,-4.329,-4.329,-4.329,-4.329,-4.329,-4.329,-4.329,-4.329,-4.329,-4.329,-4.329,-4.329,-4.329,-4.329,-4.3439,-4.3648,-4.3648,-4.3798,-4.4092,-4.4526,-4.4661,-4.4736,-4.5155,-4.5289,-4.5289,-4.5289,-4.5005,-4.4661,-4.4661,-4.4362,-4.3947,-4.3708,-4.3648,-4.3589,-4.3349,-4.329,-4.329,-4.329,-4.329,-4.329,-4.329,-4.329,-4.329,-4.329,-4.329,-4.329,-4.329,-4.329,-4.329,-4.329,-4.329,-4.329,-4.329,-4.329,-4.329,-4.329,-4.329,-4.329,-4.329,-4.329,-4.329,-4.329,-4.329,-4.329,-4.329,-4.329,-4.329,-4.329,-4.329,-4.329,-4.329,-4.329,-4.329,0.0,0.0,0.0,0.0,0.0,0.0,0.0,0.0,0.0,0.0,0.0,0.0,0.0,0.0,0.0,0.0,0.0,0.0,0.0,0.0,0.0,0.0,0.0,0.0,0.0,0.0,0.0,0.0,-4.2641,0.0,-4.3015,-4.317,-4.329,-4.329,-4.329,-4.329,-4.329,-4.329,-4.329,-4.329,-4.329,-4.329,-4.329,-4.329,-4.329,-4.329,-4.329,-4.329,-4.329,-4.329,-4.329,-4.329,-4.329,-4.329,-4.329,-4.329,-4.329,-4.3349,-4.3798,-4.3947,-4.4062,-4.4496,-4.4631,-4.4631,-4.4631,-4.4332,-4.3947,-4.3947,-4.3618,-4.329,-4.329,-4.329,-4.329,-4.329,-4.329,-4.329,-4.329,-4.329,-4.329,-4.329,-4.329,-4.329,-4.329,-4.329,-4.329,-4.329,-4.329,-4.329,-4.329,-4.329,-4.329,-4.329,-4.329,-4.329,-4.329,-4.329,-4.329,-4.329,-4.329,-4.329,-4.329,-4.329,-4.329,-4.329,-4.329,-4.329,-4.329,-4.329,-4.329,-4.329,-4.329,-4.329,0.0,0.0,0.0,0.0,0.0,0.0,0.0,0.0,0.0,0.0,0.0,0.0,0.0,0.0,0.0,0.0,0.0,0.0,0.0,0.0,0.0,0.0,0.0,0.0,0.0,0.0,0.0,-4.1354,-4.1991,-4.2366,-4.2366,-4.2955,-4.326,-4.326,-4.329,-4.329,-4.329,-4.329,-4.329,-4.329,-4.329,-4.329,-4.329,-4.329,-4.329,-4.329,-4.329,-4.329,-4.329,-4.329,-4.329,-4.329,-4.329,-4.329,-4.329,-4.329,-4.329,-4.329,-4.329,-4.329,-4.329,-4.329,-4.329,-4.329,-4.329,-4.329,-4.325,-4.325,-4.325,-4.325,-4.329,-4.329,-4.329,-4.329,-4.329,-4.329,-4.329,-4.329,-4.329,-4.329,-4.329,-4.329,-4.329,-4.329,-4.329,-4.329,-4.329,-4.329,-4.329,-4.329,-4.329,-4.329,-4.329,-4.329,-4.329,-4.329,-4.329,-4.329,-4.329,-4.329,-4.329,-4.329,-4.329,-4.329,-4.329,-4.329,-4.329,-4.329,-4.329,-4.329,-4.329,-4.329,-3.1511,0.0,0.0,0.0,0.0,0.0,0.0,0.0,0.0,0.0,0.0,0.0,0.0,0.0,0.0,0.0,0.0,0.0,0.0,0.0,0.0,0.0,0.0,0.0,0.0,0.0,0.0,0.0,-4.128,-4.1692,-4.1692,-4.2267,-4.2626,-4.2626,-4.309,-4.329,-4.329,-4.329,-4.329,-4.329,-4.329,-4.329,-4.329,-4.329,-4.329,-4.329,-4.329,-4.329,-4.329,-4.329,-4.329,-4.329,-4.329,-4.329,-4.329,-4.329,-4.329,-4.329,-4.329,-4.329,-4.329,-4.329,-4.329,-4.329,-4.329,-4.2725,-4.207,-4.207,-4.207,-4.2249,-4.3076,-4.329,-4.329,-4.329,-4.329,-4.329,-4.329,-4.329,-4.329,-4.329,-4.329,-4.329,-4.329,-4.329,-4.329,-4.329,-4.329,-4.329,-4.329,-4.329,-4.329,-4.329,-4.329,-4.329,-4.329,-4.329,-4.329,-4.329,-4.329,-4.329,-4.329,-4.329,-4.329,-4.329,-4.329,-4.329,-4.329,-4.329,-4.329,-4.329,-4.329,-4.329,0.0,0.0,0.0,0.0,0.0,0.0,-3.4427,-3.513,-3.6028,0.0,0.0,0.0,0.0,0.0,0.0,0.0,0.0,0.0,0.0,0.0,0.0,0.0,0.0,0.0,0.0,-3.9768,-3.9993,-3.9993,-4.0591,-4.1085,-4.1407,-4.1782,-4.1991,-4.1991,-4.2581,-4.2925,-4.2925,-4.3155,-4.329,-4.329,-4.329,-4.329,-4.329,-4.329,-4.329,-4.329,-4.329,-4.329,-4.329,-4.329,-4.329,-4.329,-4.329,-4.329,-4.329,-4.329,-4.329,-4.329,-4.329,-4.329,-4.329,-4.329,-4.2981,-4.2589,-4.2589,-4.1767,-4.0873,-4.0873,-4.0873,-4.1042,-4.1699,-4.2208,-4.2589,-4.2589,-4.2941,-4.329,-4.329,-4.329,-4.329,-4.329,-4.329,-4.329,-4.329,-4.329,-4.329,-4.329,-4.329,-4.329,-4.329,-4.329,-4.329,-4.329,-4.329,-4.329,-4.329,-4.329,-4.329,-4.329,-4.329,-4.329,-4.329,-4.329,-4.329,-4.329,-4.329,-4.329,-4.329,-4.329,-4.329,-4.329,-4.329,-4.329,0.0,0.0,0.0,0.0,0.0,0.0,-3.5265,-3.5489,-3.5774,0.0,0.0,0.0,0.0,0.0,0.0,0.0,0.0,0.0,0.0,0.0,0.0,0.0,0.0,0.0,-3.9388,-3.9388,-3.9388,-3.9388,-3.9963,-4.0546,-4.113,-4.1235,-4.1265,-4.1265,-4.1946,-4.2291,-4.2291,-4.2895,-4.3185,-4.3185,-4.326,-4.329,-4.329,-4.329,-4.329,-4.329,-4.329,-4.329,-4.329,-4.329,-4.329,-4.329,-4.329,-4.329,-4.329,-4.329,-4.329,-4.329,-4.329,-4.329,-4.329,-4.329,-4.2589,-4.1767,-4.1629,-4.0788,-3.9855,-3.9724,-3.9724,-3.9724,-3.9855,-4.0661,-4.142,-4.142,-4.2208,-4.29,-4.29,-4.3036,-4.3115,-4.3115,-4.321,-4.329,-4.329,-4.329,-4.329,-4.329,-4.329,-4.329,-4.329,-4.329,-4.329,-4.329,-4.329,-4.329,-4.329,-4.329,-4.329,-4.329,-4.329,-4.329,-4.329,-4.329,-4.329,-4.329,-4.329,-4.329,-4.329,-4.329,-4.329,-4.329,-4.329,-4.329,0.0,0.0,0.0,0.0,0.0,0.0,-3.2333,-3.2363,-3.2721,0.0,0.0,0.0,0.0,0.0,0.0,0.0,0.0,0.0,0.0,0.0,0.0,0.0,0.0,0.0,-3.9388,-3.9388,-3.9388,-3.9388,-3.9508,-3.9664,-3.9798,-4.0307,-4.0591,-4.0591,-4.1235,-4.1617,-4.1617,-4.2261,-4.259,-4.259,-4.309,-4.329,-4.329,-4.329,-4.329,-4.329,-4.329,-4.329,-4.329,-4.329,-4.329,-4.329,-4.329,-4.329,-4.329,-4.329,-4.329,-4.329,-4.329,-4.329,-4.329,-4.329,-4.3155,-4.2805,-4.1891,-4.0788,-3.9724,-3.8738,-3.8469,-3.8693,-3.9637,-4.0073,-4.0232,-4.0232,-4.0418,-4.0546,-4.0546,-4.1295,-4.1932,-4.1932,-4.2684,-4.329,-4.329,-4.329,-4.329,-4.329,-4.329,-4.329,-4.329,-4.329,-4.329,-4.329,-4.329,-4.329,-4.329,-4.329,-4.329,-4.329,-4.329,-4.329,-4.329,-4.329,-4.329,-4.329,-4.329,-4.329,-4.329,-4.329,-4.329,-4.329,-4.329,-4.329,0.0,0.0,0.0,-3.1511,0.0,0.0,0.0,-3.2512,-3.2886,0.0,0.0,0.0,0.0,0.0,0.0,0.0,0.0,0.0,0.0,0.0,0.0,0.0,0.0,0.0,-3.9388,-3.9388,-3.9388,-3.9388,-3.9388,-3.9388,-3.9388,-3.9723,-3.9903,-3.9903,-4.0546,-4.0891,-4.0891,-4.1587,-4.1916,-4.1916,-4.2536,-4.2851,-4.2865,-4.314,-4.2981,-4.2467,-4.2467,-4.2467,-4.2467,-4.2467,-4.2467,-4.2467,-4.2467,-4.2467,-4.2371,-4.1823,-4.1616,-4.1616,-4.1616,-4.1616,-4.1616,-4.1616,-4.1211,-4.059,-4.0017,-3.9036,-3.8043,-3.7415,-3.7243,-3.7368,-3.7997,-3.8572,-3.9006,-3.9006,-3.9448,-3.9899,-3.9899,-4.0361,-4.0746,-4.0746,-4.1684,-4.2629,-4.321,-4.329,-4.329,-4.329,-4.329,-4.329,-4.329,-4.329,-4.329,-4.329,-4.329,-4.329,-4.329,-4.329,-4.329,-4.329,-4.329,-4.329,-4.329,-4.329,-4.329,-4.329,-4.329,-4.329,-4.329,-4.329,-4.329,-4.329,-4.329,-4.329,0.0,0.0,0.0,0.0,0.0,-3.1929,0.0,0.0,0.0,0.0,0.0,0.0,0.0,0.0,0.0,0.0,0.0,0.0,0.0,0.0,0.0,0.0,0.0,0.0,-3.905,-3.9,-3.914,-3.9394,-3.9149,-3.9155,-3.9373,-3.9388,-3.9388,-3.9388,-3.9933,-4.0217,-4.0217,-4.0658,-4.0895,-4.091,-4.1564,-4.1857,-4.178,-4.2471,-4.2213,-4.1253,-4.1253,-4.1253,-4.1253,-4.1253,-4.1253,-4.1295,-4.1504,-4.1462,-4.1169,-4.0232,-3.9899,-3.9899,-3.9899,-3.9899,-3.9899,-3.9899,-3.9094,-3.8107,-3.8107,-3.7276,-3.6405,-3.6405,-3.6405,-3.6405,-3.6405,-3.7057,-3.7756,-3.7756,-3.8527,-3.9241,-3.9241,-3.9417,-3.9536,-3.9536,-4.0476,-4.1643,-4.278,-4.3155,-4.329,-4.329,-4.329,-4.329,-4.329,-4.329,-4.329,-4.329,-4.329,-4.329,-4.329,-4.329,-4.329,-4.329,-4.329,-4.329,-4.329,-4.329,-4.329,-4.329,-4.329,-4.329,-4.329,-4.329,-4.329,-4.329,-4.329,-4.329,0.0,0.0,0.0,0.0,-3.1944,0.0,0.0,0.0,-3.1765,-3.1929,0.0,0.0,0.0,0.0,0.0,0.0,0.0,0.0,0.0,0.0,0.0,0.0,0.0,0.0,0.0,-3.7644,-3.8138,-3.9334,-3.8317,-3.8153,-3.9328,-3.9388,-3.9388,-3.9388,-3.9448,-3.9493,-3.9493,-3.9256,-3.9088,-3.9088,-3.9764,-3.9862,-3.9411,-4.0423,-4.06,-4.0073,-4.0073,-4.0073,-4.0073,-4.0073,-4.0073,-4.0189,-4.1211,-4.1,-4.0073,-3.9942,-3.9899,-3.9899,-3.9899,-3.9899,-3.9899,-3.9899,-3.9094,-3.8107,-3.8107,-3.7276,-3.6405,-3.6405,-3.6405,-3.6405,-3.6405,-3.6499,-3.6581,-3.6581,-3.6722,-3.6803,-3.6803,-3.7586,-3.8289,-3.8289,-3.9271,-4.0447,-4.1601,-4.2629,-4.329,-4.329,-4.329,-4.329,-4.329,-4.329,-4.329,-4.329,-4.329,-4.329,-4.329,-4.329,-4.329,-4.329,-4.329,-4.329,-4.329,-4.329,-4.329,-4.329,-4.329,-4.329,-4.329,-4.329,-4.329,-4.329,-4.329,-4.329,0.0,0.0,0.0,0.0,0.0,0.0,-3.1618,0.0,-3.1511,0.0,0.0,0.0,0.0,0.0,0.0,0.0,-3.2452,0.0,0.0,0.0,0.0,0.0,0.0,0.0,0.0,0.0,-3.7973,-3.932,-3.8167,-3.8003,-3.9313,-3.8819,-3.8472,-3.8472,-3.7852,-3.7852,-3.8472,-3.7676,-3.7597,-3.8232,-3.8249,-3.8151,-3.7993,-3.8808,-3.8893,-3.8405,-3.8405,-3.8562,-3.8872,-3.8872,-3.8872,-3.8917,-3.9376,-3.9288,-3.8783,-3.8134,-3.7874,-3.7874,-3.7874,-3.7874,-3.7874,-3.7874,-3.7507,-3.7103,-3.7103,-3.6803,-3.6405,-3.6405,-3.6405,-3.6405,-3.6405,-3.6405,-3.6405,-3.6405,-3.6405,-3.6405,-3.6405,-3.6803,-3.7103,-3.7103,-3.8075,-3.9006,-3.9508,-4.1112,-4.233,-4.233,-4.29,-4.329,-4.329,-4.329,-4.329,-4.329,-4.329,-4.329,-4.329,-4.329,-4.329,-4.329,-4.329,-4.329,-4.329,-4.329,-4.329,-4.329,-4.329,-4.329,-4.329,-4.329,-4.329,-4.329,-4.329,-4.329,-3.0706,0.0,0.0,0.0,0.0,0.0,0.0,0.0,0.0,0.0,0.0,0.0,0.0,0.0,0.0,0.0,0.0,-3.2557,0.0,0.0,0.0,0.0,0.0,0.0,0.0,-3.6552,-3.7045,-3.8701,-3.7644,-3.7476,-3.8891,-3.8509,-3.7979,-3.7381,-3.6891,-3.6852,-3.7343,-3.6304,-3.6186,-3.6972,-3.6655,-3.6429,-3.6317,-3.7111,-3.7133,-3.6596,-3.6596,-3.6863,-3.7397,-3.7397,-3.7488,-3.7632,-3.7632,-3.7632,-3.754,-3.6709,-3.6405,-3.6405,-3.6405,-3.6405,-3.6405,-3.6405,-3.6405,-3.6405,-3.6405,-3.6405,-3.6405,-3.6405,-3.6405,-3.6405,-3.6405,-3.6405,-3.6405,-3.6405,-3.6405,-3.6405,-3.6405,-3.6405,-3.6405,-3.6405,-3.7057,-3.7632,-3.7632,-3.9596,-4.1127,-4.1127,-4.1823,-4.2467,-4.2805,-4.282,-4.2941,-4.325,-4.329,-4.329,-4.329,-4.329,-4.329,-4.329,-4.329,-4.329,-4.329,-4.329,-4.329,-4.329,-4.329,-4.329,-4.329,-4.329,-4.329,-4.329,-4.329,-4.329,0.0,0.0,0.0,-3.1112,0.0,0.0,0.0,0.0,-3.2273,0.0,0.0,0.0,0.0,0.0,0.0,0.0,0.0,0.0,0.0,0.0,0.0,0.0,0.0,0.0,0.0,-3.4382,-3.4696,-3.7285,-3.6282,-3.6216,-3.7774,-3.8782,-3.8405,-3.633,-3.7228,-3.7266,-3.6277,-3.5238,-3.4787,-3.4787,-3.48,-3.4504,-3.4016,-3.5106,-3.5288,-3.4783,-3.4783,-3.5097,-3.5567,-3.5567,-3.5927,-3.6452,-3.6452,-3.6452,-3.6452,-3.6405,-3.6405,-3.6405,-3.6405,-3.6405,-3.6405,-3.6405,-3.6405,-3.6405,-3.6405,-3.6405,-3.6405,-3.6405,-3.6405,-3.6405,-3.6405,-3.6405,-3.6405,-3.6405,-3.6405,-3.6405,-3.6405,-3.6405,-3.6405,-3.6405,-3.6452,-3.6452,-3.6452,-3.8392,-3.9942,-3.9942,-3.9986,-4.0418,-4.1504,-4.1629,-4.207,-4.317,-4.329,-4.329,-4.329,-4.329,-4.329,-4.329,-4.329,-4.329,-4.329,-4.329,-4.329,-4.329,-4.329,-4.329,-4.329,-4.329,-4.329,-4.329,-4.329,-4.329,0.0,0.0,-3.2071,-3.1509,0.0,0.0,0.0,0.0,0.0,0.0,0.0,0.0,0.0,0.0,0.0,0.0,0.0,0.0,0.0,0.0,0.0,0.0,0.0,0.0,0.0,0.0,0.0,-3.7285,-3.6389,-3.6359,-3.7742,-3.6841,-3.5961,-3.5251,-3.4856,-3.4856,-3.5197,-3.4191,-3.3995,-3.4705,-3.3995,-3.3543,-3.34,-3.3763,-3.4025,-3.4173,-3.4173,-3.4487,-3.4956,-3.4956,-3.5282,-3.5818,-3.5818,-3.6044,-3.6405,-3.6405,-3.6405,-3.6405,-3.6405,-3.6405,-3.6405,-3.6405,-3.6405,-3.6342,-3.5931,-3.5818,-3.5742,-3.5378,-3.5278,-3.5278,-3.5278,-3.5278,-3.5278,-3.5278,-3.5554,-3.5818,-3.5818,-3.6107,-3.6405,-3.6405,-3.6405,-3.6405,-3.6405,-3.707,-3.7815,-3.8604,-3.9404,-4.0029,-4.0447,-4.049,-4.0618,-4.1014,-4.1726,-4.2152,-4.2152,-4.286,-4.329,-4.329,-4.329,-4.329,-4.329,-4.329,-4.329,-4.329,-4.329,-4.329,-4.329,-4.329,-4.329,-4.329,-4.329,-4.329,-3.2003,-3.2275,0.0,-3.1793,-3.1479,0.0,-3.0964,0.0,-3.1276,0.0,0.0,0.0,0.0,0.0,0.0,0.0,0.0,0.0,0.0,-3.1511,0.0,0.0,0.0,0.0,0.0,0.0,-3.4224,-3.5589,-3.511,-3.5111,-3.6049,-3.553,-3.4897,-3.415,-3.3839,-3.3839,-3.4108,-3.3441,-3.3441,-3.4108,-3.3441,-3.3124,-3.3124,-3.3124,-3.3269,-3.3608,-3.3608,-3.3922,-3.4424,-3.4424,-3.4705,-3.5207,-3.5207,-3.5466,-3.5818,-3.6267,-3.6405,-3.638,-3.6132,-3.6069,-3.6044,-3.5843,-3.578,-3.5705,-3.5307,-3.5207,-3.5169,-3.5019,-3.4969,-3.4969,-3.4969,-3.4969,-3.4919,-3.4731,-3.4944,-3.5207,-3.5207,-3.5529,-3.583,-3.6031,-3.6069,-3.6132,-3.6367,-3.6405,-3.6675,-3.7368,-3.8179,-3.8796,-3.9183,-3.9271,-3.9404,-3.9855,-4.0575,-4.1169,-4.1545,-4.229,-4.286,-4.325,-4.329,-4.329,-4.329,-4.329,-4.329,-4.329,-4.329,-4.329,-4.329,-4.329,-4.329,-4.329,-4.329,-4.329]}]]